[[{"header":{"parameterUnit":"m.s-1","parameterCategory":1,"la1":30.6,"la2":29.2853,"lo1":-89.7004,"lo2":-87.6739,"dx":0.0162,"dy":0.0183,"nx":112,"ny":82,"refTime":"2022-11-20T18:00:00:Z","depth":0,"parameterNumber":2,"parameterNumberName":"U-component_of_WINDS"},"data":[0.0,0.0,0.0,0.0,0.0,0.0,0.0,0.0,0.0,0.0,0.0,0.0,0.0,0.0,0.0,0.0,0.0,0.0,0.0,0.0,0.0,0.0,0.0,0.0,0.0,0.0,0.0,0.0,0.0,0.0,0.0,0.0,0.0,0.0,0.0,0.0,0.0,0.0,0.0,0.0,0.0,0.0,0.0,0.0,0.0,0.0,0.0,0.0,0.0,0.0,0.0,0.0,0.0,0.0,0.0,0.0,0.0,0.0,0.0,0.0,0.0,0.0,0.0,0.0,0.0,0.0,0.0,0.0,0.0,0.0,0.0,0.0,0.0,0.0,0.0,0.0,0.0,0.0,0.0,0.0,0.0,0.0,0.0,0.0,0.0,0.0,0.0,0.0,0.0,0.0,3.9705,4.1694,4.5515,4.765,4.7022,4.6278,4.2726,3.5329,0.0,0.0,0.0,0.0,0.0,0.0,0.0,0.0,0.0,0.0,0.0,0.0,0.0,0.0,0.0,0.0,0.0,0.0,0.0,0.0,0.0,0.0,0.0,0.0,0.0,0.0,0.0,0.0,0.0,0.0,0.0,0.0,0.0,0.0,0.0,0.0,0.0,0.0,0.0,0.0,0.0,0.0,0.0,0.0,0.0,0.0,0.0,0.0,0.0,0.0,0.0,0.0,0.0,0.0,0.0,0.0,0.0,0.0,0.0,0.0,0.0,0.0,0.0,0.0,0.0,0.0,0.0,0.0,0.0,0.0,0.0,0.0,0.0,0.0,0.0,0.0,0.0,0.0,0.0,0.0,0.0,0.0,0.0,0.0,0.0,0.0,0.0,0.0,0.0,0.0,0.0,0.0,0.0,0.0,0.0,0.0,0.0,0.0,0.0,0.0,0.0,0.0,0.0,0.0,3.9767,4.6973,4.7823,4.7845,4.7752,4.7056,4.3714,3.6891,0.0,0.0,0.0,0.0,0.0,0.0,0.0,0.0,0.0,0.0,0.0,0.0,0.0,0.0,0.0,0.0,0.0,0.0,0.0,0.0,0.0,0.0,0.0,0.0,0.0,0.0,0.0,0.0,0.0,0.0,0.0,0.0,0.0,0.0,0.0,0.0,0.0,0.0,0.0,0.0,0.0,0.0,0.0,0.0,0.0,0.0,0.0,0.0,0.0,0.0,0.0,0.0,0.0,0.0,0.0,0.0,0.0,0.0,0.0,0.0,0.0,0.0,0.0,0.0,0.0,0.0,0.0,0.0,0.0,0.0,0.0,0.0,0.0,0.0,0.0,0.0,0.0,0.0,0.0,0.0,0.0,0.0,0.0,0.0,0.0,0.0,0.0,0.0,0.0,0.0,0.0,0.0,0.0,0.0,0.0,0.0,0.0,0.0,0.0,0.0,0.0,0.0,0.0,3.7357,4.1407,4.8259,4.8706,4.8496,4.8496,4.8206,4.4959,3.7861,3.5616,0.0,0.0,0.0,0.0,0.0,0.0,0.0,0.0,0.0,0.0,0.0,0.0,0.0,0.0,0.0,0.0,0.0,0.0,0.0,0.0,0.0,0.0,0.0,0.0,0.0,0.0,0.0,0.0,0.0,0.0,0.0,0.0,0.0,0.0,0.0,0.0,0.0,0.0,0.0,0.0,0.0,0.0,0.0,0.0,0.0,0.0,0.0,0.0,0.0,0.0,0.0,0.0,0.0,0.0,0.0,0.0,0.0,0.0,0.0,0.0,0.0,0.0,0.0,0.0,0.0,0.0,0.0,0.0,0.0,0.0,0.0,0.0,0.0,0.0,0.0,0.0,0.0,0.0,0.0,0.0,0.0,0.0,0.0,0.0,0.0,0.0,0.0,0.0,0.0,0.0,0.0,0.0,0.0,0.0,0.0,0.0,0.0,0.0,0.0,0.0,0.0,0.0,4.1318,4.4231,4.8541,4.9011,4.9011,4.9011,4.9011,4.5831,3.8356,3.645,0.0,0.0,0.0,0.0,0.0,0.0,0.0,0.0,0.0,0.0,0.0,0.0,0.0,0.0,0.0,0.0,0.0,0.0,0.0,0.0,0.0,0.0,0.0,0.0,0.0,0.0,0.0,0.0,0.0,0.0,0.0,0.0,0.0,0.0,0.0,0.0,0.0,0.0,0.0,0.0,0.0,0.0,0.0,0.0,0.0,0.0,0.0,0.0,0.0,0.0,0.0,0.0,0.0,0.0,0.0,0.0,0.0,0.0,0.0,0.0,0.0,0.0,0.0,0.0,0.0,0.0,0.0,0.0,0.0,0.0,0.0,0.0,0.0,0.0,0.0,0.0,0.0,0.0,0.0,0.0,0.0,0.0,0.0,0.0,0.0,0.0,0.0,0.0,0.0,0.0,0.0,0.0,0.0,0.0,0.0,0.0,0.0,0.0,0.0,0.0,0.0,0.0,4.3442,4.8568,4.8951,4.9011,4.9011,4.9011,4.9011,4.5831,3.8356,3.645,0.0,0.0,0.0,0.0,0.0,0.0,0.0,0.0,0.0,0.0,0.0,0.0,0.0,0.0,0.0,0.0,0.0,0.0,0.0,0.0,0.0,0.0,0.0,0.0,0.0,0.0,0.0,0.0,0.0,0.0,0.0,0.0,0.0,0.0,0.0,0.0,0.0,0.0,0.0,0.0,0.0,0.0,0.0,0.0,0.0,0.0,0.0,0.0,0.0,0.0,0.0,0.0,0.0,0.0,0.0,0.0,0.0,0.0,0.0,0.0,0.0,0.0,0.0,0.0,0.0,0.0,0.0,0.0,0.0,0.0,0.0,0.0,0.0,0.0,0.0,0.0,0.0,0.0,0.0,0.0,0.0,0.0,0.0,0.0,0.0,0.0,0.0,0.0,0.0,0.0,0.0,0.0,0.0,0.0,0.0,0.0,0.0,0.0,0.0,0.0,0.0,0.0,4.1666,4.613,4.8737,4.9011,4.9011,4.9011,4.9011,4.5635,3.7697,0.0,0.0,0.0,0.0,0.0,0.0,0.0,0.0,0.0,0.0,0.0,0.0,0.0,0.0,0.0,0.0,0.0,0.0,0.0,0.0,0.0,0.0,0.0,0.0,0.0,0.0,0.0,0.0,0.0,0.0,0.0,0.0,0.0,0.0,0.0,0.0,0.0,0.0,0.0,0.0,0.0,0.0,0.0,0.0,0.0,0.0,0.0,0.0,0.0,0.0,0.0,0.0,0.0,0.0,0.0,0.0,0.0,0.0,0.0,0.0,0.0,0.0,0.0,0.0,0.0,0.0,0.0,0.0,0.0,0.0,0.0,0.0,0.0,0.0,0.0,0.0,0.0,0.0,0.0,0.0,0.0,0.0,0.0,0.0,0.0,0.0,0.0,0.0,0.0,0.0,0.0,0.0,0.0,0.0,0.0,0.0,0.0,0.0,0.0,0.0,0.0,0.0,3.6971,4.2121,4.6553,4.9414,4.9687,4.9687,4.9687,4.9484,4.5872,3.7664,0.0,0.0,0.0,0.0,0.0,0.0,0.0,0.0,0.0,0.0,0.0,0.0,0.0,0.0,0.0,0.0,0.0,0.0,0.0,0.0,0.0,0.0,0.0,0.0,0.0,0.0,0.0,0.0,0.0,0.0,0.0,0.0,0.0,0.0,0.0,0.0,0.0,0.0,0.0,0.0,0.0,0.0,0.0,0.0,0.0,0.0,0.0,0.0,0.0,0.0,0.0,0.0,0.0,0.0,0.0,0.0,0.0,0.0,0.0,0.0,0.0,0.0,0.0,0.0,0.0,0.0,0.0,0.0,0.0,0.0,0.0,0.0,0.0,0.0,0.0,0.0,0.0,0.0,0.0,0.0,0.0,0.0,0.0,0.0,0.0,0.0,0.0,0.0,0.0,0.0,0.0,0.0,0.0,0.0,0.0,0.0,0.0,0.0,0.0,0.0,0.0,0.0,3.7815,4.5689,5.1201,5.1201,5.1201,5.1201,5.1201,5.0541,4.6624,0.0,0.0,0.0,0.0,0.0,0.0,0.0,0.0,0.0,0.0,0.0,0.0,0.0,0.0,0.0,0.0,0.0,0.0,0.0,0.0,0.0,0.0,0.0,0.0,0.0,0.0,0.0,0.0,0.0,0.0,0.0,0.0,0.0,0.0,0.0,0.0,0.0,0.0,0.0,0.0,0.0,0.0,0.0,0.0,0.0,0.0,0.0,0.0,0.0,0.0,0.0,0.0,0.0,0.0,0.0,0.0,0.0,0.0,0.0,0.0,0.0,0.0,0.0,0.0,0.0,0.0,0.0,0.0,0.0,0.0,0.0,0.0,0.0,0.0,0.0,0.0,0.0,0.0,0.0,0.0,0.0,0.0,0.0,0.0,0.0,0.0,0.0,0.0,0.0,0.0,0.0,0.0,0.0,0.0,0.0,0.0,0.0,0.0,0.0,0.0,0.0,0.0,0.0,3.8497,4.6,5.1201,5.1201,5.1201,5.1201,5.1201,5.1006,4.6947,3.7697,0.0,0.0,0.0,0.0,0.0,0.0,0.0,0.0,0.0,0.0,0.0,0.0,0.0,0.0,0.0,0.0,0.0,0.0,0.0,0.0,0.0,0.0,0.0,0.0,0.0,0.0,0.0,0.0,0.0,0.0,0.0,0.0,0.0,0.0,0.0,0.0,0.0,0.0,0.0,0.0,0.0,0.0,0.0,0.0,0.0,0.0,0.0,0.0,0.0,0.0,0.0,0.0,0.0,0.0,0.0,0.0,0.0,0.0,0.0,0.0,0.0,0.0,0.0,0.0,0.0,0.0,0.0,0.0,0.0,0.0,0.0,0.0,0.0,0.0,0.0,0.0,0.0,0.0,0.0,0.0,0.0,0.0,0.0,0.0,0.0,0.0,0.0,0.0,0.0,0.0,0.0,0.0,0.0,0.0,0.0,0.0,0.0,0.0,0.0,0.0,0.0,0.0,3.9648,4.7049,5.2224,5.2528,5.2291,5.2114,5.2114,5.181,4.8402,4.0844,0.0,0.0,0.0,0.0,0.0,0.0,0.0,0.0,0.0,0.0,0.0,0.0,0.0,0.0,0.0,0.0,0.0,0.0,0.0,0.0,0.0,0.0,0.0,0.0,0.0,0.0,0.0,0.0,0.0,0.0,0.0,0.0,0.0,0.0,0.0,0.0,0.0,0.0,0.0,0.0,0.0,0.0,0.0,0.0,0.0,0.0,0.0,0.0,0.0,0.0,0.0,0.0,0.0,0.0,0.0,0.0,0.0,0.0,0.0,0.0,0.0,0.0,0.0,0.0,0.0,0.0,0.0,0.0,0.0,0.0,0.0,0.0,0.0,0.0,0.0,0.0,0.0,0.0,0.0,0.0,0.0,0.0,0.0,0.0,0.0,0.0,0.0,0.0,0.0,0.0,0.0,0.0,0.0,0.0,0.0,0.0,0.0,0.0,0.0,0.0,0.0,0.0,4.1035,4.8571,5.3957,5.4642,5.4093,5.3712,5.3712,5.3044,5.0636,4.5951,0.0,0.0,0.0,0.0,0.0,0.0,0.0,0.0,0.0,0.0,0.0,0.0,0.0,0.0,0.0,0.0,0.0,0.0,0.0,0.0,0.0,0.0,0.0,0.0,0.0,0.0,0.0,0.0,0.0,0.0,0.0,0.0,0.0,0.0,0.0,0.0,0.0,0.0,0.0,0.0,0.0,0.0,0.0,0.0,0.0,0.0,0.0,0.0,0.0,0.0,0.0,0.0,0.0,0.0,0.0,0.0,0.0,0.0,0.0,0.0,3.2716,2.8817,0.0,0.0,0.0,0.0,0.0,0.0,0.0,0.0,0.0,0.0,0.0,0.0,0.0,0.0,0.0,0.0,0.0,0.0,0.0,0.0,0.0,0.0,0.0,0.0,0.0,0.0,0.0,0.0,0.0,0.0,0.0,0.0,0.0,0.0,0.0,0.0,0.0,0.0,0.0,0.0,4.1785,4.9755,5.5293,5.5437,5.5327,5.5225,5.5225,5.5056,5.2219,4.5703,4.4106,0.0,0.0,0.0,0.0,0.0,0.0,0.0,0.0,0.0,0.0,0.0,0.0,0.0,0.0,0.0,0.0,0.0,0.0,0.0,0.0,0.0,0.0,0.0,0.0,0.0,0.0,0.0,0.0,0.0,0.0,0.0,0.0,0.0,0.0,0.0,0.0,0.0,0.0,0.0,0.0,0.0,0.0,0.0,0.0,0.0,0.0,0.0,0.0,0.0,0.0,0.0,0.0,0.0,0.0,0.0,0.0,0.0,0.0,0.0,3.6466,3.4209,0.0,0.0,0.0,0.0,0.0,0.0,0.0,0.0,0.0,0.0,0.0,0.0,0.0,0.0,0.0,0.0,0.0,0.0,0.0,0.0,0.0,0.0,0.0,0.0,0.0,0.0,0.0,0.0,0.0,0.0,0.0,0.0,0.0,0.0,0.0,0.0,0.0,0.0,0.0,0.0,4.2963,5.0566,5.5834,5.6181,5.5902,5.5699,5.5699,5.5206,5.3309,4.9669,4.6575,0.0,0.0,0.0,0.0,0.0,0.0,0.0,0.0,0.0,0.0,0.0,0.0,0.0,0.0,0.0,0.0,0.0,0.0,0.0,0.0,0.0,0.0,0.0,0.0,0.0,0.0,0.0,0.0,0.0,0.0,0.0,0.0,0.0,0.0,0.0,0.0,0.0,0.0,0.0,0.0,0.0,0.0,0.0,0.0,0.0,0.0,0.0,0.0,0.0,0.0,0.0,0.0,0.0,3.8006,3.831,3.8344,3.9011,4.098,4.3681,4.0539,4.0421,4.1974,3.5316,0.0,0.0,0.0,0.0,0.0,0.0,0.0,0.0,0.0,0.0,0.0,0.0,0.0,0.0,0.0,0.0,0.0,0.0,0.0,0.0,0.0,0.0,4.1508,4.299,4.5256,4.5933,4.1874,0.0,0.0,0.0,0.0,0.0,0.0,0.0,0.0,0.0,0.0,0.0,4.5324,5.2055,5.6689,5.7297,5.6722,5.6212,5.5999,5.5007,5.4169,5.3674,4.8685,4.5128,0.0,0.0,0.0,0.0,0.0,0.0,0.0,0.0,0.0,0.0,0.0,0.0,0.0,0.0,0.0,0.0,0.0,0.0,0.0,0.0,0.0,0.0,0.0,0.0,0.0,0.0,0.0,0.0,0.0,0.0,0.0,0.0,3.3903,3.3962,0.0,0.0,0.0,0.0,0.0,0.0,0.0,0.0,0.0,0.0,0.0,0.0,0.0,3.6851,3.8537,4.1785,4.3748,4.4411,4.7616,4.9138,4.9138,4.924,4.9578,4.9991,4.9483,0.0,4.3118,4.1425,0.0,0.0,0.0,0.0,0.0,0.0,0.0,0.0,0.0,0.0,0.0,0.0,0.0,0.0,0.0,0.0,0.0,0.0,0.0,0.0,0.0,0.0,4.9991,5.1514,5.219,5.263,5.3239,4.621,3.9429,3.8064,3.8255,3.7161,0.0,0.0,0.0,0.0,0.0,0.0,5.0533,5.6089,5.9573,5.9641,5.9022,5.8195,5.7266,5.6381,5.4835,5.2333,5.1379,4.8831,4.4218,4.2851,0.0,0.0,0.0,0.0,0.0,0.0,0.0,0.0,0.0,0.0,0.0,0.0,0.0,0.0,0.0,0.0,0.0,0.0,0.0,0.0,0.0,0.0,0.0,0.0,0.0,0.0,0.0,0.0,0.0,3.1233,3.303,3.3444,3.1574,2.9302,0.0,0.0,0.0,0.0,0.0,0.0,0.0,0.0,0.0,4.1684,4.2198,4.3511,4.5831,4.7496,4.8274,4.8206,5.0228,5.0972,5.0608,5.0998,5.1201,5.1201,5.1201,4.9916,4.7616,4.5188,4.2422,3.9451,0.0,0.0,0.0,0.0,3.7516,3.7759,4.2043,4.3261,4.2591,4.0777,0.0,0.0,0.0,0.0,0.0,0.0,0.0,4.2219,4.6082,4.8815,5.1277,5.4084,5.4727,5.4921,5.5564,5.2739,4.8891,4.479,4.3267,4.0663,3.4466,3.5853,0.0,0.0,0.0,4.9172,5.3078,5.7408,5.9852,5.9174,5.8795,5.8127,5.6983,5.6018,5.4934,5.3667,5.2638,5.1023,4.8742,4.5769,4.2071,0.0,0.0,0.0,0.0,0.0,0.0,0.0,0.0,0.0,0.0,0.0,0.0,0.0,0.0,0.0,0.0,0.0,0.0,0.0,0.0,0.0,0.0,0.0,0.0,0.0,0.0,0.0,0.0,3.296,3.4173,3.4516,3.4246,3.2418,0.0,0.0,0.0,0.0,0.0,0.0,3.9777,4.0601,4.2861,4.6981,4.7631,4.918,5.1776,5.1776,5.1716,5.1522,5.2089,5.2055,5.1555,5.208,5.2351,5.2351,5.2351,5.2351,5.208,4.8774,4.6616,4.5176,4.2597,4.0764,3.9918,4.2313,4.297,4.3315,4.8003,4.9383,4.8815,4.7376,4.609,4.4635,4.1847,0.0,0.0,0.0,0.0,4.5534,4.9653,5.1251,5.2579,5.5539,5.6409,5.6612,5.6781,5.7239,5.619,5.1378,4.9424,4.6428,3.9709,4.1772,0.0,4.2144,4.7423,5.263,5.5494,5.8155,5.9418,5.8503,5.8246,5.7654,5.6464,5.5462,5.4769,5.4497,5.321,5.2468,5.2468,4.8884,4.5948,4.3948,0.0,0.0,0.0,0.0,0.0,0.0,0.0,0.0,0.0,0.0,0.0,0.0,0.0,0.0,0.0,0.0,0.0,0.0,0.0,0.0,0.0,0.0,0.0,0.0,0.0,0.0,0.0,0.0,0.0,4.0832,4.1346,0.0,0.0,0.0,0.0,3.7409,3.8328,4.073,4.5087,4.6007,4.78,5.0829,5.0964,5.1742,5.3374,5.3374,5.4084,5.5428,5.5462,5.5462,5.5428,5.5462,5.5462,5.5462,5.5462,5.5462,5.5293,5.2934,5.0296,4.7778,4.83,4.6759,4.4608,4.753,4.9018,5.0041,5.3188,5.4702,5.4997,5.3543,5.0168,4.703,4.8924,4.7071,0.0,0.0,5.0168,5.1472,5.4549,5.5911,5.6697,5.7586,5.8321,5.9022,5.9742,5.8287,5.6968,5.7315,5.8423,5.7881,5.3281,0.0,5.2833,5.2731,5.2713,5.4316,5.8703,5.9015,5.8851,5.8795,5.8164,5.7271,5.6128,5.5337,5.4451,5.3356,5.3193,5.3169,5.3169,5.2312,4.9737,4.5285,4.3788,0.0,0.0,0.0,0.0,0.0,0.0,0.0,0.0,0.0,0.0,0.0,0.0,0.0,0.0,0.0,0.0,0.0,0.0,0.0,0.0,0.0,0.0,0.0,0.0,0.0,0.0,0.0,0.0,4.0677,4.1975,0.0,3.8903,4.0297,4.1813,4.2855,4.5358,4.7996,5.0566,5.098,5.2021,5.4042,5.4109,5.4346,5.493,5.4921,5.493,5.5006,5.5462,5.5437,5.5006,5.5471,5.5699,5.5699,5.5699,5.5699,5.5665,5.5344,5.4287,5.296,5.3196,5.2664,5.1852,5.2934,5.3475,5.3847,5.493,5.5471,5.5597,5.509,5.3839,5.2664,5.3475,5.345,5.3433,5.4753,5.5987,5.7162,5.8244,5.8718,5.8998,5.9235,5.9505,5.9766,6.0047,5.9877,5.9766,6.0047,5.893,5.6785,5.2995,5.514,5.6106,5.2443,5.4614,5.7237,5.8842,5.8898,5.8508,5.7726,5.7413,5.6773,5.559,5.5231,5.4901,5.4498,5.4072,5.3832,5.3832,5.3216,5.2079,5.0414,4.9924,4.5434,0.0,0.0,0.0,0.0,0.0,0.0,0.0,0.0,0.0,0.0,0.0,0.0,0.0,0.0,0.0,0.0,0.0,0.0,0.0,0.0,0.0,0.0,0.0,0.0,0.0,4.0142,4.2875,4.1387,4.3869,4.4613,4.1887,4.4797,4.7267,4.8274,5.06,5.263,5.4152,5.4253,5.4693,5.5665,5.5936,5.6181,5.6452,5.6689,5.6689,5.647,5.6968,5.6925,5.647,5.6959,5.7196,5.7196,5.7196,5.7196,5.723,5.7703,5.7645,5.7128,5.635,5.5902,5.5699,5.5699,5.5868,5.6147,5.6646,5.6984,5.7196,5.7196,5.7196,5.7196,5.7196,5.7881,5.8635,5.8635,5.9345,6.0114,6.0114,6.0317,6.052,6.052,6.0689,6.0892,6.0892,6.1298,6.1563,6.1132,5.9775,5.7853,5.5174,5.7593,5.841,5.4122,5.6164,5.8135,5.8029,5.7777,5.7276,5.6481,5.6384,5.606,5.5267,5.4371,5.4251,5.5132,5.394,5.3581,5.4491,5.2827,5.1881,5.1881,5.1672,4.7649,3.9729,0.0,0.0,0.0,0.0,0.0,0.0,0.0,0.0,0.0,0.0,0.0,0.0,0.0,0.0,0.0,0.0,0.0,0.0,0.0,0.0,0.0,0.0,0.0,4.0407,4.2165,4.3619,4.3619,4.7462,4.9297,4.7199,4.9586,5.1911,5.3441,5.3577,5.4219,5.5699,5.5767,5.58,5.5834,5.6519,5.7239,5.7958,5.8684,5.9394,6.0114,6.0114,6.0114,6.0114,6.0114,6.0114,6.0114,6.0114,6.0114,6.0114,6.0114,6.0114,5.9877,5.7746,5.6452,5.5834,5.5834,5.6283,5.7103,5.8549,5.9496,6.0114,6.0114,6.0114,6.0114,6.0114,6.0114,6.0148,6.0148,6.0148,6.0182,6.0182,6.0757,6.1332,6.1332,6.1873,6.2391,6.2391,6.2391,6.204,6.0839,6.1564,6.1961,6.0724,6.048,5.9966,5.8427,5.7473,0.0,5.6488,5.5712,5.5179,5.5132,5.5132,5.5132,5.5132,5.2755,5.2384,5.5042,5.2743,5.2474,5.5102,5.1522,4.9498,4.9498,4.8678,4.698,4.4366,0.0,0.0,0.0,0.0,0.0,0.0,0.0,0.0,0.0,0.0,0.0,0.0,0.0,0.0,0.0,0.0,0.0,0.0,0.0,0.0,0.0,4.0844,4.3619,4.2645,4.5831,4.8274,4.8274,4.983,5.1108,5.1623,5.2393,5.3475,5.4989,5.5099,5.5741,5.7205,5.7315,5.778,5.8863,5.9099,5.9302,5.9471,5.9708,5.9911,6.0114,6.0114,6.0114,6.0114,6.0114,6.0114,6.0114,6.0114,6.0114,6.0114,6.0114,6.0114,6.0047,5.9438,5.9066,5.8896,5.8896,5.9032,5.9235,5.9674,5.9945,6.0114,6.0114,6.0114,6.0114,6.0114,6.052,6.096,6.096,6.1366,6.1782,6.1782,6.1917,6.212,6.212,6.2255,6.2391,6.2391,6.2391,6.204,6.0839,6.1269,6.0987,5.8423,5.8004,5.7554,5.6246,5.5841,5.5673,5.5585,5.5335,5.4832,5.3845,5.3755,5.3755,5.3755,5.3067,5.3396,5.5102,5.4491,5.4431,5.5162,5.4144,5.3575,5.3575,4.9625,4.6969,0.0,0.0,0.0,0.0,0.0,0.0,0.0,0.0,0.0,0.0,0.0,0.0,0.0,0.0,0.0,0.0,0.0,0.0,0.0,0.0,0.0,0.0,4.4465,4.6861,4.6703,4.8909,5.0811,5.1462,5.1886,5.2757,5.4287,5.4422,5.5031,5.6519,5.6621,5.7273,5.8736,5.8804,5.9201,6.008,6.0419,6.0588,6.0588,6.0892,6.1071,6.1071,6.1071,6.1071,6.1071,6.1071,6.1071,6.1071,6.1071,6.1071,6.1071,6.1071,6.1071,6.0994,0.0,0.0,0.0,0.0,6.0317,6.0588,6.0588,6.0791,6.1071,6.1071,6.1071,6.1071,6.1071,6.14,6.1772,6.1772,6.2086,6.2391,6.2391,6.2391,6.2391,6.2391,6.2236,6.205,6.205,6.1869,6.1347,6.0108,6.0213,0.0,5.7445,5.7451,5.7339,5.6028,5.5902,5.5968,5.583,5.5932,5.57,5.4922,5.4606,5.4456,5.4456,5.3156,0.0,0.0,0.0,5.3414,5.3102,5.3102,0.0,0.0,0.0,4.8992,5.0021,4.695,0.0,0.0,4.2611,4.1743,0.0,0.0,0.0,0.0,0.0,0.0,0.0,0.0,0.0,0.0,0.0,0.0,0.0,0.0,0.0,0.0,4.7985,5.0616,5.1336,5.1539,5.2055,5.3348,5.3644,5.4287,5.5699,5.5902,5.6519,5.7924,5.8094,5.877,6.0148,6.025,0.0,0.0,0.0,6.1434,6.1434,6.2086,6.2391,6.2391,6.2391,6.2391,6.2391,6.2391,6.2391,6.2391,6.2391,6.2391,6.2391,6.2391,6.2391,6.2255,6.0892,6.0351,6.0351,6.0351,6.0825,6.1434,6.1434,0.0,0.0,6.2391,6.2391,6.2391,6.2391,6.2391,6.2391,6.2391,6.2458,6.2496,6.2334,6.2461,6.2568,6.2276,6.1966,6.1664,6.1524,6.1095,6.0356,5.9122,5.8968,5.8631,5.7419,5.8032,5.8258,5.6935,5.6938,5.7019,5.6788,5.6943,5.7034,5.6898,5.6402,0.0,5.6102,5.3354,5.2713,5.5239,5.3114,5.1505,5.0895,5.0805,5.0745,5.0745,5.0745,5.2235,5.5192,5.5119,5.5132,5.4952,4.4855,4.303,0.0,0.0,0.0,0.0,0.0,0.0,0.0,0.0,0.0,0.0,0.0,0.0,0.0,0.0,0.0,4.6838,4.9856,5.2164,5.2934,5.3585,5.3822,5.3551,5.4558,5.564,5.6486,5.7137,5.7848,5.8718,5.9336,6.008,6.1028,6.1061,6.1332,6.1951,6.212,6.2188,6.2188,6.2323,6.2391,6.2391,6.2391,0.0,6.2391,6.2391,6.2391,6.2391,6.2391,6.2391,6.2391,6.2391,6.2391,6.2357,6.2052,6.1951,6.1951,6.1951,6.2052,6.2188,6.2188,6.2289,6.2391,6.2391,6.2391,6.2391,6.2391,6.2391,0.0,6.2391,6.2821,6.304,6.2026,6.2951,6.3647,6.1542,6.1772,6.219,6.1117,6.0767,6.0356,5.9122,5.934,5.9325,5.8113,5.7663,5.7351,5.7071,5.7071,5.7096,5.7045,5.7058,5.6718,5.5671,5.5461,5.5401,5.5401,5.479,5.5102,5.6615,5.579,5.5162,5.5042,5.4521,5.4221,5.4221,5.4221,5.4551,5.5192,5.467,5.467,5.5119,5.2426,5.1756,0.0,0.0,0.0,0.0,0.0,0.0,0.0,0.0,0.0,0.0,0.0,3.9789,4.2428,0.0,4.7184,5.022,5.1953,5.3315,5.4456,5.5243,5.5547,5.5209,5.6122,5.7103,5.7839,5.8558,5.9336,6.0105,6.0477,6.1028,6.1806,6.1839,6.2018,6.2391,6.2391,6.2391,6.2391,6.2391,6.2391,6.2391,6.2391,6.2391,6.2391,6.2391,6.2391,6.2391,6.2391,6.2627,6.299,6.3362,6.3507,6.3507,6.3507,6.3033,6.2391,6.2391,6.2391,6.2391,6.2391,6.2391,6.2458,6.2821,6.2956,6.3024,6.3396,6.3507,6.3507,6.3507,6.3768,6.3775,6.247,6.2907,6.3139,6.1184,6.1031,6.1122,6.0452,6.0085,5.9725,5.9122,5.9266,5.93,5.8697,5.8308,5.8112,5.8112,5.8112,5.8112,5.8112,5.8112,5.7872,5.7214,5.6855,5.6632,5.6632,5.6346,5.6406,5.7064,5.6808,5.6658,5.6658,5.6329,5.6,5.57,5.6,5.585,5.5192,5.5192,5.5192,5.5179,5.4521,5.4371,0.0,0.0,0.0,0.0,0.0,0.0,0.0,3.556,3.6468,3.9614,4.1806,4.3937,4.6515,4.809,5.0025,5.3213,5.3814,5.4456,5.5911,5.663,5.7137,5.7408,5.7848,5.8389,5.9158,5.9902,6.0588,6.1264,6.1434,6.1772,6.2357,6.2391,6.2391,6.2391,6.2391,6.2391,6.2391,6.2391,6.2391,6.2391,6.256,6.2618,6.2627,6.2763,6.283,6.283,6.283,6.3159,6.3758,6.4333,6.4613,6.4613,6.4613,6.3869,6.283,6.283,6.283,6.283,6.283,6.283,6.2932,6.3521,6.3714,6.3825,6.441,6.4613,6.4563,6.4314,6.4319,6.4107,6.2561,6.2469,6.2376,6.0781,6.0252,6.0081,5.9968,5.959,5.9338,5.9444,5.9488,5.9488,5.9488,5.9368,5.9249,5.9129,5.9099,5.9099,5.9099,5.9009,5.8919,5.8919,5.8427,5.8145,5.8264,5.7812,5.7483,5.7483,5.7363,5.7304,5.7304,5.7154,5.6808,5.6222,5.6778,5.6539,5.5401,5.5803,5.5803,5.5371,5.4581,5.4491,3.3418,3.3283,3.423,3.6665,3.6778,3.8211,0.0,4.5169,4.4364,4.7985,4.945,5.0389,5.1386,5.2291,5.3247,5.4304,5.504,5.5978,5.7451,5.7721,5.8263,5.9573,5.9225,5.9158,5.9911,6.0689,6.1197,6.1289,6.1917,6.2323,6.2391,6.2391,6.2391,6.2391,6.2391,6.2391,6.2391,6.2391,6.2391,6.2424,6.3047,6.3386,6.3386,6.4072,6.4343,6.4343,6.4343,6.441,6.4468,6.458,6.4613,6.4613,6.4613,6.4512,6.4343,6.4343,6.4343,6.4343,6.4343,6.4343,6.4377,6.4444,6.4478,6.4478,6.458,6.4613,6.4365,6.3226,6.3375,6.3326,6.0861,6.1571,6.2338,5.9888,6.0097,6.0735,6.02,6.003,6.0146,6.0761,6.088,6.088,6.088,6.0386,5.9801,5.9189,5.9099,5.9099,5.9099,5.8577,5.8205,5.8205,5.8145,5.8338,5.8949,5.8919,5.889,5.889,5.8308,5.7995,5.7995,5.7423,5.6808,5.6222,5.6778,5.6778,5.6102,5.5564,5.5581,5.6072,5.479,5.4239,4.1001,4.0216,3.9737,4.1908,4.2523,4.3518,4.6928,4.709,4.7319,5.0161,5.1344,5.2089,5.2866,5.3619,5.4532,5.5683,5.6494,5.734,5.8389,5.8896,5.9573,6.0655,6.0511,6.0443,6.0757,6.1501,6.1941,6.1941,6.2221,6.2391,6.2391,6.2391,6.2391,6.2391,6.2391,6.2627,6.3057,6.3047,6.326,6.3666,6.3994,6.413,6.413,6.4478,6.4613,6.4613,6.5053,6.5233,6.5266,6.5696,6.5889,6.5889,6.5889,6.5889,6.5787,6.4918,6.4613,6.4613,6.4613,6.4613,6.4681,6.5097,6.5233,6.5334,6.5764,6.5371,6.4671,6.4134,6.3963,6.3488,6.1595,6.2061,6.2553,6.0716,6.0658,6.0991,6.075,6.0685,6.0761,6.106,6.109,6.097,6.0595,6.028,5.9861,5.9189,5.9099,5.9099,5.9099,5.886,5.8697,5.8697,5.8697,5.8786,5.9069,5.8726,5.8517,5.8517,5.8278,5.7919,5.753,5.7992,5.7962,5.7334,5.7932,5.7962,5.7304,5.7021,5.6825,5.6718,5.6137,5.5897,4.4323,4.435,4.4302,4.5425,4.6853,4.8003,4.8003,4.8571,4.9578,5.1167,5.2258,5.3112,5.3687,5.4566,5.5624,5.6909,5.7712,5.8524,5.9496,6.0071,6.0723,6.1501,6.1603,6.1603,6.1603,6.2086,6.2391,6.2391,6.2391,6.2391,6.2391,6.2594,6.2685,6.2685,6.2898,6.326,6.3792,6.3781,6.4062,6.4613,6.4816,6.4884,6.4918,6.5121,6.5222,6.5256,6.5764,6.6011,6.6034,6.6565,6.6802,6.6802,6.6802,6.6802,6.6667,6.5584,6.5222,6.5222,6.5222,6.5222,6.528,6.5831,6.5882,6.5842,6.6402,6.5791,6.4819,6.448,6.4046,6.3426,6.2108,6.2106,6.2249,6.1311,6.109,6.115,6.1329,6.1359,6.1359,6.1359,6.1359,6.1164,6.0475,6.022,5.9951,5.9458,5.9219,5.9099,5.9099,5.8949,5.8816,5.8816,5.8816,5.8906,5.9085,5.8637,5.8397,5.8397,5.8397,5.8158,5.7663,5.859,5.8786,5.8115,5.8335,5.8321,5.8085,5.7654,5.7199,5.6739,5.6561,5.6319,3.962,4.2354,4.5628,4.5696,4.8402,5.1066,5.1066,5.1649,5.2198,5.2266,5.3458,5.4541,5.4575,5.575,5.6968,5.7721,5.849,5.9496,6.1028,6.1264,6.1535,6.2289,6.2357,6.2357,6.2357,6.2391,6.2391,6.2391,6.2391,6.2391,6.2391,6.3091,6.3477,6.3477,6.4164,6.4546,6.458,6.458,6.458,6.4613,6.5334,6.5672,6.5672,6.6406,6.6734,6.6734,6.6768,6.6768,6.6768,6.6802,6.6802,6.6802,6.6802,6.6802,6.6791,6.6768,6.6734,6.6734,6.6734,6.6734,6.6734,6.6768,6.6377,6.5921,6.591,6.5446,6.4632,6.3392,6.3061,6.2734,6.1475,6.116,6.1146,6.1104,6.109,6.1269,6.1942,6.2061,6.2061,6.2061,6.2061,6.1852,6.118,6.0535,6.01,6.007,5.9518,5.9099,5.9099,5.8547,5.8115,5.8115,5.8115,5.8397,5.9026,5.9085,5.9056,5.9056,5.9056,5.9069,5.9039,5.9069,5.8786,5.8115,5.7231,5.7203,5.8085,5.652,5.5785,5.5813,5.5179,5.4387,4.3031,4.5256,4.7515,4.8969,5.0668,5.1919,5.1919,5.2528,5.3247,5.3729,5.3416,5.3551,5.5065,5.5741,5.6452,5.7688,5.937,6.0723,6.1231,6.1704,6.212,6.2357,6.2391,6.2391,6.2391,6.2391,6.2391,6.2391,6.2391,6.2618,6.3115,6.3386,6.3724,6.4197,6.4478,6.4816,6.5334,6.5334,6.5571,6.6058,6.6294,6.644,6.644,6.67,6.6802,6.6802,6.6802,6.6802,6.6836,6.7343,6.7523,6.758,6.8132,6.8335,6.8193,6.7291,6.6943,6.7,6.7379,6.7264,6.6943,6.6943,6.6148,6.5239,6.5239,6.4486,6.3545,6.3118,6.2717,6.2305,6.1889,6.2091,6.2435,6.2435,6.2435,6.2375,6.2151,6.2091,6.1972,6.1509,6.1419,6.1224,6.0535,6.025,5.9951,5.9488,5.9249,5.9099,5.9099,5.8906,5.8756,5.8756,5.8756,5.8846,5.9069,5.8697,5.8457,5.8457,5.8457,5.8248,5.7782,5.862,5.8996,5.8756,5.7394,5.7063,5.7831,5.5808,5.4844,5.4872,5.5011,5.4885,4.5662,4.7556,4.9146,5.1108,5.2156,5.2807,5.3044,5.3518,5.4093,5.4837,5.3788,5.3272,5.4997,5.553,5.6105,5.7306,5.9641,6.1298,6.1298,6.1941,6.2391,6.2391,6.2391,6.2391,6.2391,6.2627,6.2787,6.2787,6.2787,6.3125,6.3859,6.413,6.4512,6.4986,6.5256,6.5628,6.6102,6.6102,6.6339,6.6802,6.6802,6.6802,6.6802,6.7072,6.7174,6.7208,6.7512,6.7614,6.7647,6.8132,6.8335,6.8368,6.891,6.891,6.8542,6.7658,6.7026,6.6671,6.6772,6.6557,6.6255,6.6255,6.5485,6.4588,6.4588,6.387,6.3047,6.3047,6.2749,6.2465,6.2465,6.2764,6.3048,6.2794,6.2734,6.2555,6.1882,6.1732,6.1613,6.118,6.109,6.097,6.0535,6.0446,6.0236,5.9548,5.9458,5.9368,5.9129,5.9099,5.9099,5.9099,5.9099,5.9099,5.9099,5.8697,5.8457,5.8457,5.8457,5.8248,5.7842,5.865,5.9099,5.9099,5.6976,5.6365,5.7355,5.4967,5.383,5.383,5.437,5.4345,4.7203,4.9112,5.0616,5.2063,5.2976,5.3754,5.4473,5.4676,5.4812,5.5403,5.4355,5.3518,5.4135,5.4997,5.5834,5.6562,5.9302,6.1366,6.1366,6.1951,6.2391,6.2391,6.2424,6.2458,6.2458,6.3115,6.3579,6.3612,6.3589,6.3893,6.4613,6.5334,6.5706,6.5774,6.644,6.6802,6.6802,6.6802,6.6802,6.6802,6.6836,6.6869,6.6869,6.7624,6.7963,6.7996,6.8774,6.9113,6.9113,6.9147,6.9147,6.9102,6.9081,6.8553,6.7832,6.7714,6.6901,6.5729,6.4969,6.4746,6.4808,6.484,6.4399,6.3855,6.3886,6.3476,6.3003,6.3078,6.3078,6.3063,6.3108,6.3063,6.2884,6.2241,6.2091,6.1912,6.1239,6.112,6.115,6.112,6.109,6.109,6.109,6.109,6.088,6.025,6.016,5.9891,5.9189,5.9099,5.9099,5.9099,5.9099,5.9099,5.9099,5.9099,5.9099,5.9099,5.9099,5.9058,5.8991,5.8991,5.895,5.8898,5.5877,5.5047,5.6552,5.3961,5.2713,5.2739,5.3286,5.2744,4.9187,5.1048,5.2875,5.3797,5.4169,5.4499,5.5234,5.5437,5.4997,5.3475,5.1995,5.0676,4.9789,5.2055,5.4287,5.504,5.9075,6.212,6.212,6.2289,6.2391,6.2391,6.2888,6.3217,6.3217,6.3893,6.4546,6.5097,6.4647,6.4647,6.5368,6.5605,6.5943,6.6497,6.67,6.6802,6.6802,6.6802,6.6802,6.6802,6.7354,6.7624,6.7658,6.8436,6.8808,6.8808,6.9011,6.9113,6.9147,6.9699,6.9597,6.9059,6.8603,6.796,6.7068,6.5059,6.4102,6.3669,6.2493,6.2725,6.3634,6.4134,6.3181,6.1948,6.2431,6.2148,6.1822,6.2824,6.2734,6.2465,6.2974,6.2734,6.2301,6.2121,6.2091,6.1912,6.1239,6.1493,6.1702,6.121,6.109,6.109,6.109,6.109,6.103,6.0864,6.0864,6.0416,5.9249,5.9099,5.9099,5.9099,5.9099,5.9099,5.9099,5.9099,5.9099,5.9099,5.9099,5.8566,5.737,5.7328,5.6951,5.6209,5.4248,5.3603,5.439,5.2569,5.1681,5.1681,5.2224,5.227,5.1217,5.2536,5.3687,5.4406,5.4609,5.4541,5.4253,5.4219,5.3577,5.1311,4.9424,4.8003,4.7522,5.0465,5.3112,5.3526,5.8533,6.2289,6.1951,6.2188,6.2526,6.2854,6.325,6.3622,6.3961,6.4647,6.5266,6.5672,6.5334,6.5392,6.6136,6.617,6.6373,6.6802,6.6802,6.6802,6.6802,6.7106,6.7275,6.7275,6.8064,6.8436,6.8436,6.9214,6.9586,6.9597,6.9925,7.0049,7.0083,7.05,7.0432,6.9994,6.9355,6.8271,6.6872,6.5044,6.3451,6.2106,6.1659,6.1419,6.1498,6.2463,6.2039,6.118,6.1553,6.1389,6.1299,6.2375,6.2405,6.2241,6.2928,6.2824,6.2465,6.2181,6.2091,6.1912,6.1239,6.1389,6.1642,6.1553,6.1792,6.1972,6.1972,6.1972,6.1882,6.1569,6.1553,6.115,6.0103,5.9983,5.9983,5.9983,5.9983,5.9983,5.9983,5.9983,5.9983,5.9983,5.9983,5.9216,5.7556,5.7485,5.6887,5.5569,5.3963,5.3308,5.3608,5.2279,5.1649,5.1649,5.2184,5.246,5.2976,5.3509,5.3687,5.4532,5.4744,5.4338,5.2807,5.2367,5.1522,4.8808,4.6744,4.5466,4.571,4.9018,5.1826,5.2097,5.7645,6.1839,6.1501,6.2018,6.2661,6.3419,6.3579,6.3927,6.4681,6.5402,6.5842,6.5842,6.5842,6.6136,6.6768,6.6802,6.6802,6.6802,6.6802,6.6869,6.6937,6.758,6.7963,6.8064,6.8876,6.9248,6.9282,6.9992,7.0342,7.0375,7.103,7.1199,7.103,7.103,7.0928,7.0625,6.9625,6.8152,6.6459,6.554,6.338,6.0998,6.1655,6.0784,5.9578,6.0731,6.103,6.1,6.118,6.118,6.1269,6.2032,6.2165,6.2241,6.2928,6.3033,6.2824,6.2255,6.2091,6.1942,6.1359,6.1299,6.1553,6.2121,6.2704,6.3108,6.3108,6.3108,6.2884,6.2301,6.2241,6.2032,6.1419,6.121,6.109,6.109,6.109,6.109,6.109,6.0908,6.0751,6.0751,6.0568,5.9653,5.7931,5.7856,5.7106,5.5519,5.4113,5.3454,5.3517,5.263,5.2226,5.2226,5.2686,5.2895,5.3374,5.3509,5.3814,5.5166,5.5496,5.5133,5.3644,5.2773,5.0803,4.5452,4.4065,4.3085,4.077,4.4918,4.9273,5.11,5.6012,6.0206,6.1951,6.2323,6.2661,6.3419,6.4028,6.4681,6.5436,6.617,6.6599,6.6599,6.6599,6.6667,6.6791,6.6802,6.6802,6.6802,6.6802,6.7106,6.7692,6.7827,6.8233,6.891,6.9654,7.0003,7.0037,7.077,7.1097,7.1131,7.1233,7.0631,6.9573,6.9573,6.8833,6.7532,6.5226,6.406,6.3485,6.1745,6.0752,6.0349,6.1014,6.1029,6.0791,6.103,6.0745,6.0489,6.1583,6.1553,6.1373,6.2584,6.2525,6.2241,6.2928,6.2674,6.2241,6.2121,6.2091,6.2061,6.1942,6.2375,6.2794,6.2884,6.3003,6.3108,6.3108,6.3108,6.3063,6.2944,6.2928,6.2884,6.2764,6.1792,6.109,6.109,6.109,6.109,6.109,5.9782,5.8958,5.8958,5.7648,5.6154,5.4534,5.4456,5.3925,5.2796,5.2513,5.259,5.3012,5.2848,5.2744,5.2744,5.2845,5.2895,5.3509,5.3788,5.4329,5.5437,5.6283,5.5852,5.2021,5.0879,4.8781,4.2415,4.1096,4.0696,3.9248,4.3261,4.7346,4.9206,5.4177,5.8515,6.0385,6.1975,6.325,6.3994,6.4715,6.5469,6.6203,6.6599,6.6802,6.6802,6.6802,6.6802,6.6802,6.6802,6.6971,6.7343,6.7377,6.776,6.8504,6.8921,6.9293,6.9688,7.0432,7.077,7.077,7.1131,7.13,7.1255,7.0528,7.0251,7.0193,6.8736,6.814,6.7895,6.5209,6.369,6.2877,6.1581,6.0667,6.019,6.0864,6.109,6.115,6.1509,6.1164,6.0745,6.1359,6.1373,6.1299,6.2315,6.2345,6.2241,6.2928,6.2854,6.2614,6.2614,6.2614,6.2614,6.2614,6.2854,6.3108,6.3108,6.3108,6.3108,6.3108,6.3108,6.3108,6.3108,6.3108,6.3108,6.3108,6.2555,6.2121,6.2121,6.2121,6.2121,6.2121,6.1374,6.0501,5.9602,5.8793,5.7202,5.465,5.4536,5.39,5.2545,5.2511,5.2636,5.2895,5.2895,5.2895,5.2895,5.3188,5.3314,5.3585,5.4262,5.504,5.5944,5.7171,5.6571,5.0608,4.8977,4.6846,4.0161,3.8774,3.8774,3.8774,4.2151,4.5594,4.7582,5.2224,5.6384,5.8684,6.1322,6.3419,6.4478,6.5266,6.5977,6.6734,6.6802,6.6802,6.6802,6.6937,6.7039,6.7039,6.7039,6.7377,6.8132,6.8166,6.8538,6.9316,6.9902,7.0274,7.0443,7.103,7.13,7.13,7.13,7.1154,7.0791,6.968,6.9502,6.9796,6.7655,6.7208,6.7634,6.5352,6.3802,6.2804,6.2219,6.1372,6.0639,6.1313,6.1523,6.1613,6.2121,6.1852,6.1329,6.1479,6.1523,6.1642,6.2165,6.2301,6.2435,6.2944,6.3108,6.3108,6.3108,6.3108,6.3108,6.3108,6.3108,6.3108,6.3108,6.3108,6.3108,6.3108,6.3108,6.3108,6.3108,6.3108,6.3108,6.3108,6.3108,6.2948,6.2584,6.2875,6.2933,6.257,6.2204,6.1272,5.9521,5.9089,5.7664,5.4966,5.4849,5.4231,5.2929,5.2895,5.2962,5.3063,5.3063,5.3138,5.3264,5.3708,5.3884,5.3932,5.504,5.5944,5.7349,5.8321,5.7331,5.1361,4.8943,4.6094,3.9365,3.8018,3.8018,3.8018,4.0527,4.3775,4.7312,5.0051,5.3433,5.8303,6.0443,6.2279,6.4343,6.5266,6.5977,6.6734,6.6802,6.6802,6.6802,6.7411,6.7793,6.7793,6.7793,6.8166,6.8977,6.8977,6.935,7.0105,7.0172,7.0545,7.1199,7.1267,7.13,7.13,7.13,7.0597,6.9385,6.9265,6.7849,6.5665,6.5396,6.4609,6.3498,6.2696,6.2269,6.2112,6.2072,6.2025,6.2002,6.2674,6.2928,6.2928,6.2988,6.2555,6.2121,6.2734,6.2928,6.2928,6.2988,6.3003,6.3003,6.3063,6.3108,6.3108,6.3108,6.3108,6.3108,6.3108,6.3108,6.3108,6.3108,6.3108,6.3108,6.3108,6.3108,6.3108,6.3108,6.3108,6.3108,6.3108,6.3108,6.2497,6.09,6.2175,6.2468,6.087,5.9349,5.7708,5.5967,5.4433,5.3461,5.3145,5.3127,5.3042,5.2895,5.2895,5.3138,5.3632,5.3632,5.3909,5.4429,5.4496,5.4522,5.4524,5.6122,5.7171,5.7755,5.778,5.6359,5.1259,4.7902,4.4343,3.8993,3.755,3.7353,3.7815,3.9208,4.1373,4.4674,4.7083,4.9729,5.3145,5.6867,5.9911,6.167,6.3734,6.5493,6.67,6.6802,6.6971,6.7421,6.7726,6.8301,6.9225,6.8842,6.8977,6.9733,6.9766,7.0139,7.0861,7.0872,7.0996,7.13,7.13,7.13,7.1267,7.0402,6.9727,6.9121,6.7445,6.6582,6.6278,6.4967,6.4607,6.4765,6.3667,6.3017,6.2668,6.2709,6.2465,6.2181,6.2868,6.3108,6.3108,6.3108,6.2914,6.2734,6.3003,6.3108,6.3108,6.3108,6.3108,6.3108,6.3108,6.3108,6.3108,6.3108,6.3108,6.3108,6.3108,6.3108,6.3108,6.3108,6.3108,6.3108,6.3108,6.3108,6.3108,6.3108,6.3108,6.3108,6.3108,6.3108,6.2423,6.0705,6.111,6.084,5.9148,5.8399,5.7273,5.5518,5.4775,5.3954,5.2947,5.2895,5.3063,5.3381,5.3364,5.3658,5.4228,5.4228,5.4371,5.4622,5.4931,5.5082,5.4211,5.6587,5.8287,5.85,5.7679,5.5683,5.1386,4.7184,4.299,3.8762,3.7319,3.7026,3.7747,3.8497,3.9952,4.2909,4.4959,4.724,5.0353,5.4338,5.762,5.9539,6.1839,6.3927,6.5652,6.6599,6.7444,6.8199,6.847,6.9157,7.0466,7.0026,6.9992,7.05,7.0534,7.077,7.1289,7.13,7.13,7.13,7.13,7.1075,7.0643,7.0066,6.9157,6.7899,6.6359,6.5808,6.5884,6.4541,6.4465,6.5136,6.4309,6.3632,6.3108,6.3108,6.2794,6.2465,6.2944,6.3108,6.3108,6.3108,6.3108,6.3108,6.3108,6.3108,6.3108,6.3108,6.3108,6.3108,6.3108,6.3108,6.3108,6.3108,6.3108,6.3108,6.3108,6.3108,6.3108,6.3108,6.3108,6.3108,6.3108,6.3108,6.3108,6.3108,6.3108,6.3108,6.3108,6.3108,6.2233,6.0009,5.978,5.9073,5.7373,5.7213,5.6499,5.4775,5.4658,5.4191,5.319,5.3138,5.3389,5.3976,5.3976,5.4253,5.4848,5.4848,5.4906,5.5082,5.544,5.5641,5.2697,5.6215,5.9148,5.9902,5.8423,5.5809,5.2046,4.7135,4.2368,3.8661,3.7319,3.7026,3.7747,3.8497,3.9952,4.2909,4.4079,4.6435,5.1647,5.367,5.5716,5.8641,5.9665,6.1028,6.3308,6.617,6.8233,6.9045,6.9766,7.0511,7.1267,7.13,7.13,7.13,7.13,7.1289,7.13,7.13,7.13,7.13,7.13,7.0562,6.9277,7.0631,6.9012,6.5219,6.66,6.5652,6.3181,6.3752,6.3662,6.3182,6.3782,6.3632,6.3108,6.3108,6.3108,6.3108,6.3108,6.3108,6.3108,6.3108,6.3108,6.3108,6.3108,6.3108,6.3108,6.3108,6.3108,6.3108,6.3108,6.3108,6.3108,6.3108,6.3108,6.3108,6.3108,6.3108,6.3108,6.3108,6.3108,6.3108,6.3108,6.3108,6.3108,6.3108,6.3108,6.3108,6.3108,6.3108,6.1792,5.8399,5.8036,5.7309,5.5584,5.5436,5.4708,5.3025,5.2929,5.3155,5.3683,5.3683,5.3976,5.4572,5.4597,5.4856,5.5408,5.5408,5.5666,5.6175,5.6175,5.6175,4.9627,5.2021,5.3602,5.3323,5.1597,4.9398,4.7199,4.3409,3.9783,3.7596,3.6541,3.6225,3.6987,3.7753,3.9371,4.2848,4.4086,4.5887,4.9567,5.3103,5.608,5.8017,6.2033,6.5144,6.6406,6.7354,6.8436,6.9766,7.0071,7.0511,7.1267,7.13,7.13,7.13,7.0356,7.0321,7.1289,7.0333,6.9845,6.9845,6.9845,6.9145,6.7799,6.7311,6.6351,6.5087,6.5042,6.4525,6.3797,6.4904,6.4979,6.45,6.5622,6.5099,6.3767,6.4246,6.3857,6.3108,6.3108,6.3108,6.3108,6.3108,6.3108,6.3108,6.3108,6.3108,6.3108,6.3108,6.3108,6.3108,6.3108,6.3108,6.3108,6.3108,6.3108,6.3108,6.3108,6.3108,6.3108,6.3108,6.3108,6.3108,6.3108,6.3108,6.3108,6.3108,6.3108,6.2657,6.1496,6.1318,6.0009,5.6585,5.6239,5.5545,5.3844,5.3691,5.3631,5.3466,5.3439,5.3708,5.4278,5.4321,5.4579,5.5132,5.5157,5.5408,5.5942,5.5942,5.6043,5.62,5.62,5.62,4.6218,4.9018,5.0668,5.021,4.8214,4.6082,4.4878,4.1487,3.8267,3.706,3.6163,3.5847,3.6648,3.7387,3.8824,4.1691,4.3031,4.5169,4.9247,5.2494,5.5471,5.8398,6.3024,6.6159,6.6609,6.7929,6.9157,7.0139,7.0477,7.0804,7.1267,7.13,7.13,7.13,7.0459,7.0402,7.1289,6.9914,6.9205,6.9205,6.8687,6.7723,6.6404,6.6048,6.5439,6.4701,6.4761,6.4621,0.0,6.5547,6.5757,6.5458,6.6011,6.5458,6.4351,6.4291,6.3767,6.3108,6.3108,6.3108,6.3108,6.3108,6.3108,6.3108,6.3108,6.3108,6.3108,6.3108,6.3108,6.3108,6.3108,6.3108,6.3108,6.3108,6.3108,6.3108,6.3108,6.3108,6.3108,6.3108,6.3108,6.3108,6.3108,6.3108,6.3108,6.3108,6.2541,6.1718,6.0631,6.0132,5.8799,5.6017,5.5914,5.5359,5.3688,5.3314,5.3439,5.3984,5.4052,5.4303,5.4881,5.4906,5.5157,5.5691,5.5691,5.5867,5.62,5.62,5.62,5.62,5.62,5.62,0.0,4.6496,4.9237,4.9169,4.7124,4.4959,4.4195,4.0804,0.0,3.6857,3.6129,3.5881,3.6784,3.7483,3.8458,4.0136,4.1671,4.4661,5.0525,5.2359,5.4972,5.9979,6.3091,6.485,6.4918,6.8109,7.0173,7.0118,7.085,7.1255,7.1176,7.1244,7.1255,7.1143,7.1131,7.1131,7.1131,6.9751,6.8991,6.8882,6.7635,6.6325,6.5019,6.6357,6.5909,6.4094,6.549,6.5688,6.5114,6.5787,6.6026,6.5936,6.5368,6.5054,6.4785,6.3722,6.3227,6.3108,6.3168,6.3138,6.3108,6.3108,6.3108,6.3108,6.3108,6.3108,6.3108,6.3108,6.3108,6.3108,6.3108,6.3108,6.3108,6.3108,6.3108,6.3108,6.3108,6.3108,6.3108,6.3108,6.3108,6.3108,6.3108,6.3108,6.3108,6.3168,6.1673,6.0536,6.0458,5.9422,5.8031,5.6362,5.6616,5.6297,5.4789,5.4127,5.4027,5.4622,5.4672,5.4898,5.5433,5.5458,5.5691,5.6175,5.62,5.62,5.62,5.62,5.62,5.62,5.62,5.62,3.6344,0.0,4.0629,4.0066,3.9823,3.9546,0.0,3.7805,3.6846,3.605,3.574,3.618,3.8131,3.8159,3.9134,4.2943,4.4763,4.7436,5.2291,5.7534,6.1965,6.4874,6.6328,6.7354,6.7996,6.936,6.9985,6.9464,7.061,7.0825,6.9739,7.0722,7.0802,6.9727,6.9692,6.9692,6.9692,6.8355,6.7125,6.6061,6.5728,6.4882,6.3608,6.4388,6.4478,6.4096,6.5424,6.5921,6.5817,6.649,6.646,6.6026,6.64,6.5592,6.4336,6.5054,6.438,6.3168,6.3632,6.3482,6.3108,6.3108,6.3108,6.3108,6.3108,6.3108,6.3108,6.3108,6.3108,6.3108,6.3108,6.3108,6.3108,6.3108,6.3108,6.3108,6.3108,6.3108,6.3108,6.3108,6.3108,6.3108,6.3108,6.3108,6.3243,6.3722,6.2258,6.082,6.0058,5.8515,5.6867,5.517,5.5105,5.5191,5.5218,5.4705,5.4604,5.5182,5.5207,5.544,5.5993,5.6018,5.6068,5.62,5.62,5.62,5.62,5.62,5.62,5.62,5.62,5.62,3.2887,3.5628,3.8301,3.79,3.8362,3.8728,3.7968,3.7297,3.6581,3.578,3.5881,3.6535,3.7765,3.9884,4.1914,4.3315,4.7376,5.1834,5.5953,6.0326,6.4049,6.6502,6.7229,6.807,6.9475,6.9704,6.9863,7.0148,7.0275,7.0286,7.0181,7.0275,6.9984,6.9229,6.8601,6.8293,6.8293,6.6919,6.5848,6.5083,6.4485,6.3803,6.3123,6.3707,6.4186,6.453,6.5547,6.6176,6.649,6.6849,6.6789,6.643,6.6191,6.5398,6.4485,6.4605,6.3991,6.3168,6.3482,6.3363,6.3108,6.3108,6.3108,6.3108,6.3108,6.3108,6.3108,6.3108,6.3108,6.3108,6.3108,6.3108,6.3108,6.3108,6.3108,6.3108,6.3108,6.3108,6.3108,6.3108,6.3333,6.3512,6.3512,6.3767,6.4096,6.4411,6.2261,6.0409,5.9859,5.7756,5.596,5.5063,5.5182,5.5458,5.5742,5.5491,5.5458,5.5742,5.5767,5.5892,5.6194,5.62,5.62,5.62,5.62,5.62,5.62,5.62,5.62,5.62,5.62,5.62,3.1737,3.5628,3.9316,3.8504,3.9134,3.9737,3.9005,3.7867,3.6778,3.6079,3.6502,3.7291,3.8313,4.2158,4.4925,4.4154,5.0101,5.6172,6.0052,6.2095,6.4144,6.6665,6.7335,6.8176,6.9727,6.9656,6.9855,7.0631,6.9961,6.9867,7.0608,6.9727,6.8991,6.8601,6.747,6.6764,6.6587,6.5598,6.5005,6.4772,6.3649,6.3168,6.3243,6.3857,6.453,6.5174,6.5847,6.649,6.7014,6.7014,6.7014,6.6894,6.5757,6.5174,6.4874,6.3887,6.3333,6.3108,6.3108,6.3108,6.3108,6.3108,6.3108,6.3108,6.3108,6.3108,6.3108,6.3108,6.3108,6.3108,6.3108,6.3108,6.3108,6.3108,6.3108,6.3108,6.3108,6.3168,6.3257,6.3257,6.3722,6.4156,6.4156,6.462,6.4935,6.4784,6.1991,5.9851,5.9671,5.7225,5.5516,5.5516,5.5942,5.62,5.62,5.62,5.62,5.62,5.62,5.62,5.62,5.62,5.62,5.62,5.62,5.62,5.62,5.62,5.62,5.62,5.62,5.62,3.4258,3.8294,4.0737,3.6304,3.7184,3.8971,3.8255,3.7883,3.7713,3.7578,3.7646,3.9472,4.5148,4.435,4.4797,5.0803,5.4016,5.7473,6.23,6.4425,6.6056,6.7553,6.8903,6.9379,6.8506,6.9956,7.0111,6.7994,6.9784,7.0064,6.7944,6.8699,6.8124,6.5795,6.5544,6.4882,6.3748,6.4651,6.4526,6.3408,6.3209,6.3363,6.3887,6.456,6.5218,6.5877,6.655,6.6894,6.7014,6.7014,6.7014,6.6984,6.6759,6.5996,6.5054,6.5398,6.4515,6.3108,6.3108,6.3108,6.3108,6.3108,6.3108,6.3108,6.3108,6.3108,6.3108,6.3108,6.3108,6.3108,6.3108,6.3108,6.3108,6.3108,6.3108,6.3108,6.3108,6.3512,6.3857,6.3857,6.4381,6.4859,6.4859,6.4934,6.4679,6.3708,6.18,6.0123,5.9167,5.7312,5.6093,5.6093,5.615,5.62,5.62,5.62,5.62,5.62,5.62,5.62,5.62,5.62,5.62,5.62,5.62,5.62,5.62,5.62,5.62,5.62,5.62,5.62,3.2843,3.6197,3.922,3.8814,4.2503,4.6157,4.5771,4.535,4.4647,4.3031,4.3024,4.4234,4.7338,4.8808,5.1987,5.9462,5.9674,6.0222,6.4137,6.4769,6.5581,6.7654,6.7988,6.8212,6.8645,6.8923,6.8866,6.833,6.8793,6.8854,6.8318,6.8194,6.7534,6.6286,6.5504,6.4799,6.4195,6.4069,6.372,6.3108,6.3422,6.3722,6.4036,6.5069,6.5697,6.6026,6.67,6.7014,6.7014,6.7014,6.7014,6.6954,6.661,6.5847,6.4964,6.4575,6.4081,6.3542,6.3213,6.3108,6.3108,6.3108,6.3108,6.3108,6.3108,6.3333,6.3512,6.3183,6.3333,6.3602,6.3602,6.3602,6.3692,6.4036,6.3857,6.3692,6.4066,6.4351,6.453,6.453,6.5069,6.5232,6.4245,6.4384,6.4114,6.2603,6.083,5.9504,5.8982,5.7338,5.62,5.62,5.62,5.62,5.62,5.62,5.62,5.62,5.62,5.62,5.62,5.62,5.62,5.62,5.62,5.62,5.62,5.62,5.62,5.62,5.62,5.62,3.2582,3.5261,3.8679,4.2225,4.6455,5.0286,5.2164,5.1344,4.9822,4.862,4.8808,4.9375,4.9882,5.3839,5.8727,6.3941,6.3026,6.2532,6.5142,6.4983,6.5348,6.7443,6.7212,6.7255,6.8154,6.7887,6.7949,6.8675,6.8049,6.7962,6.8699,6.7445,6.6543,6.6246,6.5179,6.4637,6.4637,6.3757,6.3303,6.3303,6.3782,6.4156,6.4515,6.5533,6.6101,6.6251,6.6759,6.7014,6.7014,6.7014,6.7014,6.6954,6.643,6.5817,6.5099,6.3782,6.3602,6.3917,6.3303,6.3108,6.3108,6.3108,6.3108,6.3138,6.3273,6.3632,6.3947,6.3632,6.3977,6.4395,6.4066,6.4126,6.4351,6.4874,6.462,6.4381,6.4874,6.5114,6.5233,6.5233,6.541,6.5167,6.378,6.3612,6.3051,6.1242,5.9782,5.8754,5.8313,5.705,5.62,5.62,5.62,5.62,5.62,5.62,5.62,5.62,5.62,5.62,5.62,5.62,5.62,5.62,5.62,5.62,5.62,5.62,5.62,5.62,5.62,5.62,3.6665,3.91,4.1603,4.4681,4.37,4.4005,5.1657,5.0135,4.8248,5.2198,5.3069,5.3712,5.5775,5.8761,6.0443,5.9038,6.0959,6.3133,6.475,6.6047,6.6915,6.7058,6.8214,6.8054,6.562,6.761,6.8589,6.7419,6.8417,6.8565,6.7394,6.6021,6.4662,6.3437,6.3293,6.3236,6.3236,6.3706,6.3947,6.3947,6.3977,6.4665,6.5847,6.5951,6.634,6.6924,6.6984,6.7014,6.7014,6.7014,6.7014,6.7014,6.6954,6.652,6.5772,6.4425,6.3947,6.3917,6.3303,6.3108,6.3108,6.3108,6.3108,6.3183,6.3782,6.3977,6.4126,6.471,6.5338,6.5562,6.4306,6.447,6.4934,6.4994,6.4964,6.4934,6.4994,6.5488,6.5936,6.5936,6.5095,6.4368,6.4256,6.2875,6.1174,5.9375,5.8973,5.8277,5.6605,5.6267,5.62,5.62,5.62,5.62,5.62,5.62,5.62,5.62,5.62,5.62,5.62,5.62,5.62,5.62,5.62,5.62,5.62,5.62,5.62,5.62,5.62,5.62,3.4805,3.8424,4.2252,4.3869,4.5493,4.8511,5.5369,5.6697,5.6706,5.7442,5.8008,5.8186,5.7577,6.0419,6.2559,6.1638,6.2289,6.3796,6.6411,6.6243,6.633,6.7527,6.708,6.6259,6.5192,6.6048,6.6425,6.5928,6.6346,6.6412,6.5915,6.6233,6.5768,6.4387,6.5179,6.5437,6.4974,6.4306,6.4425,6.5248,6.5248,6.5503,6.5996,6.643,6.6759,6.7014,6.7014,6.7014,6.7014,6.7014,6.7014,6.6954,6.655,6.6221,6.5832,6.4485,6.4006,6.3917,6.3303,6.3108,6.3168,6.3542,6.3662,6.3767,6.4411,6.4919,6.5218,6.5054,6.5787,6.64,6.5458,6.5428,6.5727,6.6146,6.5936,6.5727,6.6161,6.5559,6.4944,6.4944,6.369,6.2247,6.114,6.0384,5.9322,5.7492,5.7231,5.696,5.6285,5.62,5.62,5.62,5.62,5.62,5.62,5.62,5.62,5.62,5.62,5.62,5.62,5.62,5.62,5.62,5.62,5.62,5.62,5.62,5.62,5.62,5.62,5.62,3.6197,3.9377,4.3159,4.5317,4.7827,5.142,5.7872,6.0013,6.0926,6.2009,6.1907,6.1163,5.9616,6.1171,6.2757,6.2894,6.3297,6.4491,6.6967,6.6373,6.6149,6.7325,6.6052,6.4937,6.4512,6.4854,6.5083,6.5083,6.5083,6.5083,6.5083,6.5625,6.5557,6.4791,6.5693,6.6045,6.5761,6.4999,6.5084,6.5996,6.6221,6.6311,6.634,6.6789,6.7014,6.7014,6.7014,6.7014,6.7014,6.7014,6.7014,6.6954,6.649,6.6191,6.5847,6.471,6.4186,6.3947,6.3542,6.3393,6.3482,6.4126,6.4336,6.4441,6.5114,6.5637,6.5936,6.5697,6.6281,6.6879,6.643,6.6311,6.643,6.6894,6.664,6.6278,6.6157,6.5168,6.4136,6.3558,6.1981,6.0367,5.9113,5.8419,5.7635,5.6394,5.62,5.62,5.62,5.62,5.62,5.62,5.62,5.62,5.62,5.62,5.62,5.62,5.62,5.62,5.62,5.62,5.62,5.62,5.62,5.62,5.62,5.62,5.62,5.62,5.62,5.62,4.2232,4.2828,4.4701,4.9848,5.0119,5.1082,5.8423,5.8423,5.8752,6.5415,6.4444,6.2391,6.2381,6.1317,6.0668,6.1445,6.3441,6.5154,6.589,6.6568,6.6751,6.6164,6.548,6.4568,6.3222,6.432,6.507,6.507,6.507,6.507,6.507,6.3831,6.3407,6.3977,6.4021,6.435,6.4994,6.5667,6.5996,6.6011,6.667,6.7014,6.7014,6.7014,6.7014,6.7014,6.7014,6.7014,6.7014,6.7014,6.7014,6.7014,6.7014,6.658,6.5906,6.5233,6.459,6.4006,6.4006,6.4006,6.4126,6.48,6.5024,6.5144,6.5817,6.5996,6.6161,6.6819,6.7014,6.7014,6.7014,6.6999,6.6983,6.7014,6.6999,6.6477,6.4694,6.4265,6.3704,6.1914,6.0109,5.8868,5.8868,5.7385,5.62,5.62,5.62,5.62,5.62,5.62,5.62,5.62,5.62,5.62,5.62,5.62,5.62,5.62,5.62,5.62,5.62,5.62,5.62,5.62,5.62,5.62,5.62,5.62,5.62,5.62,5.62,5.62,3.7747,4.2753,4.8003,4.7455,5.3298,5.9496,6.0689,6.0825,6.1748,6.529,6.4082,6.211,6.117,6.1251,6.1179,6.034,6.1763,6.3534,6.5154,6.5147,6.5077,6.5352,6.439,6.3535,6.3151,6.3449,6.3706,6.3706,6.3706,6.3706,6.3706,6.4666,6.4846,6.405,6.5414,6.602,6.5712,6.5906,6.6251,6.6715,6.6894,6.7014,6.7014,6.7014,6.7014,6.7014,6.7014,6.7014,6.7014,6.7014,6.7014,6.7014,6.7014,6.658,6.5966,6.5787,6.5278,6.471,6.471,6.471,6.48,6.5488,6.5697,6.5817,6.649,6.67,6.6729,6.6939,6.7014,6.7014,6.7014,6.6059,6.5405,6.6708,6.6028,6.4933,6.441,6.2297,6.035,5.9799,5.8224,5.6996,5.6996,5.6576,5.62,5.62,5.62,5.62,5.62,5.62,5.62,5.62,5.62,5.62,5.62,5.62,5.62,5.62,5.62,5.62,5.62,5.62,5.62,5.62,5.62,5.62,5.62,5.62,5.62,5.62,5.62,5.62,4.4005,4.8537,5.2604,5.378,5.7767,6.1447,6.1546,6.2902,6.4288,6.4851,6.4283,6.3156,6.1339,6.149,6.1685,6.1051,6.207,6.3438,6.4908,6.4982,6.4932,6.5058,6.3916,6.3108,6.3108,6.3108,6.3108,6.3108,6.3108,6.3183,6.3452,6.4618,6.5131,6.4814,6.6013,6.6589,6.6416,6.64,6.661,6.7014,6.7014,6.7014,6.7014,6.7014,6.7014,6.7014,6.7014,6.7014,6.7014,6.7014,6.7014,6.7014,6.7014,6.658,6.5996,6.5996,6.5577,6.5024,6.5293,6.5398,6.5518,6.6191,6.64,6.646,6.6894,6.7014,6.7014,6.7014,6.7014,6.6831,6.6106,6.5121,6.4583,6.567,6.4551,6.3035,6.2297,6.0453,5.8701,5.7966,5.6968,5.62,5.62,5.62,5.62,5.62,5.62,5.62,5.62,5.62,5.62,5.62,5.62,5.62,5.62,5.62,5.62,5.62,5.62,5.62,5.62,5.62,5.62,5.62,5.62,5.62,5.62,5.62,5.62,5.62,5.62,5.62,5.5044,5.6709,5.7599,6.4336,6.237,5.9377,6.1588,6.4451,6.6087,6.4189,6.4731,6.4785,6.2436,6.1894,6.2045,6.2803,6.3554,6.4225,6.491,6.5606,6.5747,6.4994,6.3845,6.3108,6.3108,6.3108,6.3108,6.3108,6.3108,6.3363,6.3977,6.4066,6.4695,6.5966,6.6056,6.637,6.6999,6.7014,6.7014,6.7014,6.7014,6.7014,6.7014,6.7014,6.7014,6.7014,6.7014,6.7014,6.7014,6.7014,6.7014,6.7014,6.7074,6.67,6.6191,6.6236,6.5847,6.5353,6.5966,6.6131,6.6191,6.6789,6.7014,6.7014,6.7014,6.7014,6.7014,6.7014,6.7014,6.657,6.4774,6.4169,6.4007,6.3862,6.2545,6.0886,5.927,5.8789,5.8179,5.6522,5.62,5.62,5.62,5.62,5.62,5.62,5.62,5.62,5.62,5.62,5.62,5.62,5.62,5.62,5.62,5.62,5.62,5.62,5.62,5.62,5.62,5.62,5.62,5.62,5.62,5.62,5.62,5.62,5.62,5.62,5.62,5.62,4.4799,5.1645,5.8562,5.975,6.178,6.3348,6.2886,6.4076,6.5039,6.409,6.4035,6.3901,6.2938,6.191,6.1433,6.2246,6.2902,6.3532,6.4224,6.4884,6.486,6.3676,6.3265,6.3108,6.3108,6.3108,6.3108,6.3108,6.3108,6.3363,6.3977,6.45,6.5159,6.5966,6.652,6.6849,6.7014,6.7014,6.7014,6.7014,6.7014,6.7014,6.7014,6.7014,6.7014,6.7014,6.7014,6.7014,6.7014,6.7014,6.7014,6.7044,6.7583,6.7703,6.7613,6.8166,6.7926,6.7373,6.7523,6.7224,6.6819,6.6954,6.7014,6.7014,6.7014,6.7014,6.7014,6.7014,6.7014,6.657,6.4774,6.3248,6.1813,6.0418,5.9764,5.9375,5.8973,5.777,5.666,5.6267,5.62,5.62,5.62,5.62,5.62,5.62,5.62,5.62,5.62,5.62,5.62,5.62,5.62,5.62,5.62,5.62,5.62,5.62,5.62,5.62,5.62,5.62,5.62,5.62,5.62,5.62,5.62,5.62,5.62,5.62,5.62,5.62,4.8018,5.3837,5.835,6.0076,6.2272,6.3388,6.1171,6.2399,6.362,6.2348,6.3277,6.367,6.1527,6.1324,6.142,6.1233,6.2527,6.3485,6.3165,6.4258,6.4609,6.325,6.3108,6.3108,6.3108,6.3108,6.3108,6.3108,6.3363,6.3797,6.4441,6.5099,6.5787,6.646,6.6835,6.7014,6.7014,6.7014,6.7014,6.7014,6.7014,6.7014,6.7014,6.7014,6.7014,6.7014,6.7014,6.7014,6.7014,6.7014,6.7194,6.7493,6.7868,6.8181,6.8511,6.8854,6.8764,6.8481,6.8481,6.8032,6.7463,6.7463,6.7254,6.7014,6.7014,6.7014,6.6815,6.5966,6.5702,6.5105,6.2396,6.1005,5.9851,5.8037,5.7618,5.7618,5.7618,5.6877,5.62,5.62,5.62,5.62,5.62,5.62,5.62,5.62,5.62,5.62,5.62,5.62,5.62,5.62,5.62,5.62,5.62,5.62,5.62,5.62,5.62,5.62,5.62,5.62,5.62,5.62,5.62,5.62,5.62,5.62,5.62,5.62,5.62,5.62,5.1883,5.5642,5.7233,6.1847,6.2899,6.2071,5.9116,6.0719,6.2299,6.0486,6.2484,6.352,6.0075,6.0663,6.144,6.0723,6.2374,6.3503,6.2718,6.3842,6.4332,6.3222,6.3108,6.3108,6.3108,6.3108,6.3123,6.3243,6.3722,6.4336,6.5114,6.5697,6.6311,6.6984,6.7014,6.7014,6.7014,6.7014,6.7014,6.7014,6.7014,6.7014,6.7014,6.7014,6.7014,6.7014,6.7014,6.7014,6.7014,6.7134,6.7493,6.8017,6.8257,6.869,6.9183,6.9303,6.9273,6.9183,6.9183,6.866,6.8017,6.8137,6.7643,6.7014,6.7134,6.7104,6.6631,6.4806,6.4297,6.346,5.9834,5.8885,5.8437,5.6624,5.62,5.62,5.62,5.62,5.62,5.62,5.62,5.62,5.62,5.62,5.62,5.62,5.62,5.62,5.62,5.62,5.62,5.62,5.62,5.62,5.62,5.62,5.62,5.62,5.62,5.62,5.62,5.62,5.62,5.62,5.62,5.62,5.62,5.62,5.62,5.62,5.62,5.62,3.9624,4.657,5.4974,6.1393,6.2568,6.1737,6.0199,6.1027,6.1763,6.0385,6.1788,6.2743,6.1071,6.0514,6.0862,6.2452,6.2522,6.2903,6.4474,6.394,6.3293,6.3122,6.3108,6.3108,6.3108,6.3108,6.3303,6.3827,6.3947,6.4545,6.5787,6.5936,6.6311,6.6984,6.7014,6.7014,6.7014,6.7014,6.7014,6.7014,6.7014,6.7014,6.7014,6.7014,6.7014,6.7014,6.7014,6.7014,6.7044,6.7628,6.7928,6.8107,6.9289,6.9798,6.9917,7.044,7.032,6.9858,6.9858,6.9065,6.8107,6.869,6.8016,6.7104,6.7688,6.7463,6.6631,6.4806,6.4297,6.346,5.9834,5.8885,5.8437,5.6624,5.62,5.62,5.62,5.62,5.62,5.62,5.62,5.62,5.62,5.62,5.62,5.62,5.62,5.62,5.62,5.62,5.62,5.62,5.62,5.62,5.62,5.62,5.62,5.62,5.62,5.62,5.62,5.62,5.62,5.62,5.62,5.62,5.62,5.62,5.62,5.62,5.62,5.62,4.2415,4.9698,5.6506,6.1702,6.2493,6.1656,6.0385,6.1368,6.2078,6.0448,6.1348,6.2026,6.0756,6.0584,6.1087,6.2323,6.2604,6.2963,6.3841,6.3464,6.3108,6.3108,6.3108,6.3108,6.3108,6.3393,6.3707,6.3977,6.4695,6.5383,6.5981,6.637,6.67,6.6984,6.7014,6.7014,6.7014,6.7014,6.7014,6.7014,6.7014,6.7014,6.7014,6.7014,6.7014,6.7014,6.7014,6.7224,6.7583,6.7868,6.8437,6.9185,6.9768,7.0217,7.053,7.0799,7.0739,7.05,7.05,6.9887,6.9169,6.9468,6.866,6.7673,6.8361,6.7822,6.6504,6.4034,6.3075,6.1947,5.833,5.7385,5.7195,5.6394,5.62,5.62,5.62,5.62,5.62,5.62,5.62,5.62,5.62,5.62,5.62,5.62,5.62,5.62,5.62,5.62,5.62,5.62,5.62,5.62,5.62,5.62,5.62,5.62,5.62,5.62,5.62,5.62,5.62,5.62,5.62,5.62,5.62,5.62,5.62,5.62,5.62,5.62,4.3999,4.959,5.3396,5.9261,6.0508,6.0298,6.0333,6.1601,6.2323,6.071,6.0961,6.1271,6.0502,6.0761,6.1329,6.2002,6.2674,6.3108,6.3108,6.3108,6.3108,6.3108,6.3108,6.3108,6.3108,6.3662,6.4066,6.4231,6.5353,6.6056,6.6251,6.6729,6.7014,6.7014,6.7014,6.7014,6.7014,6.7014,6.7014,6.7014,6.7014,6.7014,6.7014,6.7014,6.7014,6.7014,6.7194,6.7523,6.8017,6.8377,6.9095,7.0007,7.0157,7.05,7.0889,7.0889,7.0889,7.0889,7.0889,7.05,7.0037,7.0187,6.9319,6.8391,6.9034,6.8003,6.6023,6.3331,6.1777,6.0195,5.7014,5.62,5.62,5.62,5.62,5.62,5.62,5.62,5.62,5.62,5.62,5.62,5.62,5.62,5.62,5.62,5.62,5.62,5.62,5.62,5.62,5.62,5.62,5.62,5.62,5.62,5.62,5.62,5.62,5.62,5.62,5.62,5.62,5.62,5.62,5.62,5.62,5.62,5.62,5.62,5.62,5.62,3.7323,3.8865,4.0685,5.1807,5.5064,5.6526,6.0206,6.1639,6.1937,6.1194,6.0605,6.0362,6.0924,6.109,6.1329,6.2002,6.2674,6.3108,6.3108,6.3108,6.3108,6.3108,6.3108,6.3108,6.3108,6.3662,6.4261,6.4904,6.5607,6.6281,6.6909,6.6984,6.7014,6.7014,6.7014,6.7014,6.7014,6.7014,6.7014,6.7014,6.7014,6.7014,6.7014,6.7014,6.7014,6.7044,6.7673,6.7958,6.8107,6.9379,6.9947,7.0067,7.062,7.0889,7.0889,7.0889,7.0889,7.0889,7.0889,7.05,7.0097,7.0679,6.9991,6.9064,6.9738,6.7816,6.4995,6.3135,6.0869,5.8613,5.6678,5.62,5.62,5.62,5.62,5.62,5.62,5.62,5.62,5.62,5.62,5.62,5.62,5.62,5.62,5.62,5.62,5.62,5.62,5.62,5.62,5.62,5.62,5.62,5.62,5.62,5.62,5.62,5.62,5.62,5.62,5.62,5.62,5.62,5.62,5.62,5.62,5.62,5.62,5.62,5.62,5.62,3.5882,3.8063,4.0322,4.7685,5.2061,5.5029,5.6885,6.013,6.2555,6.1882,6.1553,6.1463,6.1702,6.1389,6.1449,6.2555,6.2944,6.3108,6.3108,6.3108,6.3108,6.3108,6.3108,6.3243,6.3632,6.4261,6.4919,6.5577,6.6251,6.6759,6.6984,6.7014,6.7014,6.7014,6.7014,6.7014,6.7014,6.7014,6.7014,6.7014,6.7014,6.7014,6.7014,6.7014,6.7224,6.7673,6.8361,6.8645,6.8704,6.9618,7.0217,7.059,7.0829,7.0889,7.0889,7.0889,7.0889,7.0889,7.0889,7.0769,7.062,7.0829,7.032,6.9514,6.8954,6.7372,6.5265,6.2694,6.1024,5.9562,5.7749,5.7004,5.6627,5.6276,5.62,5.62,5.62,5.62,5.62,5.62,5.62,5.62,5.62,5.62,5.62,5.62,5.62,5.62,5.62,5.62,5.62,5.62,5.62,5.62,5.62,5.62,5.62,5.62,5.62,5.62,5.62,5.62,5.62,5.62,5.62,5.62,5.62,5.62,5.62,5.62,5.62,5.62,3.2728,3.4854,3.7371,4.3243,4.7128,5.0621,5.487,5.8394,6.1028,6.1926,6.2285,6.2435,6.2435,6.2061,6.2061,6.2958,6.3108,6.3108,6.3108,6.3108,6.3108,6.3108,6.3108,6.3333,6.3947,6.462,6.5278,6.5936,6.661,6.7014,6.7014,6.7014,6.7014,6.7014,6.7014,6.7014,6.7014,6.7014,6.7014,6.7014,6.7014,6.7014,6.7014,6.7224,6.7583,6.8047,6.896,6.9333,6.9393,7.0021,7.053,7.0889,7.0889,7.0889,7.0889,7.0889,7.0889,7.0889,7.0889,7.0889,7.0889,7.0889,7.02,6.9201,6.8369,6.6441,6.4124,6.2129,6.0671,5.9393,5.8037,5.7204,5.6652,5.6276,5.62,5.62,5.62,5.62,5.62,5.62,5.62,5.62,5.62,5.62,5.62,5.62,5.62,5.62,5.62,5.62,5.62,5.62,5.62,5.62,5.62,5.62,5.62,5.62,5.62,5.62,5.62,5.62,5.62,5.62,5.62,5.62,5.62,5.62,5.62,5.62,5.62,5.62,0.0,0.0,0.0,3.808,3.9999,4.3022,5.4088,5.6269,5.709,6.1118,6.2465,6.2988,6.3108,6.3123,6.3168,6.3168,6.3123,6.3108,6.3108,6.3108,6.3108,6.3108,6.3108,6.3333,6.3977,6.462,6.5308,6.5966,6.664,6.7014,6.7014,6.7014,6.7014,6.7014,6.7014,6.7014,6.7014,6.7014,6.7014,6.7014,6.7014,6.7014,6.7044,6.7703,6.8017,6.8137,6.9439,7.0007,7.0067,7.0649,7.0889,7.0889,7.0889,7.0889,7.0889,7.0889,7.0889,7.0889,7.0889,7.0889,7.0873,7.0824,6.9569,6.8095,6.7964,6.4951,6.1516,6.1461,5.9746,5.7851,5.7449,5.6821,5.6276,5.62,5.62,5.62,5.62,5.62,5.62,5.62,5.62,5.62,5.62,5.62,5.62,5.62,5.62,5.62,5.62,5.62,5.62,5.62,5.62,5.62,5.62,5.62,5.62,5.62,5.62,5.62,5.62,5.62,5.62,5.62,5.62,5.62,5.62,5.62,5.62,5.62,5.62,5.62,2.6802,0.0,0.0,0.0,0.0,0.0,4.3968,4.7859,5.1869,5.6821,5.871,6.0356,6.3228,6.4156,6.447,6.447,6.3707,6.3108,6.3108,6.3108,6.3108,6.3108,6.3108,6.3542,6.462,6.4874,6.5488,6.664,6.6894,6.7014,6.7014,6.7014,6.7014,6.7014,6.7014,6.7014,6.7014,6.7014,6.7014,6.7014,6.7014,6.7254,6.7748,6.7928,6.8526,6.9468,6.9828,7.0247,7.0649,7.0829,7.0889,7.0889,7.0889,7.0889,7.0889,7.0889,7.0889,7.0889,7.0889,7.0889,7.0678,6.932,6.8519,6.7587,6.4813,6.312,6.1852,6.0441,5.9572,5.8905,5.8252,5.8353,5.8177,5.6577,5.62,5.62,5.62,5.62,5.62,5.62,5.62,5.62,5.62,5.62,5.62,5.62,5.62,5.62,5.62,5.62,5.62,5.62,5.62,5.62,5.62,5.62,5.62,5.62,5.62,5.62,5.62,5.62,5.62,5.62,5.62,5.62,5.62,5.62,5.62,5.62,5.62,5.62,0.0,0.0,0.0,0.0,0.0,0.0,4.2619,4.6063,5.0014,5.7539,6.0086,6.1674,6.3992,6.4979,6.5428,6.5428,6.456,6.3887,6.3887,6.3887,6.3887,6.3887,6.3887,6.4395,6.5697,6.5817,6.6281,6.7343,6.7403,6.7313,6.7014,6.7014,6.7014,6.7014,6.7014,6.7014,6.7014,6.7014,6.7014,6.7014,6.7284,6.7613,6.8017,6.8586,6.9259,6.9961,7.026,7.056,7.0889,7.0889,7.0889,7.0889,7.0889,7.0889,7.0889,7.0889,7.0889,7.0889,7.0889,7.0889,7.0596,6.8704,6.7542,6.6335,6.33,6.1835,6.0938,5.983,5.9483,5.9382,5.8956,5.9182,5.9182,5.7876,5.7575,5.7575,5.7575,5.7575,5.7298,5.6376,5.62,5.62,5.62,5.62,5.62,5.62,5.62,5.62,5.62,5.62,5.62,5.62,5.62,5.62,5.62,5.62,5.62,5.62,5.62,5.62,5.62,5.62,5.62,5.62,5.62,5.62,5.62,5.62,5.62,5.62,5.62,5.62,0.0,0.0,0.0,0.0,0.0,0.0,4.4669,4.6512,4.8656,5.8454,6.1613,6.2721,6.317,6.3932,6.4441,6.4351,6.4411,6.4575,6.4964,6.4994,6.4994,6.4994,6.4994,6.5518,6.6775,6.6954,6.7284,6.7958,6.7987,6.7748,6.7134,6.7044,6.7014,6.7014,6.7014,6.7014,6.7014,6.7074,6.7104,6.7134,6.7792,6.8167,6.8257,6.9468,6.9991,7.0019,7.0649,7.0889,7.0889,7.0889,7.0889,7.0889,7.0889,7.0889,7.0889,7.0889,7.0889,7.0889,7.0889,7.0759,7.0288,6.84,6.6475,6.4535,6.2664,6.0888,5.9483,5.9483,5.9483,5.9483,5.9483,5.9483,5.9483,5.9483,5.9483,5.9483,5.9483,5.9483,5.8855,5.6627,5.642,5.6495,5.6226,5.62,5.62,5.62,5.62,5.62,5.62,5.62,5.62,5.62,5.62,5.62,5.62,5.62,5.62,5.62,5.62,5.62,5.62,5.62,5.62,5.62,5.62,5.62,5.62,5.62,5.62,5.62,5.62,5.62,0.0,0.0,0.0,0.0,0.0,0.0,3.3837,3.5655,3.8341,4.305,4.5912,4.8514,5.178,5.3755,5.473,5.4179,5.8022,6.1972,6.4635,6.4994,6.4994,6.4994,6.4994,6.5293,6.6131,6.667,6.7284,6.7958,6.7987,6.7928,6.7808,6.7284,6.7014,6.7014,6.7014,6.7014,6.7014,6.7523,6.7808,6.7808,6.8481,6.9079,6.9618,6.9887,7.026,7.0693,7.0829,7.0889,7.0889,7.0889,7.0889,7.0889,7.0889,7.0889,7.0889,7.0889,7.0889,7.0889,7.0889,6.9913,6.8349,6.6377,6.4508,6.259,6.066,5.9811,5.9483,5.9483,5.9483,5.9483,5.9483,5.9483,5.9483,5.9483,5.9483,5.9483,5.9483,5.9483,5.8855,5.6627,5.765,5.8303,5.652,5.62,5.62,5.62,5.62,5.62,5.62,5.62,5.62,5.62,5.62,5.62,5.62,5.62,5.62,5.62,5.62,5.62,5.62,5.62,5.62,5.62,5.62,5.62,5.62,5.62,5.62,5.62,5.62,5.62,0.0,0.0,0.0,3.2564,0.0,0.0,0.0,3.5699,3.7443,4.2761,4.4356,4.5702,4.8738,5.0085,5.0852,5.1158,5.5927,5.9368,5.8697,6.2885,6.5996,6.5996,6.5996,6.6251,6.6939,6.7597,6.8271,6.893,6.869,6.8361,6.8017,6.7673,6.7343,6.7014,6.7014,6.7014,6.7014,6.7643,6.7987,6.8017,6.9019,6.9678,7.0007,7.0306,7.062,7.0889,7.0889,7.0889,7.0889,7.0889,7.0889,7.0889,7.0889,7.0889,7.0889,7.0889,7.0889,7.0759,6.9831,6.8872,6.7639,6.4741,6.3172,6.204,6.0093,5.9483,5.9483,5.9483,5.9483,5.9483,5.9483,5.9483,5.9483,5.9483,5.9483,5.9483,5.9483,5.9483,5.9156,5.8052,5.873,5.9131,5.8052,5.7851,5.7851,5.7851,5.7851,5.7449,5.6326,5.62,5.62,5.62,5.62,5.62,5.62,5.62,5.62,5.62,5.62,5.62,5.62,5.62,5.62,5.62,5.62,5.62,5.62,5.62,5.62,5.62,5.62,5.62,0.0,0.0,0.0,0.0,0.0,3.3663,0.0,0.0,0.0,4.3898,4.4396,4.4366,4.6144,4.6563,4.6942,4.7848,5.2534,5.4718,5.084,5.8185,6.4006,6.4126,6.5847,6.6864,6.6521,6.6984,6.8046,6.9858,6.8435,6.7747,6.8347,6.8137,6.7748,6.7224,6.7074,6.7074,6.7194,6.7852,6.8241,6.8407,6.9588,7.0157,7.0187,7.0679,7.0889,7.0889,7.0889,7.0889,7.0889,7.0889,7.0889,7.0889,7.0889,7.0889,7.0889,7.0889,7.0678,7.0157,6.862,6.7622,6.6503,6.3392,6.2152,6.1561,5.9978,5.9483,5.9483,5.9483,5.9483,5.9483,5.9483,5.9483,5.9483,5.9483,5.9483,5.9483,5.9483,5.9483,5.9483,5.9483,5.9483,5.9483,5.9483,5.9483,5.9483,5.9483,5.9483,5.8704,5.6477,5.62,5.62,5.62,5.62,5.62,5.62,5.62,5.62,5.62,5.62,5.62,5.62,5.62,5.62,5.62,5.62,5.62,5.62,5.62,5.62,5.62,5.62,5.62,0.0,0.0,0.0,0.0,3.5617,0.0,0.0,0.0,3.3844,3.3491,0.0,3.5198,3.6023,0.0,0.0,3.6464,4.1285,4.4715,4.3658,4.8996,5.3222,5.3803,6.1657,6.5428,6.1387,6.1058,6.3572,6.9558,6.5024,6.4276,6.9498,6.8646,6.7958,6.7898,6.7313,6.7284,6.7868,6.8541,6.9183,6.9768,7.047,7.0799,7.0799,7.0859,7.0889,7.0889,7.0889,7.0889,7.0889,7.0889,7.0889,7.0889,7.0889,7.0889,7.0889,7.0889,6.9847,6.84,6.8151,6.5861,6.2978,6.2535,6.1222,5.9792,5.956,5.9483,5.9483,5.9483,5.9483,5.9483,5.9483,5.9483,5.9483,5.9483,5.9483,5.9483,5.9483,5.9483,5.9483,5.9483,5.9483,5.9483,5.9483,5.9483,5.9483,5.9483,5.9483,5.8704,5.6477,5.62,5.62,5.62,5.62,5.62,5.62,5.62,5.62,5.62,5.62,5.62,5.62,5.62,5.62,5.62,5.62,5.62,5.62,5.62,5.62,5.62,5.62,5.62,0.0,0.0,0.0,0.0,0.0,0.0,3.3305,0.0,3.1831,0.0,0.0,0.0,0.0,0.0,0.0,0.0,3.882,4.1175,3.8239,4.4906,5.0493,5.1487,5.5286,5.8441,5.9951,6.0819,6.3692,6.9558,6.5503,6.4904,6.9738,6.9468,6.899,6.86,6.7912,6.7912,6.8571,6.8854,6.9333,7.0007,7.062,7.0889,7.0889,7.0889,7.0889,7.0889,7.0889,7.0889,7.0889,7.0889,7.0889,7.0889,7.0889,7.0889,7.0889,7.0889,6.9715,6.7929,6.6806,6.4652,6.2227,6.107,6.017,5.9483,5.9483,5.9483,5.9483,5.9483,5.9483,5.9483,5.9483,5.9483,5.9483,5.9483,5.9483,5.9483,5.9483,5.9483,5.9483,5.9483,5.9483,5.9483,5.9483,5.9483,5.9483,5.9483,5.9483,5.9156,5.8227,5.8102,5.8102,5.8102,5.6972,5.62,5.62,5.62,5.62,5.62,5.62,5.62,5.62,5.62,5.62,5.62,5.62,5.62,5.62,5.62,5.62,5.62,5.62,5.62,4.1016,0.0,0.0,3.7563,3.7802,3.8212,0.0,0.0,0.0,0.0,0.0,0.0,0.0,0.0,0.0,0.0,0.0,3.82,3.4488,4.0296,4.5445,4.673,4.8304,5.1517,5.7124,5.7543,6.0296,6.7059,6.3857,6.4126,6.9947,7.0097,6.9768,6.9273,6.863,6.86,6.9273,6.9273,6.9602,7.0247,7.0679,7.0889,7.0889,7.0889,7.0889,7.0889,7.0889,7.0889,7.0889,7.0889,7.0889,7.0889,7.0889,7.0596,7.014,7.014,6.8923,6.7042,6.5089,6.3209,6.1372,5.9939,5.9483,5.9483,5.9483,5.9483,5.9483,5.9483,5.9483,5.9483,5.9483,5.9483,5.9483,5.9483,5.9483,5.9483,5.9483,5.9483,5.9483,5.9483,5.9483,5.9483,5.9483,5.9483,5.9483,5.9483,5.9483,5.9483,5.9483,5.9483,5.9483,5.9483,5.8052,5.7104,5.7104,5.657,5.62,5.62,5.62,5.62,5.62,5.62,5.62,5.62,5.62,5.62,5.62,5.62,5.62,5.62,5.62,5.62,4.7021,4.5623,4.4476,3.7306,3.6088,3.5737,3.2348,3.3521,3.516,0.0,0.0,0.0,0.0,0.0,0.0,0.0,0.0,0.0,0.0,3.3395,3.4502,3.584,4.1046,4.6371,5.1026,4.8046,5.0152,6.0611,5.7723,5.998,7.032,7.0336,6.9977,6.9977,6.9319,6.9273,6.9947,6.9977,7.0277,7.0859,7.0889,7.0889,7.0889,7.0889,7.0889,7.0889,7.0889,7.0889,7.0889,7.0889,7.0889,7.0889,7.0889,6.9798,6.8197,6.8197,6.6944,6.5036,6.3135,6.1222,5.9579,5.9502,5.9483,5.9483,5.9483,5.9483,5.9483,5.9483,5.9483,5.9483,5.9483,5.9483,5.9483,5.9483,5.9483,5.9483,5.9483,5.9483,5.9483,5.9483,5.9483,5.9483,5.9483,5.9483,5.9483,5.9483,5.9483,5.9483,5.9483,5.9483,5.9483,5.9483,5.9433,5.9382,5.9382,5.7449,5.62,5.62,5.62,5.62,5.62,5.62,5.62,5.62,5.62,5.62,5.62,5.62,5.62,5.62,5.62,5.62,5.1061,5.2606,5.2594,4.3589,4.2821,4.2292,3.4584,3.4195,3.5182,0.0,0.0,0.0,0.0,0.0,0.0,0.0,0.0,0.0,0.0,0.0,3.2011,3.3357,3.9149,0.0,0.0,4.8906,5.3773,5.9967,6.0805,6.3917,7.056,7.0709,7.059,7.059,7.0007,6.9961,7.059,7.0217,7.0306,7.0889,7.0889,7.0889,7.0889,7.0889,7.0889,7.0889,7.0889,7.0889,7.0889,7.0889,7.0889,7.0775,6.9549,6.8654,6.8112,6.8112,6.6072,6.308,6.1146,6.0035,5.9483,5.9483,5.9483,5.9483,5.9483,5.9483,5.9483,5.9483,5.9483,5.9483,5.9483,5.9483,5.9483,5.9483,5.9483,5.9483,5.9483,5.9483,5.9483,5.9483,5.9483,5.9483,5.9483,5.9483,5.9483,5.9483,5.9483,5.9483,5.9483,5.9483,5.9483,5.9483,5.9483,5.8905,5.7449,5.6627,5.62,5.62,5.62,5.62,5.62,5.62,5.62,5.62,5.62,5.62,5.62,5.62,5.62,5.62,5.62,5.62,5.5568,5.7154,5.7111,4.8824,4.8046,4.71,3.8589,3.8063,3.8952,3.7614,0.0,0.0,0.0,0.0,0.0,0.0,0.0,0.0,0.0,0.0,0.0,0.0,0.0,0.0,0.0,0.0,5.081,6.0429,6.034,6.3169,7.0859,7.1038,7.0889,7.0889,7.05,7.0636,7.1248,7.062,7.062,7.1248,7.1009,7.0889,7.0889,7.0889,7.0889,7.0889,7.0889,7.0889,7.0889,7.0889,7.0889,7.071,6.8822,6.769,6.7007,6.63,6.4075,6.1184,5.992,5.9483,5.9483,5.9483,5.9483,5.9483,5.9483,5.9483,5.9483,5.9483,5.9483,5.9483,5.9483,5.9483,5.9483,5.9483,5.9483,5.9483,5.9483,5.9483,5.9483,5.9483,5.9483,5.9483,5.9483,5.9483,5.9483,5.9483,5.9483,5.9483,5.9483,5.9483,5.9483,5.9483,5.9483,5.893,5.7499,5.6671,5.62,5.62,5.62,5.62,5.62,5.62,5.62,5.62,5.62,5.62,5.62,5.62,5.62,5.62,5.62,5.62]},{"header":{"parameterUnit":"m.s-1","parameterCategory":1,"la1":30.6,"la2":29.2853,"lo1":-89.7004,"lo2":-87.6739,"dx":0.0162,"dy":0.0183,"nx":112,"ny":82,"refTime":"2022-11-20T18:00:00:Z","depth":0,"parameterNumber":3,"parameterNumberName":"V-component_of_WINDS"},"data":[0.0,0.0,0.0,0.0,0.0,0.0,0.0,0.0,0.0,0.0,0.0,0.0,0.0,0.0,0.0,0.0,0.0,0.0,0.0,0.0,0.0,0.0,0.0,0.0,0.0,0.0,0.0,0.0,0.0,0.0,0.0,0.0,0.0,0.0,0.0,0.0,0.0,0.0,0.0,0.0,0.0,0.0,0.0,0.0,0.0,0.0,0.0,0.0,0.0,0.0,0.0,0.0,0.0,0.0,0.0,0.0,0.0,0.0,0.0,0.0,0.0,0.0,0.0,0.0,0.0,0.0,0.0,0.0,0.0,0.0,0.0,0.0,0.0,0.0,0.0,0.0,0.0,0.0,0.0,0.0,0.0,0.0,0.0,0.0,0.0,0.0,0.0,0.0,0.0,0.0,2.1671,2.2919,2.585,2.7545,2.7148,2.6719,2.4668,2.0371,0.0,0.0,0.0,0.0,0.0,0.0,0.0,0.0,0.0,0.0,0.0,0.0,0.0,0.0,0.0,0.0,0.0,0.0,0.0,0.0,0.0,0.0,0.0,0.0,0.0,0.0,0.0,0.0,0.0,0.0,0.0,0.0,0.0,0.0,0.0,0.0,0.0,0.0,0.0,0.0,0.0,0.0,0.0,0.0,0.0,0.0,0.0,0.0,0.0,0.0,0.0,0.0,0.0,0.0,0.0,0.0,0.0,0.0,0.0,0.0,0.0,0.0,0.0,0.0,0.0,0.0,0.0,0.0,0.0,0.0,0.0,0.0,0.0,0.0,0.0,0.0,0.0,0.0,0.0,0.0,0.0,0.0,0.0,0.0,0.0,0.0,0.0,0.0,0.0,0.0,0.0,0.0,0.0,0.0,0.0,0.0,0.0,0.0,0.0,0.0,0.0,0.0,0.0,0.0,2.1145,2.6763,2.7558,2.7676,2.7604,2.7168,2.5222,2.1259,0.0,0.0,0.0,0.0,0.0,0.0,0.0,0.0,0.0,0.0,0.0,0.0,0.0,0.0,0.0,0.0,0.0,0.0,0.0,0.0,0.0,0.0,0.0,0.0,0.0,0.0,0.0,0.0,0.0,0.0,0.0,0.0,0.0,0.0,0.0,0.0,0.0,0.0,0.0,0.0,0.0,0.0,0.0,0.0,0.0,0.0,0.0,0.0,0.0,0.0,0.0,0.0,0.0,0.0,0.0,0.0,0.0,0.0,0.0,0.0,0.0,0.0,0.0,0.0,0.0,0.0,0.0,0.0,0.0,0.0,0.0,0.0,0.0,0.0,0.0,0.0,0.0,0.0,0.0,0.0,0.0,0.0,0.0,0.0,0.0,0.0,0.0,0.0,0.0,0.0,0.0,0.0,0.0,0.0,0.0,0.0,0.0,0.0,0.0,0.0,0.0,0.0,0.0,1.9434,2.2467,2.774,2.8138,2.8034,2.8034,2.7832,2.5957,2.1845,2.0576,0.0,0.0,0.0,0.0,0.0,0.0,0.0,0.0,0.0,0.0,0.0,0.0,0.0,0.0,0.0,0.0,0.0,0.0,0.0,0.0,0.0,0.0,0.0,0.0,0.0,0.0,0.0,0.0,0.0,0.0,0.0,0.0,0.0,0.0,0.0,0.0,0.0,0.0,0.0,0.0,0.0,0.0,0.0,0.0,0.0,0.0,0.0,0.0,0.0,0.0,0.0,0.0,0.0,0.0,0.0,0.0,0.0,0.0,0.0,0.0,0.0,0.0,0.0,0.0,0.0,0.0,0.0,0.0,0.0,0.0,0.0,0.0,0.0,0.0,0.0,0.0,0.0,0.0,0.0,0.0,0.0,0.0,0.0,0.0,0.0,0.0,0.0,0.0,0.0,0.0,0.0,0.0,0.0,0.0,0.0,0.0,0.0,0.0,0.0,0.0,0.0,0.0,2.2712,2.4787,2.7955,2.8314,2.8314,2.8314,2.8314,2.6477,2.2159,2.1084,0.0,0.0,0.0,0.0,0.0,0.0,0.0,0.0,0.0,0.0,0.0,0.0,0.0,0.0,0.0,0.0,0.0,0.0,0.0,0.0,0.0,0.0,0.0,0.0,0.0,0.0,0.0,0.0,0.0,0.0,0.0,0.0,0.0,0.0,0.0,0.0,0.0,0.0,0.0,0.0,0.0,0.0,0.0,0.0,0.0,0.0,0.0,0.0,0.0,0.0,0.0,0.0,0.0,0.0,0.0,0.0,0.0,0.0,0.0,0.0,0.0,0.0,0.0,0.0,0.0,0.0,0.0,0.0,0.0,0.0,0.0,0.0,0.0,0.0,0.0,0.0,0.0,0.0,0.0,0.0,0.0,0.0,0.0,0.0,0.0,0.0,0.0,0.0,0.0,0.0,0.0,0.0,0.0,0.0,0.0,0.0,0.0,0.0,0.0,0.0,0.0,0.0,2.4516,2.7988,2.8262,2.8314,2.8314,2.8314,2.8314,2.6477,2.2159,2.1084,0.0,0.0,0.0,0.0,0.0,0.0,0.0,0.0,0.0,0.0,0.0,0.0,0.0,0.0,0.0,0.0,0.0,0.0,0.0,0.0,0.0,0.0,0.0,0.0,0.0,0.0,0.0,0.0,0.0,0.0,0.0,0.0,0.0,0.0,0.0,0.0,0.0,0.0,0.0,0.0,0.0,0.0,0.0,0.0,0.0,0.0,0.0,0.0,0.0,0.0,0.0,0.0,0.0,0.0,0.0,0.0,0.0,0.0,0.0,0.0,0.0,0.0,0.0,0.0,0.0,0.0,0.0,0.0,0.0,0.0,0.0,0.0,0.0,0.0,0.0,0.0,0.0,0.0,0.0,0.0,0.0,0.0,0.0,0.0,0.0,0.0,0.0,0.0,0.0,0.0,0.0,0.0,0.0,0.0,0.0,0.0,0.0,0.0,0.0,0.0,0.0,0.0,2.3051,2.6033,2.8085,2.8314,2.8314,2.8314,2.8314,2.6348,2.1737,0.0,0.0,0.0,0.0,0.0,0.0,0.0,0.0,0.0,0.0,0.0,0.0,0.0,0.0,0.0,0.0,0.0,0.0,0.0,0.0,0.0,0.0,0.0,0.0,0.0,0.0,0.0,0.0,0.0,0.0,0.0,0.0,0.0,0.0,0.0,0.0,0.0,0.0,0.0,0.0,0.0,0.0,0.0,0.0,0.0,0.0,0.0,0.0,0.0,0.0,0.0,0.0,0.0,0.0,0.0,0.0,0.0,0.0,0.0,0.0,0.0,0.0,0.0,0.0,0.0,0.0,0.0,0.0,0.0,0.0,0.0,0.0,0.0,0.0,0.0,0.0,0.0,0.0,0.0,0.0,0.0,0.0,0.0,0.0,0.0,0.0,0.0,0.0,0.0,0.0,0.0,0.0,0.0,0.0,0.0,0.0,0.0,0.0,0.0,0.0,0.0,0.0,2.0401,2.3438,2.6238,2.8475,2.8705,2.8705,2.8705,2.8588,2.6484,2.1718,0.0,0.0,0.0,0.0,0.0,0.0,0.0,0.0,0.0,0.0,0.0,0.0,0.0,0.0,0.0,0.0,0.0,0.0,0.0,0.0,0.0,0.0,0.0,0.0,0.0,0.0,0.0,0.0,0.0,0.0,0.0,0.0,0.0,0.0,0.0,0.0,0.0,0.0,0.0,0.0,0.0,0.0,0.0,0.0,0.0,0.0,0.0,0.0,0.0,0.0,0.0,0.0,0.0,0.0,0.0,0.0,0.0,0.0,0.0,0.0,0.0,0.0,0.0,0.0,0.0,0.0,0.0,0.0,0.0,0.0,0.0,0.0,0.0,0.0,0.0,0.0,0.0,0.0,0.0,0.0,0.0,0.0,0.0,0.0,0.0,0.0,0.0,0.0,0.0,0.0,0.0,0.0,0.0,0.0,0.0,0.0,0.0,0.0,0.0,0.0,0.0,0.0,2.1846,2.6412,2.9598,2.9598,2.9598,2.9598,2.9598,2.918,2.6901,0.0,0.0,0.0,0.0,0.0,0.0,0.0,0.0,0.0,0.0,0.0,0.0,0.0,0.0,0.0,0.0,0.0,0.0,0.0,0.0,0.0,0.0,0.0,0.0,0.0,0.0,0.0,0.0,0.0,0.0,0.0,0.0,0.0,0.0,0.0,0.0,0.0,0.0,0.0,0.0,0.0,0.0,0.0,0.0,0.0,0.0,0.0,0.0,0.0,0.0,0.0,0.0,0.0,0.0,0.0,0.0,0.0,0.0,0.0,0.0,0.0,0.0,0.0,0.0,0.0,0.0,0.0,0.0,0.0,0.0,0.0,0.0,0.0,0.0,0.0,0.0,0.0,0.0,0.0,0.0,0.0,0.0,0.0,0.0,0.0,0.0,0.0,0.0,0.0,0.0,0.0,0.0,0.0,0.0,0.0,0.0,0.0,0.0,0.0,0.0,0.0,0.0,0.0,2.2227,2.6575,2.9598,2.9598,2.9598,2.9598,2.9598,2.9467,2.7122,2.1737,0.0,0.0,0.0,0.0,0.0,0.0,0.0,0.0,0.0,0.0,0.0,0.0,0.0,0.0,0.0,0.0,0.0,0.0,0.0,0.0,0.0,0.0,0.0,0.0,0.0,0.0,0.0,0.0,0.0,0.0,0.0,0.0,0.0,0.0,0.0,0.0,0.0,0.0,0.0,0.0,0.0,0.0,0.0,0.0,0.0,0.0,0.0,0.0,0.0,0.0,0.0,0.0,0.0,0.0,0.0,0.0,0.0,0.0,0.0,0.0,0.0,0.0,0.0,0.0,0.0,0.0,0.0,0.0,0.0,0.0,0.0,0.0,0.0,0.0,0.0,0.0,0.0,0.0,0.0,0.0,0.0,0.0,0.0,0.0,0.0,0.0,0.0,0.0,0.0,0.0,0.0,0.0,0.0,0.0,0.0,0.0,0.0,0.0,0.0,0.0,0.0,0.0,2.2891,2.7181,3.017,3.0346,3.021,3.0126,3.0126,2.995,2.7962,2.3552,0.0,0.0,0.0,0.0,0.0,0.0,0.0,0.0,0.0,0.0,0.0,0.0,0.0,0.0,0.0,0.0,0.0,0.0,0.0,0.0,0.0,0.0,0.0,0.0,0.0,0.0,0.0,0.0,0.0,0.0,0.0,0.0,0.0,0.0,0.0,0.0,0.0,0.0,0.0,0.0,0.0,0.0,0.0,0.0,0.0,0.0,0.0,0.0,0.0,0.0,0.0,0.0,0.0,0.0,0.0,0.0,0.0,0.0,0.0,0.0,0.0,0.0,0.0,0.0,0.0,0.0,0.0,0.0,0.0,0.0,0.0,0.0,0.0,0.0,0.0,0.0,0.0,0.0,0.0,0.0,0.0,0.0,0.0,0.0,0.0,0.0,0.0,0.0,0.0,0.0,0.0,0.0,0.0,0.0,0.0,0.0,0.0,0.0,0.0,0.0,0.0,0.0,2.3691,2.806,3.1152,3.1528,3.123,3.103,3.103,3.0625,2.9327,2.6815,0.0,0.0,0.0,0.0,0.0,0.0,0.0,0.0,0.0,0.0,0.0,0.0,0.0,0.0,0.0,0.0,0.0,0.0,0.0,0.0,0.0,0.0,0.0,0.0,0.0,0.0,0.0,0.0,0.0,0.0,0.0,0.0,0.0,0.0,0.0,0.0,0.0,0.0,0.0,0.0,0.0,0.0,0.0,0.0,0.0,0.0,0.0,0.0,0.0,0.0,0.0,0.0,0.0,0.0,0.0,0.0,0.0,0.0,0.0,0.0,1.7349,1.4427,0.0,0.0,0.0,0.0,0.0,0.0,0.0,0.0,0.0,0.0,0.0,0.0,0.0,0.0,0.0,0.0,0.0,0.0,0.0,0.0,0.0,0.0,0.0,0.0,0.0,0.0,0.0,0.0,0.0,0.0,0.0,0.0,0.0,0.0,0.0,0.0,0.0,0.0,0.0,0.0,2.411,2.8744,3.1964,3.2027,3.1983,3.1925,3.1925,3.1827,3.0875,2.8732,2.7896,0.0,0.0,0.0,0.0,0.0,0.0,0.0,0.0,0.0,0.0,0.0,0.0,0.0,0.0,0.0,0.0,0.0,0.0,0.0,0.0,0.0,0.0,0.0,0.0,0.0,0.0,0.0,0.0,0.0,0.0,0.0,0.0,0.0,0.0,0.0,0.0,0.0,0.0,0.0,0.0,0.0,0.0,0.0,0.0,0.0,0.0,0.0,0.0,0.0,0.0,0.0,0.0,0.0,0.0,0.0,0.0,0.0,0.0,0.0,1.9696,1.8034,0.0,0.0,0.0,0.0,0.0,0.0,0.0,0.0,0.0,0.0,0.0,0.0,0.0,0.0,0.0,0.0,0.0,0.0,0.0,0.0,0.0,0.0,0.0,0.0,0.0,0.0,0.0,0.0,0.0,0.0,0.0,0.0,0.0,0.0,0.0,0.0,0.0,0.0,0.0,0.0,2.4805,2.9213,3.2276,3.2457,3.2316,3.2198,3.2198,3.2885,3.2848,3.1814,3.1121,0.0,0.0,0.0,0.0,0.0,0.0,0.0,0.0,0.0,0.0,0.0,0.0,0.0,0.0,0.0,0.0,0.0,0.0,0.0,0.0,0.0,0.0,0.0,0.0,0.0,0.0,0.0,0.0,0.0,0.0,0.0,0.0,0.0,0.0,0.0,0.0,0.0,0.0,0.0,0.0,0.0,0.0,0.0,0.0,0.0,0.0,0.0,0.0,0.0,0.0,0.0,0.0,0.0,2.1984,2.216,2.218,2.2509,2.363,2.5124,2.1854,2.199,2.4173,1.9601,0.0,0.0,0.0,0.0,0.0,0.0,0.0,0.0,0.0,0.0,0.0,0.0,0.0,0.0,0.0,0.0,0.0,0.0,0.0,0.0,0.0,0.0,2.3965,2.4836,2.6145,2.6536,2.4191,0.0,0.0,0.0,0.0,0.0,0.0,0.0,0.0,0.0,0.0,0.0,2.6184,3.0073,3.275,3.3101,3.2769,3.2638,3.2924,3.4039,3.4927,3.54,3.4328,3.3317,0.0,0.0,0.0,0.0,0.0,0.0,0.0,0.0,0.0,0.0,0.0,0.0,0.0,0.0,0.0,0.0,0.0,0.0,0.0,0.0,0.0,0.0,0.0,0.0,0.0,0.0,0.0,0.0,0.0,0.0,0.0,0.0,1.8193,1.8332,0.0,0.0,0.0,0.0,0.0,0.0,0.0,0.0,0.0,0.0,0.0,0.0,0.0,2.1249,2.2236,2.411,2.5242,2.5657,2.7526,2.8406,2.8406,2.8464,2.866,2.8881,2.8354,0.0,2.4926,2.3796,0.0,0.0,0.0,0.0,0.0,0.0,0.0,0.0,0.0,0.0,0.0,0.0,0.0,0.0,0.0,0.0,0.0,0.0,0.0,0.0,0.0,0.0,2.8881,2.976,3.0151,3.0405,3.0757,2.668,2.2722,2.1962,2.21,2.1495,0.0,0.0,0.0,0.0,0.0,0.0,2.9193,3.2383,3.4394,3.4434,3.4098,3.4429,3.5806,3.5746,3.6618,3.8946,3.8915,3.7618,3.4957,3.4104,0.0,0.0,0.0,0.0,0.0,0.0,0.0,0.0,0.0,0.0,0.0,0.0,0.0,0.0,0.0,0.0,0.0,0.0,0.0,0.0,0.0,0.0,0.0,0.0,0.0,0.0,0.0,0.0,0.0,1.7458,1.8486,1.8706,1.7966,1.6747,0.0,0.0,0.0,0.0,0.0,0.0,0.0,0.0,0.0,2.4051,2.4332,2.5105,2.6477,2.7422,2.7871,2.7832,2.9018,2.9447,2.9219,2.9481,2.9598,2.9598,2.9598,2.8855,2.7526,2.6106,2.4492,2.2763,0.0,0.0,0.0,0.0,2.166,2.1787,2.4289,2.4992,2.459,2.3513,0.0,0.0,0.0,0.0,0.0,0.0,0.0,2.4375,2.6589,2.8184,2.9623,3.1245,3.1616,3.1749,3.212,3.0449,2.8209,2.5859,2.498,2.3477,1.9912,2.0713,0.0,0.0,0.0,2.8425,3.0644,3.3144,3.508,3.6062,3.6008,3.6565,3.8255,3.9042,3.9958,4.1133,4.1753,4.1456,4.0112,3.7083,3.3766,0.0,0.0,0.0,0.0,0.0,0.0,0.0,0.0,0.0,0.0,0.0,0.0,0.0,0.0,0.0,0.0,0.0,0.0,0.0,0.0,0.0,0.0,0.0,0.0,0.0,0.0,0.0,0.0,1.9005,1.9717,1.9903,1.9747,1.8693,0.0,0.0,0.0,0.0,0.0,0.0,2.298,2.3426,2.4746,2.7142,2.75,2.8412,2.9931,2.9931,2.9877,2.9746,3.0092,3.0073,2.9766,3.0106,3.0263,3.0263,3.0263,3.0263,3.0106,2.8177,2.6914,2.605,2.4578,2.3535,2.3047,2.4445,2.4793,2.4976,2.7715,2.8529,2.8184,2.7318,2.6576,2.5737,2.416,0.0,0.0,0.0,0.0,2.6289,2.8685,2.959,3.0337,3.2085,3.2609,3.2726,3.2824,3.3047,3.2441,2.9682,2.8535,2.6771,2.294,2.4132,0.0,2.4347,2.7934,3.1331,3.2934,3.503,3.6859,3.8151,3.8188,3.8797,4.0508,4.1675,4.2455,4.2866,4.3596,4.4001,4.4001,4.0185,3.7667,3.6836,0.0,0.0,0.0,0.0,0.0,0.0,0.0,0.0,0.0,0.0,0.0,0.0,0.0,0.0,0.0,0.0,0.0,0.0,0.0,0.0,0.0,0.0,0.0,0.0,0.0,0.0,0.0,0.0,0.0,2.3574,2.3856,0.0,0.0,0.0,0.0,2.1612,2.2129,2.3516,2.6047,2.6562,2.7598,2.9383,2.9461,2.9911,3.0835,3.0835,3.1245,3.2042,3.2061,3.2061,3.2042,3.2061,3.2061,3.2061,3.2061,3.2061,3.1964,3.0581,2.9057,2.7637,2.7904,2.6979,2.5706,2.7441,2.8301,2.8873,3.0689,3.1582,3.1773,3.0932,2.8965,2.7136,2.8229,2.7142,0.0,0.0,2.8965,2.9755,3.1534,3.23,3.2734,3.3226,3.3672,3.4098,3.4492,3.3652,3.2891,3.307,3.373,3.3418,3.0762,0.0,3.0522,3.0464,3.2401,3.477,3.7263,3.9502,4.0921,4.1002,4.0609,4.0992,4.2608,4.2486,4.2925,4.4401,4.4535,4.4564,4.4564,4.3822,4.1665,3.7977,3.6661,0.0,0.0,0.0,0.0,0.0,0.0,0.0,0.0,0.0,0.0,0.0,0.0,0.0,0.0,0.0,0.0,0.0,0.0,0.0,0.0,0.0,0.0,0.0,0.0,0.0,0.0,0.0,0.0,2.3529,2.425,0.0,2.2461,2.3251,2.4141,2.4758,2.6204,2.7728,2.9213,2.9434,3.0053,3.124,3.1279,3.1416,3.1734,3.1749,3.1734,3.1758,3.2061,3.2027,3.1758,3.2046,3.2198,3.2198,3.2198,3.2198,3.2179,3.1953,3.1362,3.0615,3.0752,3.0424,2.9955,3.0581,3.0893,3.1108,3.1734,3.2046,3.214,3.1846,3.1123,3.0424,3.0893,3.0859,3.0811,3.1572,3.2324,3.3023,3.3649,3.3922,3.4062,3.4199,3.4355,3.4528,3.4668,3.457,3.4528,3.4668,3.4023,3.3282,3.2614,3.4122,3.523,3.4712,3.6946,3.8994,3.99,4.0716,4.1613,4.2691,4.2653,4.3244,4.4941,4.495,4.5106,4.5654,4.5372,4.5171,4.5171,4.4629,4.3675,4.2256,4.1868,3.8103,0.0,0.0,0.0,0.0,0.0,0.0,0.0,0.0,0.0,0.0,0.0,0.0,0.0,0.0,0.0,0.0,0.0,0.0,0.0,0.0,0.0,0.0,0.0,0.0,0.0,2.3205,2.4801,2.394,2.5344,2.5774,2.4168,2.5847,2.7272,2.7871,2.9232,3.0405,3.1284,3.1343,3.1597,3.2179,3.2335,3.2457,3.2613,3.275,3.275,3.2582,3.2891,3.2887,3.2582,3.2906,3.3043,3.3043,3.3043,3.3043,3.3062,3.3336,3.3281,3.3004,3.2554,3.2316,3.2198,3.2198,3.2296,3.2437,3.2746,3.2941,3.3043,3.3043,3.3043,3.3043,3.3043,3.3418,3.3832,3.3832,3.4242,3.4707,3.4707,3.4824,3.4941,3.4941,3.5039,3.5156,3.5156,3.5391,3.579,3.637,3.5057,3.4163,3.5023,3.6824,3.7864,3.7045,3.9854,4.1731,4.0869,4.2026,4.3357,4.4451,4.4574,4.5043,4.6195,4.5623,4.5522,4.6235,4.5286,4.4985,4.5723,4.4303,4.3485,4.3485,4.331,3.996,3.3355,0.0,0.0,0.0,0.0,0.0,0.0,0.0,0.0,0.0,0.0,0.0,0.0,0.0,0.0,0.0,0.0,0.0,0.0,0.0,0.0,0.0,0.0,0.0,2.3373,2.439,2.5231,2.5231,2.7402,2.8444,2.7233,2.8646,3.0009,3.0874,3.0952,3.1323,3.2198,3.2237,3.2257,3.2276,3.2652,3.3047,3.3441,3.3903,3.4313,3.4707,3.4707,3.4707,3.4707,3.4707,3.4707,3.4707,3.4707,3.4707,3.4707,3.4707,3.4707,3.457,3.334,3.2613,3.2276,3.2276,3.2515,3.2969,3.3824,3.4372,3.4707,3.4707,3.4707,3.4707,3.4707,3.4707,3.4726,3.4726,3.4726,3.4746,3.4746,3.5078,3.541,3.541,3.5723,3.5999,3.5999,3.5999,3.6522,3.8271,3.7243,3.6657,3.8453,3.8762,3.8479,3.7694,4.1113,0.0,4.0409,4.3723,4.6301,4.6235,4.6235,4.6235,4.6235,4.4267,4.398,4.616,4.4281,4.4055,4.621,4.3184,4.1464,4.1464,4.08,3.9421,3.7248,0.0,0.0,0.0,0.0,0.0,0.0,0.0,0.0,0.0,0.0,0.0,0.0,0.0,0.0,0.0,0.0,0.0,0.0,0.0,0.0,0.0,2.3552,2.5152,2.4652,2.6477,2.7871,2.7871,2.8769,2.9526,2.9805,3.0268,3.0893,3.1788,3.1831,3.2203,3.3027,3.307,3.3359,3.3984,3.4121,3.4238,3.4336,3.4473,3.459,3.4707,3.4707,3.4707,3.4707,3.4707,3.4707,3.4707,3.4707,3.4707,3.4707,3.4707,3.4707,3.4668,3.4316,3.4101,3.4004,3.4004,3.4082,3.4199,3.4453,3.4609,3.4707,3.4707,3.4707,3.4707,3.4707,3.4941,3.5195,3.5195,3.543,3.5647,3.5647,3.5725,3.5842,3.5842,3.592,3.5999,3.5999,3.5999,3.6522,3.8271,3.8541,3.9275,4.1865,4.2312,4.266,4.3673,4.4817,4.5335,4.4637,4.5564,4.5984,4.5156,4.5081,4.5081,4.5081,4.4503,4.478,4.621,4.5723,4.5673,4.6261,4.5407,4.493,4.493,4.1617,3.9434,0.0,0.0,0.0,0.0,0.0,0.0,0.0,0.0,0.0,0.0,0.0,0.0,0.0,0.0,0.0,0.0,0.0,0.0,0.0,0.0,0.0,0.0,2.564,2.7038,2.6998,2.8255,2.9336,2.9693,2.9975,3.0497,3.1362,3.1441,3.1792,3.2652,3.2711,3.3066,3.389,3.3929,3.418,3.4687,3.4883,3.498,3.498,3.5156,3.5237,3.5237,3.5237,3.5237,3.5237,3.5237,3.5237,3.5237,3.5237,3.5237,3.5237,3.5237,3.5237,3.5215,0.0,0.0,0.0,0.0,3.4824,3.498,3.498,3.5098,3.5237,3.5237,3.5237,3.5237,3.5237,3.5449,3.5664,3.5664,3.5823,3.5999,3.5999,3.5999,3.5999,3.5999,3.6728,3.7422,3.7422,3.8169,3.9365,4.1094,4.1698,0.0,4.5058,4.486,4.4622,4.527,4.6287,4.6574,4.5514,4.6312,4.6712,4.606,4.5769,4.5643,4.5643,4.4579,0.0,0.0,0.0,4.4819,4.4583,4.4583,0.0,0.0,0.0,4.1155,4.1996,3.9396,0.0,0.0,3.5755,3.5027,0.0,0.0,0.0,0.0,0.0,0.0,0.0,0.0,0.0,0.0,0.0,0.0,0.0,0.0,0.0,0.0,2.7669,2.9205,2.9676,2.9794,3.0073,3.0801,3.0991,3.1362,3.2198,3.2316,3.2652,3.3422,3.3519,3.391,3.4726,3.4785,0.0,0.0,0.0,3.5469,3.5469,3.5823,3.5999,3.5999,3.5999,3.5999,3.5999,3.5999,3.5999,3.5999,3.5999,3.5999,3.5999,3.5999,3.5999,3.592,3.5156,3.4844,3.4844,3.4844,3.5117,3.5469,3.5469,0.0,0.0,3.5999,3.5999,3.5999,3.5999,3.5999,3.5999,3.5999,3.6038,3.6128,3.6329,3.6267,3.6238,3.6661,3.8159,3.9521,3.974,4.1379,4.3326,4.506,4.5453,4.6014,4.7702,4.6705,4.5414,4.4632,4.6442,4.7082,4.4818,4.6498,4.7857,4.7716,4.7274,0.0,4.7023,4.4769,4.4256,4.6351,4.4568,4.3266,4.2777,4.2701,4.2651,4.2651,4.2651,4.3854,4.6286,4.625,4.6235,4.6085,3.7638,3.6107,0.0,0.0,0.0,0.0,0.0,0.0,0.0,0.0,0.0,0.0,0.0,0.0,0.0,0.0,0.0,2.7076,2.8803,3.0117,3.0581,3.0937,3.1074,3.0918,3.1519,3.2144,3.2633,3.2988,3.3398,3.3922,3.4258,3.4687,3.5234,3.5254,3.541,3.5745,3.5842,3.5881,3.5881,3.5959,3.5999,3.5999,3.5999,0.0,3.5999,3.5999,3.5999,3.5999,3.5999,3.5999,3.5999,3.5999,3.5999,3.5979,3.5803,3.5745,3.5745,3.5745,3.5803,3.5881,3.5881,3.594,3.5999,3.5999,3.5999,3.5999,3.5999,3.5999,0.0,3.5999,3.6269,3.6902,3.836,3.7895,3.7796,4.0782,4.0717,4.0363,4.1833,4.2476,4.3326,4.506,4.5739,4.6585,4.8332,4.7958,4.7355,4.7203,4.757,4.7723,4.7234,4.7586,4.7566,4.6687,4.6512,4.6461,4.6461,4.5974,4.621,4.7506,4.6788,4.6261,4.616,4.5748,4.5497,4.5497,4.5497,4.5773,4.6286,4.5874,4.5874,4.625,4.3991,4.3452,0.0,0.0,0.0,0.0,0.0,0.0,0.0,0.0,0.0,0.0,0.0,2.2958,2.4481,0.0,2.7259,2.9031,3.0014,3.0781,3.146,3.1894,3.207,3.1875,3.2402,3.2969,3.3414,3.3809,3.4258,3.4723,3.4938,3.5234,3.5684,3.5703,3.5784,3.5999,3.5999,3.5999,3.5999,3.5999,3.5999,3.5999,3.5999,3.5999,3.5999,3.5999,3.5999,3.5999,3.5999,3.6135,3.6367,3.6582,3.6643,3.6643,3.6643,3.6369,3.5999,3.5999,3.5999,3.5999,3.5999,3.5999,3.6038,3.6269,3.6348,3.6387,3.6601,3.6643,3.6643,3.6643,3.6816,3.7426,3.9273,3.9237,3.9382,4.2149,4.2983,4.3397,4.4325,4.5406,4.6453,4.7344,4.7726,4.8181,4.9035,4.8953,4.8761,4.8761,4.8761,4.8761,4.8761,4.8761,4.856,4.8008,4.7707,4.7546,4.7546,4.728,4.733,4.7883,4.7641,4.7516,4.7516,4.7239,4.6963,4.6712,4.6963,4.6838,4.6286,4.6286,4.6286,4.6301,4.5748,4.5623,0.0,0.0,0.0,0.0,0.0,0.0,0.0,2.0518,2.1055,2.2871,2.4152,2.5383,2.6855,2.78,2.89,3.0723,3.1089,3.146,3.23,3.2695,3.2988,3.3144,3.3398,3.3711,3.4176,3.4606,3.498,3.5371,3.5469,3.5664,3.5979,3.5999,3.5999,3.5999,3.5999,3.5999,3.5999,3.5999,3.5999,3.5999,3.6096,3.6152,3.6135,3.6213,3.6252,3.6252,3.6252,3.6465,3.6834,3.7166,3.7305,3.7305,3.7305,3.6875,3.6252,3.6252,3.6252,3.6252,3.6252,3.6252,3.6311,3.6697,3.6832,3.6873,3.7187,3.7305,3.7393,3.7742,3.7887,3.8472,4.0725,4.1079,4.1433,4.3605,4.5249,4.6441,4.6905,4.8444,4.9791,4.9907,4.9916,4.9916,4.9916,4.9816,4.9715,4.9615,4.959,4.959,4.959,4.9515,4.9439,4.9439,4.9053,4.8843,4.8944,4.851,4.8234,4.8234,4.8134,4.8083,4.8083,4.7958,4.7641,4.7124,4.7616,4.7415,4.6461,4.6772,4.6772,4.6436,4.5799,4.5723,1.9306,1.9228,1.9775,2.1182,2.122,2.2019,0.0,2.6062,2.5581,2.7669,2.8568,2.9129,2.9668,3.021,3.0742,3.1333,3.1777,3.2339,3.3148,3.3304,3.3617,3.4394,3.4215,3.4176,3.459,3.5039,3.5332,3.5407,3.5725,3.5959,3.5999,3.5999,3.5999,3.5999,3.5999,3.5999,3.5999,3.5999,3.5999,3.6018,3.6423,3.6619,3.6619,3.6992,3.7148,3.7148,3.7148,3.7187,3.7244,3.7285,3.7305,3.7305,3.7305,3.7246,3.7148,3.7148,3.7148,3.7148,3.7148,3.7148,3.7168,3.7207,3.7226,3.7226,3.7285,3.7305,3.7654,3.9316,4.0035,4.1124,4.4625,4.458,4.4517,4.8012,4.775,4.7318,4.9487,5.0121,5.0469,5.1013,5.1113,5.1113,5.1113,5.067,5.0151,4.9665,4.959,4.959,4.959,4.9179,4.8894,4.8894,4.8843,4.8978,4.9464,4.9439,4.9414,4.9414,4.8953,4.8718,4.8718,4.8184,4.7641,4.7124,4.7616,4.7616,4.7023,4.6572,4.6612,4.6998,4.5974,4.5537,2.3672,2.3234,2.2971,2.4211,2.4551,2.5093,2.7077,2.7187,2.7337,2.8978,2.9662,3.0092,3.0542,3.0957,3.1484,3.2148,3.2617,3.3105,3.3711,3.4004,3.4394,3.5019,3.4958,3.4919,3.5078,3.5508,3.5762,3.5762,3.5901,3.5999,3.5999,3.5999,3.5999,3.5999,3.5999,3.6135,3.6406,3.6423,3.6523,3.6758,3.697,3.7049,3.7049,3.7226,3.7305,3.7305,3.7559,3.7638,3.7658,3.793,3.8065,3.8065,3.8065,3.8065,3.8006,3.748,3.7305,3.7305,3.7305,3.7305,3.7344,3.756,3.7638,3.7697,3.7969,3.8795,3.9801,4.0588,4.1936,4.3762,4.6389,4.6873,4.7324,4.9967,4.9975,4.9693,5.0722,5.0921,5.1013,5.1264,5.1289,5.1188,5.0845,5.0553,5.0201,4.9665,4.959,4.959,4.959,4.9389,4.928,4.928,4.928,4.9355,4.9565,4.9305,4.9129,4.9129,4.8928,4.8626,4.83,4.8661,4.8636,4.8109,4.8611,4.8636,4.8083,4.7873,4.7682,4.7566,4.7104,4.6903,2.5574,2.5605,2.561,2.6243,2.7051,2.7715,2.7715,2.806,2.866,2.9579,3.019,3.0664,3.0996,3.1504,3.2094,3.2836,3.332,3.3789,3.4372,3.4704,3.5059,3.5508,3.5566,3.5566,3.5566,3.5823,3.5999,3.5999,3.5999,3.5999,3.5999,3.6116,3.6191,3.6191,3.6291,3.6523,3.6853,3.6871,3.701,3.7305,3.7422,3.7461,3.748,3.7598,3.7656,3.7676,3.7969,3.8087,3.8125,3.8456,3.8592,3.8592,3.8592,3.8592,3.8514,3.7889,3.7656,3.7656,3.7656,3.7656,3.7713,3.8008,3.8542,3.9148,3.9505,4.0961,4.2624,4.3135,4.4534,4.6346,4.8225,4.8988,4.9626,5.0963,5.1289,5.1339,5.149,5.1515,5.1515,5.1515,5.1515,5.1322,5.0745,5.0503,5.0277,4.9891,4.969,4.959,4.959,4.9464,4.938,4.938,4.938,4.9455,4.9606,4.9229,4.9028,4.9028,4.9028,4.8827,4.8385,4.9163,4.9355,4.8818,4.9768,4.9783,4.8793,4.9241,4.9232,4.8808,4.8656,4.8876,2.286,2.4453,2.636,2.6399,2.7962,2.952,2.952,2.9838,3.0137,3.0176,3.0845,3.1469,3.1489,3.2187,3.2891,3.3304,3.3769,3.4372,3.5234,3.5371,3.5527,3.594,3.5979,3.5979,3.5979,3.5999,3.5999,3.5999,3.5999,3.5999,3.5999,3.6426,3.6695,3.6695,3.7068,3.7266,3.7285,3.7285,3.7285,3.7305,3.7697,3.7892,3.7892,3.834,3.8553,3.8553,3.8573,3.8573,3.8573,3.8592,3.8592,3.8592,3.8592,3.8592,3.8611,3.8573,3.8553,3.8553,3.8553,3.8553,3.8553,3.8573,4.0155,4.2072,4.209,4.3729,4.5942,4.7769,4.8333,4.882,5.0704,5.1206,5.1222,5.1272,5.1289,5.144,5.1975,5.2076,5.2076,5.2076,5.2076,5.19,5.1364,5.0795,5.0402,5.0377,4.9941,4.959,4.959,4.9154,4.8818,4.8818,4.8818,4.9028,4.9556,4.9606,4.9581,4.9581,4.9581,4.9565,4.954,4.9565,4.9355,4.8818,5.0857,5.0888,4.8793,5.0363,5.1118,5.1087,5.0507,5.1359,2.4844,2.6145,2.7467,2.8308,2.9272,2.9995,2.9995,3.0346,3.0742,3.1001,3.084,3.0918,3.1812,3.2203,3.2613,3.3285,3.4277,3.5059,3.5351,3.5625,3.5842,3.5979,3.5999,3.5999,3.5999,3.5999,3.5999,3.5999,3.5999,3.6152,3.6462,3.6619,3.6814,3.7088,3.7226,3.7422,3.7697,3.7697,3.7834,3.8162,3.8299,3.8359,3.8359,3.8534,3.8592,3.8592,3.8592,3.8592,3.8612,3.8905,3.8984,3.9042,3.9336,3.9453,3.962,4.0908,4.14,4.1159,3.9541,4.0043,4.14,4.14,4.2803,4.4524,4.4524,4.5945,4.7695,4.8323,4.9664,5.1047,5.1673,5.2101,5.236,5.236,5.236,5.231,5.2151,5.2101,5.2,5.1641,5.1565,5.1373,5.0795,5.0528,5.0277,4.9916,4.9715,4.959,4.959,4.9455,4.933,4.933,4.933,4.9405,4.9565,4.928,4.9079,4.9079,4.9079,4.8903,4.8485,4.9188,4.9531,4.933,5.1085,5.1804,5.1475,5.27,5.331,5.3337,5.3531,5.3994,2.638,2.7474,2.8392,2.9526,3.0131,3.0488,3.0625,3.0898,3.123,3.166,3.1055,3.0776,3.1773,3.2101,3.2433,3.3086,3.4434,3.5391,3.5391,3.5762,3.5999,3.5999,3.5999,3.5999,3.5999,3.6135,3.625,3.625,3.625,3.6445,3.6892,3.7049,3.7246,3.7519,3.7676,3.7891,3.8164,3.8164,3.8301,3.8592,3.8592,3.8592,3.8592,3.8749,3.8807,3.8827,3.9003,3.9061,3.9081,3.9336,3.9453,3.9473,3.9785,3.9785,3.9797,4.1056,4.1933,4.2423,4.1749,4.2529,4.3853,4.3853,4.527,4.7007,4.7007,4.8431,5.0066,5.0066,5.1183,5.2385,5.2385,5.2636,5.2845,5.2661,5.2611,5.246,5.1925,5.18,5.1699,5.1364,5.1289,5.1188,5.0795,5.072,5.0544,4.9967,4.9891,4.9816,4.9615,4.959,4.959,4.959,4.959,4.959,4.959,4.928,4.9079,4.9079,4.9079,4.8903,4.8535,4.9213,4.959,4.959,5.1725,5.2734,5.2527,5.4579,5.5591,5.5591,5.621,5.6831,2.7304,2.8373,2.9205,3.0059,3.0586,3.1035,3.143,3.1548,3.1626,3.2007,3.1401,3.0898,3.1235,3.1773,3.2276,3.2656,3.4238,3.543,3.543,3.5745,3.5999,3.5999,3.6018,3.6038,3.6038,3.6462,3.6753,3.6773,3.6736,3.6912,3.7305,3.7697,3.7912,3.7951,3.8359,3.8592,3.8592,3.8592,3.8592,3.8592,3.8612,3.8631,3.8631,3.9043,3.9238,3.9258,3.9707,3.9902,3.9902,3.9922,3.9922,3.9921,4.0035,3.9778,3.9385,3.9589,4.0797,4.266,4.5123,4.5917,4.5828,4.5851,4.7463,4.9414,4.9438,5.103,5.2837,5.287,5.287,5.2887,5.2895,5.2887,5.2737,5.2226,5.2101,5.195,5.1414,5.1314,5.1339,5.1314,5.1289,5.1289,5.1289,5.1289,5.1113,5.0528,5.0452,5.0226,4.9665,4.959,4.959,4.959,4.959,4.959,4.959,4.959,4.959,4.959,4.959,4.9638,4.9719,4.9719,4.9767,4.9889,5.2967,5.3829,5.2362,5.6062,5.7873,5.7902,5.8567,5.9682,2.8398,2.9473,3.0527,3.104,3.1255,3.1465,3.191,3.2027,3.1773,3.0893,3.0019,2.9258,2.8764,3.0073,3.1362,3.1777,3.4085,3.5842,3.5842,3.594,3.5999,3.5999,3.6309,3.6521,3.6521,3.6912,3.7266,3.756,3.7324,3.7324,3.7716,3.7853,3.8048,3.8416,3.8534,3.8592,3.8592,3.8592,3.8592,3.8592,3.8887,3.9043,3.9062,3.9512,3.9726,3.9726,3.9844,3.9902,3.9922,4.0215,4.0157,4.0073,4.1757,4.2132,4.2087,4.4923,4.628,4.7005,4.9128,4.8896,4.7707,4.8082,4.939,5.0867,5.1264,5.1545,5.1875,5.2686,5.2611,5.2385,5.2812,5.2611,5.2277,5.2126,5.2101,5.195,5.1414,5.1599,5.1774,5.1389,5.1289,5.1289,5.1289,5.1289,5.1239,5.1071,5.1071,5.0695,4.9715,4.959,4.959,4.959,4.959,4.959,4.959,4.959,4.959,4.959,4.959,5.0158,5.1346,5.1393,5.2158,5.3808,5.5839,5.6888,5.7003,5.9158,6.0244,6.0244,6.0911,6.1437,2.957,3.0332,3.0996,3.1391,3.1508,3.1469,3.1343,3.1323,3.0952,2.9643,2.8535,2.7715,2.7454,2.9154,3.0664,3.0884,3.3773,3.594,3.5745,3.5881,3.6077,3.6289,3.6541,3.6756,3.6951,3.7324,3.7658,3.7892,3.7697,3.7754,3.8184,3.8203,3.832,3.8592,3.8592,3.8592,3.8592,3.8768,3.8866,3.8866,3.9297,3.9512,3.9512,3.9961,4.0176,4.0157,4.0371,4.0468,4.0488,4.0703,4.0664,4.0564,4.1647,4.2299,4.2833,4.4808,4.6444,4.7844,4.9238,4.9349,4.9,4.9796,5.0632,5.1364,5.1649,5.154,5.1465,5.231,5.2335,5.2226,5.2744,5.2686,5.2385,5.2176,5.2101,5.195,5.1414,5.154,5.1724,5.1649,5.185,5.2,5.2,5.2,5.1925,5.1691,5.1649,5.1339,5.046,5.036,5.036,5.036,5.036,5.036,5.036,5.036,5.036,5.036,5.036,5.108,5.2712,5.279,5.3719,5.569,5.7301,5.8335,5.8695,6.0606,6.1553,6.1553,6.2225,6.2555,3.0586,3.0913,3.0996,3.1484,3.1587,3.1352,3.0488,3.0234,2.9746,2.8197,2.7005,2.625,2.6374,2.8301,2.9922,3.0078,3.3281,3.5703,3.5508,3.5784,3.6155,3.6638,3.6753,3.6931,3.7344,3.7736,3.799,3.799,3.799,3.8184,3.8573,3.8592,3.8592,3.8592,3.8592,3.8631,3.8671,3.9042,3.9238,3.9297,3.9766,3.998,4.0,4.041,4.0586,4.0606,4.1035,4.1366,4.1579,4.1579,4.152,4.142,4.15,4.2045,4.2825,4.3021,4.4871,4.7363,4.7981,4.8893,4.9992,5.0987,5.1239,5.1214,5.1364,5.1364,5.144,5.2051,5.2134,5.2226,5.2744,5.2862,5.2686,5.2209,5.2101,5.1975,5.1515,5.1465,5.1649,5.2126,5.2586,5.2895,5.2895,5.2895,5.2737,5.2277,5.2226,5.2051,5.1565,5.1389,5.1289,5.1289,5.1289,5.1289,5.1289,5.1505,5.1629,5.1629,5.1844,5.2718,5.4377,5.4456,5.5298,5.7055,5.8443,5.9204,5.9306,6.1283,6.2241,6.2241,6.2824,6.3108,3.0835,3.0913,3.1089,3.187,3.2081,3.1851,3.0991,3.0469,2.935,2.6275,2.5473,2.4906,2.3524,2.595,2.8484,2.954,3.2359,3.4782,3.5745,3.5959,3.6155,3.6638,3.699,3.7344,3.7756,3.8203,3.8475,3.8475,3.8475,3.8514,3.8611,3.8592,3.8592,3.8592,3.8592,3.8768,3.9082,3.916,3.9394,3.9785,4.0215,4.0391,4.041,4.0859,4.1074,4.1094,4.1152,4.21,4.3606,4.3606,4.3169,4.2816,4.5778,4.5667,4.4246,4.7673,4.9306,4.9859,5.0464,5.0814,5.1038,5.1239,5.0971,5.0728,5.1674,5.1649,5.1498,5.2485,5.2435,5.2226,5.2744,5.2561,5.2226,5.2126,5.2101,5.2076,5.1975,5.231,5.2661,5.2737,5.2837,5.2895,5.2895,5.2895,5.2887,5.2787,5.2744,5.2737,5.2636,5.185,5.1289,5.1289,5.1289,5.1289,5.1289,5.2572,5.3378,5.3378,5.4676,5.6154,5.7782,5.7856,5.8882,6.1037,6.1383,6.178,6.2344,6.2739,6.2928,6.2928,6.3048,6.3108,3.0913,3.1055,3.1367,3.2027,3.2515,3.2246,3.0053,2.9375,2.8164,2.4504,2.3742,2.3496,2.2645,2.4992,2.737,2.8445,3.1319,3.3805,3.4863,3.5781,3.6541,3.697,3.7363,3.7775,3.8223,3.8475,3.8592,3.8592,3.8592,3.8592,3.8592,3.8592,3.869,3.8905,3.8925,3.9121,3.9551,3.9766,3.9981,4.0234,4.0664,4.0859,4.0859,4.1094,4.1191,4.1269,4.2273,4.2656,4.2751,4.4771,4.4754,4.3698,4.6005,4.6646,4.65,4.8329,4.9595,5.0477,5.1071,5.1289,5.1339,5.1641,5.1322,5.0971,5.1515,5.1498,5.1465,5.226,5.2285,5.2226,5.2744,5.2711,5.2511,5.2511,5.2511,5.2511,5.2511,5.2711,5.2895,5.2895,5.2895,5.2895,5.2895,5.2895,5.2895,5.2895,5.2895,5.2895,5.2895,5.246,5.2126,5.2126,5.2126,5.2126,5.2126,5.2884,5.3704,5.4585,5.5398,5.6984,5.9542,5.9646,6.0589,6.2586,6.2614,6.2764,6.3108,6.3108,6.3108,6.3108,6.3422,6.3572,3.0937,3.1328,3.1777,3.232,3.3008,3.2641,2.9219,2.8295,2.7063,2.3173,2.2372,2.2372,2.2372,2.4336,2.634,2.7506,3.017,3.2574,3.3903,3.5427,3.6638,3.7226,3.7658,3.8068,3.8553,3.8592,3.8592,3.8592,3.8671,3.8729,3.8729,3.8729,3.8925,3.9336,3.9355,3.957,4.0019,4.0332,4.0547,4.0645,4.1035,4.1191,4.1191,4.1191,4.1444,4.1907,4.3435,4.372,4.3323,4.6389,4.6624,4.5165,4.648,4.7481,4.8219,4.8529,4.9532,5.0854,5.1448,5.1624,5.1699,5.2126,5.19,5.149,5.1615,5.1624,5.1724,5.2134,5.2277,5.236,5.2787,5.2895,5.2895,5.2895,5.2895,5.2895,5.2895,5.2895,5.2895,5.2895,5.2895,5.2895,5.2895,5.2895,5.2895,5.2895,5.2895,5.2895,5.2895,5.2895,5.3025,5.3393,5.311,5.3042,5.341,5.3776,5.4718,5.6391,5.6844,5.8233,6.0945,6.105,6.1703,6.3079,6.3108,6.3153,6.3273,6.3273,6.3363,6.3512,6.4006,6.4216,3.1118,3.1777,3.232,3.309,3.3672,3.3121,2.9634,2.8275,2.6646,2.2756,2.1963,2.1963,2.1963,2.3398,2.5273,2.735,2.8933,3.0888,3.3704,3.4919,3.5957,3.7148,3.7658,3.8068,3.8553,3.8592,3.8592,3.8592,3.8944,3.9141,3.9141,3.9141,3.9355,3.9824,3.9824,4.0039,4.045,4.0489,4.0703,4.1133,4.1172,4.1191,4.1191,4.1191,4.2157,4.3832,4.4021,4.6035,4.923,4.9587,4.9074,4.834,5.0629,4.9976,4.8092,5.0715,5.1815,5.2026,5.2561,5.2744,5.2744,5.2795,5.246,5.2126,5.2611,5.2744,5.2744,5.2795,5.2837,5.2837,5.2887,5.2895,5.2895,5.2895,5.2895,5.2895,5.2895,5.2895,5.2895,5.2895,5.2895,5.2895,5.2895,5.2895,5.2895,5.2895,5.2895,5.2895,5.2895,5.2895,5.3495,5.5015,5.381,5.3529,5.5049,5.6629,5.8245,5.9919,6.1525,6.2526,6.2846,6.2861,6.2933,6.3108,6.3108,6.3363,6.3917,6.3917,6.4246,6.4829,6.4874,6.4904,3.1499,3.2402,3.3008,3.3324,3.3359,3.2539,2.9576,2.7656,2.5618,2.2541,2.168,2.1552,2.1846,2.2637,2.3887,2.5825,2.72,2.8711,3.0684,3.2832,3.459,3.5605,3.6797,3.7812,3.8534,3.8592,3.869,3.8926,3.9101,3.9434,3.9942,3.9746,3.9824,4.0235,4.0254,4.0469,4.0937,4.0918,4.1015,4.1191,4.1191,4.1191,4.125,4.2406,4.3359,4.4247,4.6625,4.7849,4.8402,5.1101,5.1305,5.009,5.2221,5.2149,5.0974,5.2154,5.2385,5.2176,5.2694,5.2895,5.2895,5.2895,5.2762,5.2611,5.2837,5.2895,5.2895,5.2895,5.2895,5.2895,5.2895,5.2895,5.2895,5.2895,5.2895,5.2895,5.2895,5.2895,5.2895,5.2895,5.2895,5.2895,5.2895,5.2895,5.2895,5.2895,5.2895,5.2895,5.2895,5.2895,5.3521,5.5231,5.4782,5.5082,5.6839,5.7608,5.8728,6.0389,6.1169,6.1998,6.3064,6.3108,6.3273,6.3617,6.3632,6.3947,6.459,6.459,6.4725,6.5024,6.5428,6.5607,3.1338,3.2691,3.3652,3.3754,3.3301,3.2148,2.9668,2.7259,2.4836,2.2393,2.1533,2.1337,2.1807,2.2227,2.3066,2.482,2.5957,2.724,2.9035,3.1352,3.3246,3.4375,3.5703,3.6931,3.7928,3.8475,3.8964,3.9375,3.9531,3.9903,4.0684,4.043,4.041,4.0703,4.0723,4.0859,4.1211,4.1191,4.1191,4.1191,4.1191,4.1502,4.208,4.2884,4.4191,4.5961,4.8158,4.8974,4.9002,5.2323,5.2787,5.158,5.31,5.3364,5.2895,5.2895,5.2661,5.2385,5.2787,5.2895,5.2895,5.2895,5.2895,5.2895,5.2895,5.2895,5.2895,5.2895,5.2895,5.2895,5.2895,5.2895,5.2895,5.2895,5.2895,5.2895,5.2895,5.2895,5.2895,5.2895,5.2895,5.2895,5.2895,5.2895,5.2895,5.2895,5.2895,5.2895,5.2895,5.2895,5.3742,5.5929,5.6174,5.686,5.8575,5.8731,5.9472,6.1169,6.1273,6.1895,6.3319,6.3363,6.3662,6.4291,6.4291,6.462,6.5293,6.5293,6.5398,6.5607,6.6071,6.6311,3.0444,3.2476,3.4192,3.4606,3.373,3.2242,3.0087,2.7265,2.4507,2.2335,2.1533,2.1337,2.1807,2.2227,2.3066,2.482,2.5449,2.6759,2.9762,3.0947,3.2168,3.3899,3.4469,3.5234,3.6597,3.8203,3.9394,3.9863,4.0254,4.0684,4.1172,4.1191,4.1191,4.1191,4.1191,4.1211,4.1191,4.1191,4.1191,4.1191,4.1191,4.2215,4.4002,4.21,4.4417,4.9819,4.789,4.9248,5.2868,5.3464,5.3389,5.2928,5.349,5.3364,5.2895,5.2895,5.2895,5.2895,5.2895,5.2895,5.2895,5.2895,5.2895,5.2895,5.2895,5.2895,5.2895,5.2895,5.2895,5.2895,5.2895,5.2895,5.2895,5.2895,5.2895,5.2895,5.2895,5.2895,5.2895,5.2895,5.2895,5.2895,5.2895,5.2895,5.2895,5.2895,5.2895,5.2895,5.2895,5.2895,5.419,5.7608,5.7973,5.8637,6.0328,6.0465,6.1228,6.2948,6.3079,6.3348,6.3977,6.3977,6.4291,6.4964,6.4994,6.5338,6.5996,6.5996,6.634,6.6984,6.6984,6.6984,2.8652,3.0053,3.0986,3.0767,2.9771,2.8502,2.7233,2.5047,2.2969,2.1679,2.1084,2.0928,2.1327,2.1797,2.2745,2.4769,2.5437,2.6459,2.86,3.0678,3.2398,3.3496,3.5837,3.7635,3.834,3.8887,3.9512,4.0254,4.043,4.0684,4.1172,4.1191,4.1191,4.1191,4.2483,4.2541,4.1211,4.2522,4.3169,4.3169,4.3169,4.4209,4.6109,4.6886,4.8235,5.0056,5.1132,5.2281,5.3532,5.4461,5.4554,5.4152,5.5064,5.4594,5.3507,5.3909,5.3582,5.2895,5.2895,5.2895,5.2895,5.2895,5.2895,5.2895,5.2895,5.2895,5.2895,5.2895,5.2895,5.2895,5.2895,5.2895,5.2895,5.2895,5.2895,5.2895,5.2895,5.2895,5.2895,5.2895,5.2895,5.2895,5.2895,5.2895,5.2895,5.2895,5.2895,5.3308,5.4467,5.4608,5.5929,5.9336,5.9718,6.0418,6.2145,6.2277,6.2689,6.3648,6.3722,6.4006,6.465,6.4665,6.5009,6.5667,6.5697,6.5996,6.667,6.667,6.6789,6.7014,6.7014,6.7014,2.6667,2.8301,2.9272,2.8971,2.7819,2.6589,2.5862,2.3923,2.2079,2.1356,2.0879,2.0723,2.1132,2.1572,2.2443,2.4116,2.4844,2.6062,2.8451,3.0327,3.2046,3.3695,3.6387,3.8221,3.8457,3.9219,3.9903,4.0469,4.0664,4.0879,4.1172,4.1191,4.1191,4.1191,4.2388,4.2406,4.1211,4.3132,4.4115,4.4115,4.4846,4.6219,4.8162,4.865,4.9789,5.1437,5.2238,5.3151,0.0,5.5031,5.5207,5.4956,5.539,5.4956,5.4027,5.3976,5.3507,5.2895,5.2895,5.2895,5.2895,5.2895,5.2895,5.2895,5.2895,5.2895,5.2895,5.2895,5.2895,5.2895,5.2895,5.2895,5.2895,5.2895,5.2895,5.2895,5.2895,5.2895,5.2895,5.2895,5.2895,5.2895,5.2895,5.2895,5.2895,5.2895,5.3444,5.4215,5.5254,5.6197,5.7814,6.0566,6.1086,6.1957,6.3665,6.3572,6.3722,6.4336,6.4381,6.468,6.5368,6.5398,6.5697,6.637,6.637,6.658,6.7014,6.7014,6.7014,6.7014,6.7014,6.7014,0.0,2.6811,2.8391,2.8352,2.7207,2.5957,2.5484,2.3544,0.0,2.1239,2.0859,2.0742,2.121,2.1641,2.2217,2.3216,2.4074,2.5769,2.9207,3.0249,3.1738,3.4629,3.6426,3.7441,3.748,3.9298,4.0566,4.0738,4.1034,4.1269,4.1405,4.1288,4.1269,4.1385,4.1405,4.1405,4.1405,4.3321,4.4377,4.4546,4.6349,4.8271,5.0145,4.8294,4.9751,5.3603,5.1889,5.2456,5.4697,5.5232,5.5433,5.5358,5.4881,5.4647,5.4421,5.3439,5.2995,5.2895,5.2945,5.292,5.2895,5.2895,5.2895,5.2895,5.2895,5.2895,5.2895,5.2895,5.2895,5.2895,5.2895,5.2895,5.2895,5.2895,5.2895,5.2895,5.2895,5.2895,5.2895,5.2895,5.2895,5.2895,5.2895,5.2895,5.2895,5.2945,5.4384,5.5532,5.5673,5.7792,5.9897,6.1576,6.2296,6.3318,6.4935,6.447,6.4351,6.5024,6.5084,6.5353,6.6026,6.6056,6.637,6.6984,6.7014,6.7014,6.7014,6.7014,6.7014,6.7014,6.7014,6.7014,2.0957,0.0,2.3457,2.3103,2.2977,2.2832,0.0,2.1785,2.1259,2.084,2.0674,2.0928,2.2001,2.2031,2.2608,2.4762,2.5828,2.737,3.021,3.3238,3.5798,3.7479,3.8319,3.8887,3.9258,4.002,4.1276,4.3117,4.1983,4.1849,4.334,4.2023,4.1888,4.3359,4.3416,4.3416,4.3416,4.5351,4.7084,4.8632,4.9081,5.0322,5.2231,5.214,5.271,5.3723,5.4142,5.4644,5.5257,5.5792,5.5767,5.5433,5.5717,5.5039,5.3984,5.4587,5.3992,5.2945,5.3364,5.3239,5.2895,5.2895,5.2895,5.2895,5.2895,5.2895,5.2895,5.2895,5.2895,5.2895,5.2895,5.2895,5.2895,5.2895,5.2895,5.2895,5.2895,5.2895,5.2895,5.2895,5.2895,5.2895,5.2895,5.2895,5.3038,5.3439,5.502,5.6777,5.8538,6.0462,6.2332,6.3993,6.4307,6.4799,6.5697,6.5159,6.5039,6.5727,6.5757,6.6071,6.6729,6.6759,6.6819,6.7014,6.7014,6.7014,6.7014,6.7014,6.7014,6.7014,6.7014,6.7014,1.8975,2.0557,2.2099,2.1854,2.2148,2.2374,2.1893,2.1493,2.1093,2.0684,2.0742,2.1094,2.1776,2.3027,2.4199,2.4976,2.7318,2.9908,3.2305,3.589,3.8342,3.8564,3.9873,4.0598,4.0212,4.1367,4.2316,4.275,4.2617,4.2598,4.2771,4.2617,4.3018,4.4077,4.4977,4.5444,4.5444,4.7376,4.892,4.9997,5.0893,5.1869,5.2937,5.3457,5.3858,5.4177,5.5031,5.5559,5.5792,5.6093,5.6043,5.5742,5.5541,5.4906,5.411,5.421,5.3665,5.2945,5.3239,5.3138,5.2895,5.2895,5.2895,5.2895,5.2895,5.2895,5.2895,5.2895,5.2895,5.2895,5.2895,5.2895,5.2895,5.2895,5.2895,5.2895,5.2895,5.2895,5.2895,5.2895,5.3113,5.3264,5.3264,5.3507,5.3783,5.4077,5.6306,5.84,5.9631,6.231,6.4446,6.5368,6.5727,6.6056,6.643,6.6131,6.6056,6.643,6.646,6.661,6.6969,6.7014,6.7014,6.7014,6.7014,6.7014,6.7014,6.7014,6.7014,6.7014,6.7014,6.7014,1.8312,2.0557,2.2685,2.2216,2.2608,2.2971,2.2519,2.1835,2.122,2.0869,2.1074,2.1503,2.2078,2.4324,2.5937,2.5476,2.9236,3.2861,3.4737,3.8099,3.9984,3.8829,4.0835,4.1932,4.1021,4.2581,4.3228,4.2177,4.3056,4.3209,4.2138,4.3359,4.4377,4.4977,4.6588,4.7595,4.7908,4.932,5.0162,5.0463,5.2119,5.2945,5.3038,5.3582,5.4177,5.4748,5.5282,5.5792,5.62,5.62,5.62,5.61,5.5207,5.4748,5.4496,5.3607,5.3113,5.2895,5.2895,5.2895,5.2895,5.2895,5.2895,5.2895,5.2895,5.2895,5.2895,5.2895,5.2895,5.2895,5.2895,5.2895,5.2895,5.2895,5.2895,5.2895,5.2895,5.2945,5.302,5.302,5.3439,5.3833,5.3833,5.4253,5.4728,5.5087,5.787,6.008,6.0424,6.3799,6.6161,6.6161,6.667,6.7014,6.7014,6.7014,6.7014,6.7014,6.7014,6.7014,6.7014,6.7014,6.7014,6.7014,6.7014,6.7014,6.7014,6.7014,6.7014,6.7014,6.7014,6.7014,1.9804,2.2109,2.3504,2.0947,2.1455,2.25,2.21,2.1885,2.1788,2.1709,2.1748,2.2804,2.6099,2.5605,2.5847,2.935,3.3041,3.5696,3.631,3.9455,4.1052,3.9322,4.0108,4.1379,4.2807,4.2163,4.2885,4.589,4.3342,4.2962,4.5964,4.4827,4.5627,4.8992,4.9391,5.0322,5.1998,5.0681,5.084,5.2473,5.2774,5.3138,5.3607,5.4202,5.4755,5.5308,5.5842,5.61,5.62,5.62,5.62,5.6175,5.6018,5.5408,5.4647,5.4906,5.4135,5.2895,5.2895,5.2895,5.2895,5.2895,5.2895,5.2895,5.2895,5.2895,5.2895,5.2895,5.2895,5.2895,5.2895,5.2895,5.2895,5.2895,5.2895,5.2895,5.2895,5.3264,5.3582,5.3582,5.4052,5.4454,5.4454,5.4547,5.5271,5.7268,5.9322,6.1349,6.3345,6.5496,6.6849,6.6849,6.6954,6.7014,6.7014,6.7014,6.7014,6.7014,6.7014,6.7014,6.7014,6.7014,6.7014,6.7014,6.7014,6.7014,6.7014,6.7014,6.7014,6.7014,6.7014,6.7014,1.8974,2.0898,2.2615,2.2381,2.4508,2.6615,2.6426,2.6216,2.5793,2.4844,2.4855,2.5571,2.7382,2.8197,3.0034,3.4352,3.5458,3.614,3.7193,3.9642,4.0781,3.9381,4.179,4.3639,4.3758,4.4121,4.4642,4.5388,4.4755,4.4661,4.5406,4.5593,4.6496,4.8325,4.9445,5.0428,5.1321,5.1478,5.2032,5.2895,5.3188,5.3439,5.3733,5.4629,5.5157,5.5433,5.5968,5.62,5.62,5.62,5.62,5.615,5.5892,5.5282,5.4572,5.4185,5.3741,5.3289,5.3013,5.2895,5.2895,5.2895,5.2895,5.2895,5.2895,5.3113,5.3264,5.2988,5.3113,5.3339,5.3339,5.3339,5.3414,5.3733,5.3582,5.3414,5.3758,5.4027,5.4177,5.4177,5.4629,5.5345,5.631,5.6743,5.7634,5.9668,6.1531,6.3082,6.4156,6.5888,6.7014,6.7014,6.7014,6.7014,6.7014,6.7014,6.7014,6.7014,6.7014,6.7014,6.7014,6.7014,6.7014,6.7014,6.7014,6.7014,6.7014,6.7014,6.7014,6.7014,6.7014,6.7014,1.88,2.0332,2.2303,2.4363,2.6804,2.8996,3.0117,2.9662,2.8783,2.8053,2.8197,2.8542,2.8836,3.1123,3.4141,3.7758,3.7311,3.6995,3.8491,4.0115,4.0859,4.0124,4.3388,4.5658,4.5512,4.5979,4.5886,4.4865,4.5738,4.5868,4.4827,4.6625,4.7904,4.8379,4.9872,5.0699,5.0699,5.2295,5.3088,5.3088,5.349,5.3833,5.4135,5.4988,5.5465,5.5591,5.6018,5.62,5.62,5.62,5.62,5.615,5.5742,5.5257,5.4655,5.349,5.3339,5.3632,5.3088,5.2895,5.2895,5.2895,5.2895,5.292,5.3063,5.3364,5.3658,5.3364,5.3683,5.4034,5.3758,5.3808,5.4027,5.4496,5.4253,5.4052,5.4496,5.4697,5.4798,5.4798,5.5558,5.668,5.8061,5.8995,6.0161,6.1947,6.3411,6.447,6.487,6.6137,6.7014,6.7014,6.7014,6.7014,6.7014,6.7014,6.7014,6.7014,6.7014,6.7014,6.7014,6.7014,6.7014,6.7014,6.7014,6.7014,6.7014,6.7014,6.7014,6.7014,6.7014,6.7014,2.1182,2.2589,2.4035,2.5813,2.5246,2.5422,2.9824,2.8945,2.7838,3.0137,3.0659,3.103,3.2222,3.3926,3.5693,3.7318,3.8812,4.0051,4.0929,4.1874,4.2476,4.2541,4.3562,4.5661,4.9224,4.6385,4.4996,4.6662,4.5257,4.5033,4.6698,4.8686,5.0604,5.2439,5.2611,5.268,5.268,5.3337,5.3658,5.3658,5.3683,5.426,5.5282,5.534,5.5666,5.6125,5.6175,5.62,5.62,5.62,5.62,5.62,5.615,5.5817,5.5189,5.4059,5.3658,5.3632,5.3088,5.2895,5.2895,5.2895,5.2895,5.2988,5.349,5.3683,5.3808,5.4328,5.4856,5.5013,5.3959,5.4127,5.4547,5.4597,5.4572,5.4547,5.4597,5.4981,5.5358,5.5358,5.7118,5.8692,5.8815,6.0289,6.2014,6.3846,6.4217,6.4901,6.657,6.6908,6.7014,6.7014,6.7014,6.7014,6.7014,6.7014,6.7014,6.7014,6.7014,6.7014,6.7014,6.7014,6.7014,6.7014,6.7014,6.7014,6.7014,6.7014,6.7014,6.7014,6.7014,6.7014,2.0107,2.2198,2.4394,2.5344,2.6282,2.8008,3.1988,3.2734,3.2719,3.3164,3.3512,3.3594,3.3242,3.6192,3.8313,3.7196,4.0138,4.1976,4.025,4.2584,4.4163,4.3331,4.5915,4.8361,4.9855,4.865,4.8067,4.8812,4.8176,4.8085,4.883,4.8397,4.9027,5.1016,4.9872,4.9985,5.1596,5.2981,5.4059,5.478,5.478,5.4963,5.5408,5.5742,5.6018,5.62,5.62,5.62,5.62,5.62,5.62,5.615,5.5842,5.5566,5.5239,5.411,5.3708,5.3632,5.3088,5.2895,5.2945,5.3289,5.3389,5.3507,5.4077,5.4504,5.4755,5.4647,5.5232,5.5717,5.4956,5.4931,5.5182,5.5534,5.5358,5.5182,5.5516,5.6645,5.7584,5.7584,5.9198,6.0937,6.2047,6.2838,6.3894,6.5702,6.5981,6.6215,6.6892,6.7014,6.7014,6.7014,6.7014,6.7014,6.7014,6.7014,6.7014,6.7014,6.7014,6.7014,6.7014,6.7014,6.7014,6.7014,6.7014,6.7014,6.7014,6.7014,6.7014,6.7014,6.7014,6.7014,2.0898,2.2734,2.4934,2.6197,2.763,2.9687,3.3434,3.4648,3.5176,3.5801,3.5742,3.5312,3.4398,3.7439,3.9549,3.7837,4.0738,4.2484,4.0387,4.2744,4.4644,4.443,4.7715,5.0251,5.0857,5.0357,4.9997,4.9997,4.9997,4.9997,4.9997,4.9284,4.9569,5.1135,4.9841,5.0023,5.1987,5.3492,5.4612,5.5408,5.5566,5.5641,5.5666,5.6043,5.62,5.62,5.62,5.62,5.62,5.62,5.62,5.615,5.5792,5.5541,5.5282,5.4328,5.3858,5.3658,5.3289,5.3163,5.3239,5.3808,5.3984,5.4102,5.4697,5.5107,5.5358,5.5157,5.5616,5.6118,5.5742,5.5641,5.5742,5.61,5.5917,5.5923,5.6848,5.8037,5.906,5.9626,6.1208,6.2854,6.4088,6.4774,6.5576,6.68,6.7014,6.7014,6.7014,6.7014,6.7014,6.7014,6.7014,6.7014,6.7014,6.7014,6.7014,6.7014,6.7014,6.7014,6.7014,6.7014,6.7014,6.7014,6.7014,6.7014,6.7014,6.7014,6.7014,6.7014,6.7014,6.7014,2.4352,2.4727,2.5857,2.8816,2.8973,2.9492,3.373,3.373,3.3942,3.7791,3.7207,3.5999,3.6016,3.7575,3.8976,3.9357,4.0514,4.1532,4.1976,4.2511,4.3738,4.6141,4.8563,5.0787,5.2698,5.1163,5.0014,5.0014,5.0014,5.0014,5.0014,5.1834,5.3146,5.3683,5.369,5.3966,5.4597,5.5132,5.5408,5.539,5.5942,5.62,5.62,5.62,5.62,5.62,5.62,5.62,5.62,5.62,5.62,5.62,5.62,5.5867,5.5333,5.4798,5.4228,5.3708,5.3708,5.3708,5.3808,5.4403,5.4622,5.4723,5.5257,5.5408,5.5516,5.6068,5.62,5.62,5.62,5.6219,5.6237,5.62,5.6219,5.6714,5.8507,5.892,5.947,6.1276,6.31,6.4313,6.4313,6.5796,6.7014,6.7014,6.7014,6.7014,6.7014,6.7014,6.7014,6.7014,6.7014,6.7014,6.7014,6.7014,6.7014,6.7014,6.7014,6.7014,6.7014,6.7014,6.7014,6.7014,6.7014,6.7014,6.7014,6.7014,6.7014,6.7014,6.7014,6.7014,2.1807,2.4699,2.7715,2.7415,3.081,3.4372,3.5039,3.5117,3.5628,3.7695,3.6975,3.6403,3.7738,4.023,4.1949,4.1446,4.3776,4.5397,4.4648,4.6094,4.7662,4.8801,5.0761,5.2258,5.2843,5.2362,5.205,5.205,5.205,5.205,5.205,5.1669,5.2132,5.3655,5.2735,5.3165,5.5139,5.5333,5.5591,5.5949,5.61,5.62,5.62,5.62,5.62,5.62,5.62,5.62,5.62,5.62,5.62,5.62,5.62,5.5867,5.5383,5.5232,5.4805,5.4328,5.4328,5.4328,5.4403,5.4981,5.5157,5.5257,5.5792,5.5968,5.5993,5.6168,5.62,5.62,5.62,5.7141,5.777,5.6503,5.7177,5.8242,5.8763,6.0886,6.2871,6.3395,6.4949,6.6184,6.6184,6.6646,6.7014,6.7014,6.7014,6.7014,6.7014,6.7014,6.7014,6.7014,6.7014,6.7014,6.7014,6.7014,6.7014,6.7014,6.7014,6.7014,6.7014,6.7014,6.7014,6.7014,6.7014,6.7014,6.7014,6.7014,6.7014,6.7014,6.7014,6.7014,2.5422,2.8041,3.0371,3.1069,3.4155,3.7287,3.8318,3.7748,3.7398,3.875,3.7795,3.7551,4.0167,4.2187,4.3343,4.3022,4.489,4.6196,4.5687,4.6996,4.8515,4.9837,5.1729,5.2895,5.2895,5.2895,5.2895,5.2895,5.2895,5.2988,5.3213,5.2414,5.2712,5.4325,5.3546,5.3953,5.5698,5.5717,5.5892,5.62,5.62,5.62,5.62,5.62,5.62,5.62,5.62,5.62,5.62,5.62,5.62,5.62,5.62,5.5867,5.5408,5.5408,5.5056,5.4622,5.4848,5.4906,5.5006,5.5541,5.5717,5.5767,5.61,5.62,5.62,5.62,5.62,5.6358,5.7086,5.8091,5.863,5.7528,5.8666,6.0178,6.0886,6.2772,6.4519,6.5232,6.626,6.7014,6.7014,6.7014,6.7014,6.7014,6.7014,6.7014,6.7014,6.7014,6.7014,6.7014,6.7014,6.7014,6.7014,6.7014,6.7014,6.7014,6.7014,6.7014,6.7014,6.7014,6.7014,6.7014,6.7014,6.7014,6.7014,6.7014,6.7014,6.7014,6.7014,6.7014,3.2081,3.2948,3.336,3.7472,3.8174,3.8814,4.2526,4.1035,3.9196,4.0427,3.9328,3.924,4.2811,4.359,4.3849,4.4334,4.476,4.5232,4.582,4.6392,4.7604,4.9984,5.1816,5.2895,5.2895,5.2895,5.2895,5.2895,5.2895,5.3138,5.3683,5.3758,5.4285,5.5383,5.5458,5.5691,5.6219,5.62,5.62,5.62,5.62,5.62,5.62,5.62,5.62,5.62,5.62,5.62,5.62,5.62,5.62,5.62,5.6251,5.5968,5.5541,5.5609,5.5282,5.4898,5.5383,5.5491,5.5541,5.6043,5.62,5.62,5.62,5.62,5.62,5.62,5.62,5.6605,5.8419,5.9025,5.92,5.9357,6.0631,6.2297,6.3943,6.4438,6.5042,6.6692,6.7014,6.7014,6.7014,6.7014,6.7014,6.7014,6.7014,6.7014,6.7014,6.7014,6.7014,6.7014,6.7014,6.7014,6.7014,6.7014,6.7014,6.7014,6.7014,6.7014,6.7014,6.7014,6.7014,6.7014,6.7014,6.7014,6.7014,6.7014,6.7014,6.7014,6.7014,6.7014,2.8335,3.1377,3.4345,3.7065,3.9122,4.109,4.3397,4.2261,4.069,4.0584,4.0306,4.0881,4.3459,4.511,4.6214,4.6693,4.7185,4.7712,4.8287,4.8838,4.9966,5.2025,5.2646,5.2895,5.2895,5.2895,5.2895,5.2895,5.2895,5.3138,5.3683,5.4152,5.4705,5.5383,5.5817,5.6093,5.62,5.62,5.62,5.62,5.62,5.62,5.62,5.62,5.62,5.62,5.62,5.62,5.62,5.62,5.62,5.6226,5.6677,5.6778,5.6702,5.7198,5.6997,5.6502,5.6627,5.6376,5.6068,5.615,5.62,5.62,5.62,5.62,5.62,5.62,5.62,5.6605,5.8419,5.9954,6.1377,6.2805,6.3427,6.3846,6.4217,6.5405,6.6524,6.6908,6.7014,6.7014,6.7014,6.7014,6.7014,6.7014,6.7014,6.7014,6.7014,6.7014,6.7014,6.7014,6.7014,6.7014,6.7014,6.7014,6.7014,6.7014,6.7014,6.7014,6.7014,6.7014,6.7014,6.7014,6.7014,6.7014,6.7014,6.7014,6.7014,6.7014,6.7014,6.7014,2.9372,3.2129,3.4628,3.9458,4.1658,4.3286,4.5782,4.4432,4.2735,4.3076,4.1982,4.2167,4.6023,4.7003,4.7583,4.8707,4.8769,4.9127,5.0356,5.0232,5.0734,5.2663,5.2895,5.2895,5.2895,5.2895,5.2895,5.2895,5.3138,5.3532,5.4102,5.4655,5.5232,5.5767,5.605,5.62,5.62,5.62,5.62,5.62,5.62,5.62,5.62,5.62,5.62,5.62,5.62,5.62,5.62,5.62,5.6351,5.6602,5.6885,5.7179,5.7455,5.7775,5.77,5.743,5.743,5.7054,5.6577,5.6577,5.6401,5.62,5.62,5.62,5.6376,5.7249,5.7492,5.8108,6.0784,6.2181,6.3346,6.5168,6.5592,6.5592,6.5592,6.6338,6.7014,6.7014,6.7014,6.7014,6.7014,6.7014,6.7014,6.7014,6.7014,6.7014,6.7014,6.7014,6.7014,6.7014,6.7014,6.7014,6.7014,6.7014,6.7014,6.7014,6.7014,6.7014,6.7014,6.7014,6.7014,6.7014,6.7014,6.7014,6.7014,6.7014,6.7014,6.7014,6.7014,6.7014,3.0523,3.3144,3.5417,4.2357,4.4401,4.5486,4.8407,4.6829,4.5107,4.6491,4.4108,4.33,4.8216,4.8606,4.8571,4.9834,4.9782,5.0118,5.1529,5.101,5.1086,5.2698,5.2895,5.2895,5.2895,5.2895,5.2937,5.3038,5.3439,5.3984,5.4697,5.5157,5.5641,5.6175,5.62,5.62,5.62,5.62,5.62,5.62,5.62,5.62,5.62,5.62,5.62,5.62,5.62,5.62,5.62,5.6301,5.6602,5.701,5.7211,5.7606,5.8052,5.8152,5.8127,5.8052,5.8052,5.7581,5.701,5.7111,5.6728,5.62,5.6301,5.6276,5.6594,5.8383,5.8885,5.973,6.3362,6.4297,6.4758,6.6554,6.7014,6.7014,6.7014,6.7014,6.7014,6.7014,6.7014,6.7014,6.7014,6.7014,6.7014,6.7014,6.7014,6.7014,6.7014,6.7014,6.7014,6.7014,6.7014,6.7014,6.7014,6.7014,6.7014,6.7014,6.7014,6.7014,6.7014,6.7014,6.7014,6.7014,6.7014,6.7014,6.7014,6.7014,6.7014,6.7014,6.7014,6.7014,2.5625,3.1895,3.8627,4.3012,4.5667,4.7748,4.9734,4.8652,4.7714,4.9446,4.6587,4.4419,4.6756,4.873,4.9727,4.8738,5.0347,5.1365,5.0401,5.1576,5.2611,5.2878,5.2895,5.2895,5.2895,5.2895,5.3088,5.3557,5.3658,5.416,5.5232,5.5358,5.5641,5.6175,5.62,5.62,5.62,5.62,5.62,5.62,5.62,5.62,5.62,5.62,5.62,5.62,5.62,5.62,5.6226,5.6684,5.6935,5.7085,5.8108,5.8535,5.8635,5.9106,5.9006,5.8585,5.8585,5.7888,5.7085,5.7606,5.7072,5.6276,5.6734,5.6577,5.6594,5.8383,5.8885,5.973,6.3362,6.4297,6.4758,6.6554,6.7014,6.7014,6.7014,6.7014,6.7014,6.7014,6.7014,6.7014,6.7014,6.7014,6.7014,6.7014,6.7014,6.7014,6.7014,6.7014,6.7014,6.7014,6.7014,6.7014,6.7014,6.7014,6.7014,6.7014,6.7014,6.7014,6.7014,6.7014,6.7014,6.7014,6.7014,6.7014,6.7014,6.7014,6.7014,6.7014,6.7014,6.7014,2.5881,3.2274,3.8541,4.2979,4.5901,4.8171,4.9999,4.9226,4.8582,5.0107,4.8119,4.666,4.849,4.9942,5.0805,5.0468,5.1607,5.2337,5.1698,5.2345,5.2895,5.2895,5.2895,5.2895,5.2895,5.3163,5.3457,5.3683,5.4285,5.4863,5.5365,5.5691,5.5968,5.6175,5.62,5.62,5.62,5.62,5.62,5.62,5.62,5.62,5.62,5.62,5.62,5.62,5.62,5.6376,5.6677,5.6885,5.7361,5.7989,5.851,5.8886,5.9182,5.9408,5.9357,5.9156,5.9156,5.861,5.8008,5.8259,5.7581,5.6753,5.733,5.6878,5.6863,5.9974,6.0645,6.1242,6.4854,6.5796,6.6013,6.68,6.7014,6.7014,6.7014,6.7014,6.7014,6.7014,6.7014,6.7014,6.7014,6.7014,6.7014,6.7014,6.7014,6.7014,6.7014,6.7014,6.7014,6.7014,6.7014,6.7014,6.7014,6.7014,6.7014,6.7014,6.7014,6.7014,6.7014,6.7014,6.7014,6.7014,6.7014,6.7014,6.7014,6.7014,6.7014,6.7014,6.7014,6.7014,2.582,3.1063,3.5889,4.1833,4.5364,4.7937,5.0123,4.9995,4.9658,5.0464,4.942,4.8847,5.0347,5.1013,5.149,5.2026,5.2561,5.2895,5.2895,5.2895,5.2895,5.2895,5.2895,5.2895,5.2895,5.3389,5.3758,5.3926,5.4838,5.5458,5.5591,5.5993,5.62,5.62,5.62,5.62,5.62,5.62,5.62,5.62,5.62,5.62,5.62,5.62,5.62,5.62,5.6351,5.6627,5.701,5.7311,5.7914,5.871,5.8836,5.9156,5.9483,5.9483,5.9483,5.9483,5.9483,5.9156,5.8736,5.8861,5.8133,5.7355,5.7926,5.7633,5.7837,6.1392,6.2352,6.3018,6.6168,6.7014,6.7014,6.7014,6.7014,6.7014,6.7014,6.7014,6.7014,6.7014,6.7014,6.7014,6.7014,6.7014,6.7014,6.7014,6.7014,6.7014,6.7014,6.7014,6.7014,6.7014,6.7014,6.7014,6.7014,6.7014,6.7014,6.7014,6.7014,6.7014,6.7014,6.7014,6.7014,6.7014,6.7014,6.7014,6.7014,6.7014,6.7014,6.7014,6.7014,6.7014,2.3124,2.6416,3.0192,3.9061,4.3849,4.7247,5.0519,5.1607,5.1799,5.1348,5.0713,5.0454,5.1122,5.1289,5.149,5.2026,5.2561,5.2895,5.2895,5.2895,5.2895,5.2895,5.2895,5.2895,5.2895,5.3389,5.3951,5.4522,5.5082,5.5616,5.6143,5.6175,5.62,5.62,5.62,5.62,5.62,5.62,5.62,5.62,5.62,5.62,5.62,5.62,5.62,5.6226,5.6753,5.696,5.7085,5.8183,5.866,5.8761,5.9257,5.9483,5.9483,5.9483,5.9483,5.9483,5.9483,5.9156,5.8786,5.9307,5.873,5.7951,5.8485,5.9049,5.9916,6.1873,6.3238,6.4599,6.6508,6.7014,6.7014,6.7014,6.7014,6.7014,6.7014,6.7014,6.7014,6.7014,6.7014,6.7014,6.7014,6.7014,6.7014,6.7014,6.7014,6.7014,6.7014,6.7014,6.7014,6.7014,6.7014,6.7014,6.7014,6.7014,6.7014,6.7014,6.7014,6.7014,6.7014,6.7014,6.7014,6.7014,6.7014,6.7014,6.7014,6.7014,6.7014,6.7014,6.7014,6.7014,2.1282,2.5298,2.9565,3.4784,4.0972,4.6175,4.7732,5.0427,5.246,5.1925,5.1649,5.1574,5.1774,5.154,5.159,5.246,5.2787,5.2895,5.2895,5.2895,5.2895,5.2895,5.2895,5.3038,5.3364,5.3951,5.4504,5.5056,5.5591,5.6018,5.6175,5.62,5.62,5.62,5.62,5.62,5.62,5.62,5.62,5.62,5.62,5.62,5.62,5.62,5.6376,5.6753,5.733,5.76,5.765,5.8384,5.8886,5.9232,5.9433,5.9483,5.9483,5.9483,5.9483,5.9483,5.9483,5.9382,5.9257,5.9433,5.9006,5.875,6.0538,6.0729,6.106,6.4462,6.5512,6.6005,6.7802,6.7972,6.7523,6.7104,6.7014,6.7014,6.7014,6.7014,6.7014,6.7014,6.7014,6.7014,6.7014,6.7014,6.7014,6.7014,6.7014,6.7014,6.7014,6.7014,6.7014,6.7014,6.7014,6.7014,6.7014,6.7014,6.7014,6.7014,6.7014,6.7014,6.7014,6.7014,6.7014,6.7014,6.7014,6.7014,6.7014,6.7014,6.7014,6.7014,6.7014,6.7014,1.9556,2.3069,2.7182,3.1725,3.6945,4.2008,4.594,4.8971,5.118,5.1933,5.2234,5.236,5.236,5.2076,5.2076,5.277,5.2895,5.2895,5.2895,5.2895,5.2895,5.2895,5.2895,5.3113,5.3658,5.4253,5.4805,5.5358,5.5892,5.62,5.62,5.62,5.62,5.62,5.62,5.62,5.62,5.62,5.62,5.62,5.62,5.62,5.62,5.6376,5.6677,5.7035,5.7832,5.8177,5.8227,5.8755,5.9182,5.9483,5.9483,5.9483,5.9483,5.9483,5.9483,5.9483,5.9483,5.9483,5.9483,5.9483,5.9692,6.0255,6.1898,6.2604,6.3429,6.6298,6.7161,6.7464,6.848,6.8211,6.7553,6.7104,6.7014,6.7014,6.7014,6.7014,6.7014,6.7014,6.7014,6.7014,6.7014,6.7014,6.7014,6.7014,6.7014,6.7014,6.7014,6.7014,6.7014,6.7014,6.7014,6.7014,6.7014,6.7014,6.7014,6.7014,6.7014,6.7014,6.7014,6.7014,6.7014,6.7014,6.7014,6.7014,6.7014,6.7014,6.7014,6.7014,6.7014,6.7014,0.0,0.0,0.0,2.9935,3.1853,3.4703,4.5109,4.7189,4.7851,5.1256,5.2385,5.2795,5.2895,5.2937,5.2945,5.2945,5.2937,5.2895,5.2895,5.2895,5.2895,5.2895,5.2895,5.3113,5.3683,5.4253,5.483,5.5383,5.5917,5.62,5.62,5.62,5.62,5.62,5.62,5.62,5.62,5.62,5.62,5.62,5.62,5.62,5.6226,5.6778,5.701,5.7111,5.8234,5.871,5.8761,5.9282,5.9483,5.9483,5.9483,5.9483,5.9483,5.9483,5.9483,5.9483,5.9483,5.9483,5.9502,5.956,6.0843,6.2431,6.2516,6.4703,6.7132,6.7183,6.809,6.8944,6.8465,6.7717,6.7104,6.7014,6.7014,6.7014,6.7014,6.7014,6.7014,6.7014,6.7014,6.7014,6.7014,6.7014,6.7014,6.7014,6.7014,6.7014,6.7014,6.7014,6.7014,6.7014,6.7014,6.7014,6.7014,6.7014,6.7014,6.7014,6.7014,6.7014,6.7014,6.7014,6.7014,6.7014,6.7014,6.7014,6.7014,6.7014,6.7014,6.7014,6.7014,6.7014,1.8313,0.0,0.0,0.0,0.0,0.0,3.6812,4.0136,4.3499,4.7626,4.9264,5.0645,5.3055,5.3833,5.4127,5.4127,5.3457,5.2895,5.2895,5.2895,5.2895,5.2895,5.2895,5.3289,5.4253,5.4496,5.4981,5.5917,5.61,5.62,5.62,5.62,5.62,5.62,5.62,5.62,5.62,5.62,5.62,5.62,5.62,5.6401,5.6784,5.6935,5.7437,5.8259,5.856,5.8911,5.9282,5.9433,5.9483,5.9483,5.9483,5.9483,5.9483,5.9483,5.9483,5.9483,5.9483,5.9483,5.9734,6.1127,6.1966,6.2923,6.5667,6.7135,6.8094,6.9453,7.0098,7.0201,6.9423,6.9542,6.9333,6.7463,6.7014,6.7014,6.7014,6.7014,6.7014,6.7014,6.7014,6.7014,6.7014,6.7014,6.7014,6.7014,6.7014,6.7014,6.7014,6.7014,6.7014,6.7014,6.7014,6.7014,6.7014,6.7014,6.7014,6.7014,6.7014,6.7014,6.7014,6.7014,6.7014,6.7014,6.7014,6.7014,6.7014,6.7014,6.7014,6.7014,6.7014,6.7014,0.0,0.0,0.0,0.0,0.0,0.0,3.5623,3.863,4.1943,4.8228,5.0419,5.1808,5.3725,5.4554,5.4931,5.4931,5.4202,5.3607,5.3607,5.3607,5.3607,5.3607,5.3607,5.4034,5.5157,5.5257,5.5616,5.6477,5.6527,5.6451,5.62,5.62,5.62,5.62,5.62,5.62,5.62,5.62,5.62,5.62,5.6426,5.6702,5.701,5.7487,5.8083,5.8704,5.8956,5.9207,5.9483,5.9483,5.9483,5.9483,5.9483,5.9483,5.9483,5.9483,5.9483,5.9483,5.9483,5.9483,5.983,6.176,6.2915,6.4129,6.718,6.8637,6.9486,7.0596,7.0889,7.0769,7.026,7.053,7.053,6.8974,6.8615,6.8615,6.8615,6.8615,6.8286,6.7224,6.7014,6.7014,6.7014,6.7014,6.7014,6.7014,6.7014,6.7014,6.7014,6.7014,6.7014,6.7014,6.7014,6.7014,6.7014,6.7014,6.7014,6.7014,6.7014,6.7014,6.7014,6.7014,6.7014,6.7014,6.7014,6.7014,6.7014,6.7014,6.7014,6.7014,6.7014,6.7014,0.0,0.0,0.0,0.0,0.0,0.0,3.7192,3.9006,4.0827,4.9022,5.1699,5.2687,5.3064,5.3675,5.4102,5.4027,5.4077,5.4245,5.4572,5.4597,5.4597,5.4597,5.4597,5.5006,5.6,5.615,5.6426,5.696,5.6985,5.6784,5.6301,5.6226,5.62,5.62,5.62,5.62,5.62,5.6251,5.6276,5.6301,5.6853,5.7136,5.7211,5.8259,5.873,5.8818,5.9282,5.9483,5.9483,5.9483,5.9483,5.9483,5.9483,5.9483,5.9483,5.9483,5.9483,5.9483,5.9483,5.9637,6.0131,6.2096,6.3984,6.5886,6.7827,6.9582,7.0889,7.0889,7.0889,7.0889,7.0889,7.0889,7.0889,7.0889,7.0889,7.0889,7.0889,7.0889,7.0141,6.7523,6.7238,6.7328,6.7044,6.7014,6.7014,6.7014,6.7014,6.7014,6.7014,6.7014,6.7014,6.7014,6.7014,6.7014,6.7014,6.7014,6.7014,6.7014,6.7014,6.7014,6.7014,6.7014,6.7014,6.7014,6.7014,6.7014,6.7014,6.7014,6.7014,6.7014,6.7014,6.7014,0.0,0.0,0.0,0.0,0.0,0.0,2.8345,2.9885,3.2154,3.6143,3.8567,4.0753,4.3424,4.5081,4.5924,4.5487,4.8686,5.2,5.4295,5.4597,5.4597,5.4597,5.4597,5.4848,5.5491,5.5942,5.6426,5.696,5.6985,5.6935,5.6835,5.6426,5.62,5.62,5.62,5.62,5.62,5.6627,5.6835,5.6835,5.743,5.7932,5.8384,5.861,5.8956,5.9351,5.9433,5.9483,5.9483,5.9483,5.9483,5.9483,5.9483,5.9483,5.9483,5.9483,5.9483,5.9483,5.9483,6.0507,6.2152,6.403,6.5967,6.7895,6.9781,7.0612,7.0889,7.0889,7.0889,7.0889,7.0889,7.0889,7.0889,7.0889,7.0889,7.0889,7.0889,7.0889,7.0141,6.7523,6.8704,6.9482,6.7358,6.7014,6.7014,6.7014,6.7014,6.7014,6.7014,6.7014,6.7014,6.7014,6.7014,6.7014,6.7014,6.7014,6.7014,6.7014,6.7014,6.7014,6.7014,6.7014,6.7014,6.7014,6.7014,6.7014,6.7014,6.7014,6.7014,6.7014,6.7014,6.7014,0.0,0.0,0.0,2.731,0.0,0.0,0.0,2.9955,3.1401,3.5881,3.7261,3.8391,4.0851,4.198,4.2646,4.295,4.6928,4.9816,4.928,5.2796,5.5408,5.5408,5.5408,5.5591,5.6168,5.6721,5.7255,5.7807,5.7606,5.733,5.701,5.6753,5.6477,5.62,5.62,5.62,5.62,5.6728,5.6985,5.701,5.7882,5.8434,5.871,5.8961,5.9257,5.9483,5.9483,5.9483,5.9483,5.9483,5.9483,5.9483,5.9483,5.9483,5.9483,5.9483,5.9483,5.9637,6.0603,6.1572,6.2868,6.5738,6.7301,6.8451,7.0321,7.0889,7.0889,7.0889,7.0889,7.0889,7.0889,7.0889,7.0889,7.0889,7.0889,7.0889,7.0889,7.0889,7.05,6.9183,6.9991,7.047,6.9183,6.8944,6.8944,6.8944,6.8944,6.8465,6.7164,6.7014,6.7014,6.7014,6.7014,6.7014,6.7014,6.7014,6.7014,6.7014,6.7014,6.7014,6.7014,6.7014,6.7014,6.7014,6.7014,6.7014,6.7014,6.7014,6.7014,6.7014,6.7014,6.7014,0.0,0.0,0.0,0.0,0.0,2.8309,0.0,0.0,0.0,3.6835,3.7274,3.7248,3.8655,3.9006,3.9345,4.0149,4.4105,4.5939,4.266,4.8796,5.3708,5.3808,5.5221,5.6075,5.5756,5.6175,5.7097,5.8585,5.7424,5.6846,5.7286,5.7111,5.6784,5.6376,5.6251,5.6251,5.6351,5.6903,5.723,5.7336,5.8359,5.8836,5.8861,5.9307,5.9483,5.9483,5.9483,5.9483,5.9483,5.9483,5.9483,5.9483,5.9483,5.9483,5.9483,5.9483,5.9734,6.0285,6.1853,6.2886,6.4011,6.7094,6.8349,6.8935,7.0419,7.0889,7.0889,7.0889,7.0889,7.0889,7.0889,7.0889,7.0889,7.0889,7.0889,7.0889,7.0889,7.0889,7.0889,7.0889,7.0889,7.0889,7.0889,7.0889,7.0889,7.0889,7.0889,6.9961,6.7343,6.7014,6.7014,6.7014,6.7014,6.7014,6.7014,6.7014,6.7014,6.7014,6.7014,6.7014,6.7014,6.7014,6.7014,6.7014,6.7014,6.7014,6.7014,6.7014,6.7014,6.7014,6.7014,6.7014,0.0,0.0,0.0,0.0,2.987,0.0,0.0,0.0,2.8398,2.8149,0.0,2.9518,3.0176,0.0,0.0,3.0563,3.4661,3.7562,3.6573,4.109,4.4683,4.5146,5.1707,5.487,5.1481,5.1205,5.3314,5.8334,5.4561,5.3934,5.8284,5.7537,5.696,5.691,5.6451,5.6426,5.6885,5.7481,5.8052,5.851,5.9131,5.9408,5.9408,5.9458,5.9483,5.9483,5.9483,5.9483,5.9483,5.9483,5.9483,5.9483,5.9483,5.9483,5.9483,5.9483,6.0584,6.2096,6.2312,6.4616,6.7536,6.7947,6.9236,7.0629,7.0824,7.0889,7.0889,7.0889,7.0889,7.0889,7.0889,7.0889,7.0889,7.0889,7.0889,7.0889,7.0889,7.0889,7.0889,7.0889,7.0889,7.0889,7.0889,7.0889,7.0889,7.0889,7.0889,6.9961,6.7343,6.7014,6.7014,6.7014,6.7014,6.7014,6.7014,6.7014,6.7014,6.7014,6.7014,6.7014,6.7014,6.7014,6.7014,6.7014,6.7014,6.7014,6.7014,6.7014,6.7014,6.7014,6.7014,6.7014,0.0,0.0,0.0,0.0,0.0,0.0,2.7946,0.0,2.6724,0.0,0.0,0.0,0.0,0.0,0.0,0.0,3.2556,3.455,3.2033,3.7639,4.2345,4.3226,4.6416,4.9038,5.0277,5.1005,5.3414,5.8334,5.4963,5.4461,5.8485,5.8259,5.7857,5.7531,5.6953,5.6953,5.7506,5.7775,5.8177,5.871,5.9257,5.9483,5.9483,5.9483,5.9483,5.9483,5.9483,5.9483,5.9483,5.9483,5.9483,5.9483,5.9483,5.9483,5.9483,5.9483,6.0736,6.2553,6.3639,6.5826,6.8282,6.937,7.0255,7.0889,7.0889,7.0889,7.0889,7.0889,7.0889,7.0889,7.0889,7.0889,7.0889,7.0889,7.0889,7.0889,7.0889,7.0889,7.0889,7.0889,7.0889,7.0889,7.0889,7.0889,7.0889,7.0889,7.0889,7.05,6.9393,6.9243,6.9243,6.9243,6.7897,6.7014,6.7014,6.7014,6.7014,6.7014,6.7014,6.7014,6.7014,6.7014,6.7014,6.7014,6.7014,6.7014,6.7014,6.7014,6.7014,6.7014,6.7014,6.7014,3.4435,0.0,0.0,3.1501,3.1702,3.2064,0.0,0.0,0.0,0.0,0.0,0.0,0.0,0.0,0.0,0.0,0.0,3.2018,2.8907,3.3775,3.809,3.9233,4.0577,4.3251,4.7933,4.8284,5.0594,5.6269,5.3582,5.3808,5.866,5.8786,5.851,5.8127,5.7556,5.7531,5.8127,5.8127,5.8403,5.8911,5.9307,5.9483,5.9483,5.9483,5.9483,5.9483,5.9483,5.9483,5.9483,5.9483,5.9483,5.9483,5.9483,5.983,6.0304,6.0304,6.1516,6.3447,6.5338,6.7266,6.9103,7.0452,7.0889,7.0889,7.0889,7.0889,7.0889,7.0889,7.0889,7.0889,7.0889,7.0889,7.0889,7.0889,7.0889,7.0889,7.0889,7.0889,7.0889,7.0889,7.0889,7.0889,7.0889,7.0889,7.0889,7.0889,7.0889,7.0889,7.0889,7.0889,7.0889,7.0889,6.9183,6.8092,6.8092,6.7418,6.7014,6.7014,6.7014,6.7014,6.7014,6.7014,6.7014,6.7014,6.7014,6.7014,6.7014,6.7014,6.7014,6.7014,6.7014,6.7014,3.9433,3.8303,3.7361,3.1321,3.0281,2.997,2.7203,2.8174,2.9503,0.0,0.0,0.0,0.0,0.0,0.0,0.0,0.0,0.0,0.0,2.8021,2.895,3.009,3.4461,3.8931,4.2864,4.0338,4.2082,5.0887,4.8435,5.0302,5.9006,5.8987,5.8685,5.8685,5.8133,5.8127,5.866,5.8685,5.8936,5.9458,5.9483,5.9483,5.9483,5.9483,5.9483,5.9483,5.9483,5.9483,5.9483,5.9483,5.9483,5.9483,5.9483,6.0641,6.232,6.232,6.3493,6.5391,6.7335,6.9236,7.0808,7.0873,7.0889,7.0889,7.0889,7.0889,7.0889,7.0889,7.0889,7.0889,7.0889,7.0889,7.0889,7.0889,7.0889,7.0889,7.0889,7.0889,7.0889,7.0889,7.0889,7.0889,7.0889,7.0889,7.0889,7.0889,7.0889,7.0889,7.0889,7.0889,7.0889,7.0889,7.0829,7.0769,7.0769,6.8465,6.7014,6.7014,6.7014,6.7014,6.7014,6.7014,6.7014,6.7014,6.7014,6.7014,6.7014,6.7014,6.7014,6.7014,6.7014,6.7014,4.2822,4.4141,4.4156,3.6595,3.5931,3.5467,2.9035,2.8709,2.9538,0.0,0.0,0.0,0.0,0.0,0.0,0.0,0.0,0.0,0.0,0.0,2.6875,2.8005,3.2832,0.0,0.0,4.1014,4.5121,5.0318,5.1021,5.3632,5.9207,5.9332,5.9232,5.9232,5.871,5.8704,5.9232,5.8886,5.8961,5.9483,5.9483,5.9483,5.9483,5.9483,5.9483,5.9483,5.9483,5.9483,5.9483,5.9483,5.9483,5.9618,6.0926,6.1816,6.2413,6.2413,6.44,6.7387,6.9303,7.037,7.0889,7.0889,7.0889,7.0889,7.0889,7.0889,7.0889,7.0889,7.0889,7.0889,7.0889,7.0889,7.0889,7.0889,7.0889,7.0889,7.0889,7.0889,7.0889,7.0889,7.0889,7.0889,7.0889,7.0889,7.0889,7.0889,7.0889,7.0889,7.0889,7.0889,7.0889,7.0889,7.0889,7.0201,6.8465,6.7523,6.7014,6.7014,6.7014,6.7014,6.7014,6.7014,6.7014,6.7014,6.7014,6.7014,6.7014,6.7014,6.7014,6.7014,6.7014,6.7014,4.6627,4.7958,4.7948,4.0991,4.0338,3.9521,3.2344,3.1938,3.2702,3.1562,0.0,0.0,0.0,0.0,0.0,0.0,0.0,0.0,0.0,0.0,0.0,0.0,0.0,0.0,0.0,0.0,4.2635,5.0678,5.0603,5.3005,5.9458,5.9608,5.9483,5.9483,5.9156,5.9238,5.9784,5.9257,5.9257,5.9784,5.9583,5.9483,5.9483,5.9483,5.9483,5.9483,5.9483,5.9483,5.9483,5.9483,5.9483,5.9695,6.1629,6.2812,6.3483,6.4165,6.6388,6.927,7.0468,7.0889,7.0889,7.0889,7.0889,7.0889,7.0889,7.0889,7.0889,7.0889,7.0889,7.0889,7.0889,7.0889,7.0889,7.0889,7.0889,7.0889,7.0889,7.0889,7.0889,7.0889,7.0889,7.0889,7.0889,7.0889,7.0889,7.0889,7.0889,7.0889,7.0889,7.0889,7.0889,7.0889,7.0889,7.0231,6.8525,6.7537,6.7014,6.7014,6.7014,6.7014,6.7014,6.7014,6.7014,6.7014,6.7014,6.7014,6.7014,6.7014,6.7014,6.7014,6.7014,6.7014]}]]